GEFSSGP_con_prob3kmehi_000.txt.gz
EHI
0 0 0 0 0 0 0 0 0 0 0 0 0 1 2 1 0 0 2 11 16 8 1 0 0 0 0 0 0 0 0 0 1 2 2 1 0 0 1 0 0 1 1 1 1 0 0 0 0
0 0 0 0 0 0 0 0 0 0 0 0 0 1 2 1 1 1 2 7 9 5 0 0 0 0 0 0 0 0 0 1 3 7 6 2 0 1 2 2 1 0 0 1 1 0 0 0 0
0 0 0 0 0 0 0 0 0 0 0 0 0 1 1 1 2 3 3 5 7 5 1 0 0 0 1 1 1 1 1 2 8 18 19 10 2 1 3 3 2 0 0 0 0 0 0 0 0
0 0 0 0 0 0 0 0 0 0 0 0 0 0 0 2 5 5 4 8 12 8 2 0 0 2 4 7 8 5 3 5 17 38 43 24 8 3 2 1 1 0 0 0 0 0 0 0 0
0 0 0 0 0 0 0 0 0 0 0 0 0 0 0 6 12 9 5 9 13 9 3 0 0 3 9 19 25 18 11 17 37 63 66 39 14 4 1 0 0 0 0 0 0 0 0 0 0
0 0 0 0 0 0 0 0 0 0 0 0 0 1 1 12 22 17 13 18 19 15 7 1 0 3 12 30 42 34 23 30 53 73 72 45 17 5 2 0 0 1 1 0 0 0 0 0 0
0 0 0 0 0 0 0 0 0 0 0 0 0 1 1 15 33 36 39 43 35 24 11 3 3 6 12 30 50 48 33 31 44 58 56 35 15 5 2 0 1 2 1 0 0 0 0 0 0
0 0 0 0 0 0 0 0 0 0 0 0 0 1 1 17 44 64 65 54 35 18 8 4 9 14 12 23 50 59 43 28 31 37 32 19 9 3 1 0 0 1 0 0 0 0 0 0 0
0 0 0 0 0 0 0 0 0 1 2 2 3 3 2 20 57 80 70 43 19 9 6 4 10 14 9 14 37 49 36 23 21 22 16 7 3 1 0 0 0 0 0 0 0 0 0 0 0
0 0 0 0 0 0 0 0 0 1 2 8 15 14 7 24 62 82 64 31 12 9 6 3 5 6 3 5 14 18 14 9 8 8 5 2 0 0 0 0 0 0 0 0 0 0 0 0 0
0 0 0 0 0 0 0 0 0 1 1 13 31 27 12 22 54 75 59 28 10 6 4 2 1 1 0 0 1 1 0 0 1 1 0 0 0 0 0 0 0 0 0 0 0 0 0 0 0
0 0 0 0 0 0 0 0 0 0 0 15 34 31 14 17 37 52 45 22 5 1 1 0 0 0 0 0 0 0 0 0 0 0 0 0 0 0 0 0 0 0 0 0 0 0 0 0 0
0 0 0 0 0 0 0 0 0 0 0 10 22 21 13 11 19 27 23 12 3 0 0 0 1 1 1 0 0 0 0 1 0 0 0 0 0 0 0 0 0 0 0 0 0 0 0 0 0
0 0 0 0 0 0 0 0 0 0 0 3 8 9 8 11 15 14 8 3 1 1 1 1 3 4 3 1 0 0 0 0 0 0 0 0 0 0 0 0 0 0 0 0 0 0 0 0 0
0 0 0 0 0 0 0 0 0 0 0 0 1 2 4 10 14 9 2 0 1 2 1 3 7 10 7 3 0 0 0 0 0 0 0 0 0 0 0 0 0 0 0 0 0 0 0 0 0
0 0 0 0 0 0 0 0 0 0 0 0 0 1 3 6 6 3 0 0 0 1 1 2 8 12 7 2 0 0 0 0 0 0 0 0 0 0 0 0 0 0 0 0 0 0 0 0 0
0 0 0 0 0 0 0 0 0 0 0 0 0 1 2 2 1 0 0 0 0 0 0 1 4 5 3 0 0 0 0 0 0 0 0 0 0 0 0 0 0 0 0 0 0 0 0 0 0
0 0 0 0 0 0 0 0 0 0 0 0 1 1 1 1 0 0 0 0 0 0 0 1 2 1 0 0 0 0 0 0 0 0 0 0 0 0 0 0 0 0 0 0 0 0 0 0 0
0 0 0 0 0 0 0 0 0 0 0 2 4 6 7 5 1 0 0 0 0 0 0 2 3 2 0 0 0 0 0 0 0 0 0 0 0 0 0 0 0 0 0 0 0 0 0 0 0
0 0 0 0 0 0 0 0 0 0 0 8 22 32 35 31 20 9 2 0 0 0 0 2 2 1 0 0 0 0 0 0 0 0 0 0 0 0 0 0 0 0 0 0 0 0 0 0 0
0 0 0 0 0 0 0 0 0 0 2 18 47 66 67 60 44 20 4 0 0 0 0 0 0 0 0 0 0 0 0 0 0 0 0 0 0 0 0 0 0 0 0 0 0 0 0 0 0
0 0 0 0 0 0 0 0 0 0 3 21 50 66 62 51 35 16 3 0 0 0 0 0 0 0 0 0 0 0 0 0 0 0 0 0 0 0 0 0 0 0 0 0 0 0 0 0 0
0 0 0 0 0 0 0 0 0 0 2 14 32 38 28 17 10 4 1 0 0 0 0 0 0 0 0 0 0 0 0 0 0 0 0 0 0 0 0 0 0 0 0 0 0 0 0 0 0
0 0 0 0 0 0 0 0 0 0 2 11 20 16 5 1 0 0 0 0 0 0 0 0 0 0 0 0 0 0 0 0 0 0 0 0 0 0 0 0 0 0 0 0 0 0 0 0 0
0 0 0 0 0 0 0 0 0 0 3 10 12 6 1 0 0 0 0 0 0 0 0 0 0 0 0 0 0 0 0 0 0 0 0 0 0 0 0 0 0 0 0 0 0 0 0 0 0
0 0 0 0 0 0 0 0 0 0 1 4 4 2 0 0 0 0 0 0 0 0 0 0 0 0 0 0 0 0 0 0 0 0 0 0 0 0 0 0 0 0 0 0 0 0 0 0 0
0 0 0 0 0 0 0 0 0 0 0 0 0 0 0 0 0 0 0 0 0 0 0 0 0 0 0 0 0 0 0 0 0 0 0 0 0 0 0 0 0 0 0 0 0 0 0 0 0
0 0 0 0 0 0 0 0 0 0 0 0 0 0 0 0 0 0 0 0 0 0 0 0 0 0 0 0 0 0 0 0 0 0 0 0 0 0 0 0 0 0 0 0 0 0 0 0 0
0 0 0 0 0 0 0 0 0 0 0 0 0 0 0 0 0 0 0 0 0 0 0 0 0 0 0 0 0 0 0 0 0 0 0 0 0 0 0 0 0 0 0 0 0 0 0 0 0
0 0 0 0 0 0 0 0 0 0 0 0 0 0 0 0 0 0 0 0 0 0 0 0 0 0 0 0 0 0 0 0 0 0 0 0 0 0 0 0 0 0 0 0 0 0 0 0 0

GEFSSGP_con_prob3kmehi_006.txt.gz
EHI
0 0 0 0 0 0 0 0 0 0 0 0 0 0 0 0 0 0 0 0 0 0 0 1 2 5 9 14 15 10 5 2 0 0 1 2 2 1 0 0 0 0 0 0 0 0 0 0 0
0 0 0 0 0 0 0 0 0 0 0 0 0 0 0 0 0 0 0 0 0 0 0 1 2 3 5 8 10 9 6 3 1 0 0 1 1 0 0 0 0 0 0 0 0 0 0 0 0
0 0 0 0 0 0 0 0 0 0 0 0 0 0 0 0 0 0 0 0 0 0 0 0 1 2 2 3 6 8 7 4 1 0 0 0 0 0 0 0 0 0 0 0 0 0 0 0 0
0 0 0 0 0 0 0 0 0 0 0 0 0 0 0 0 1 3 4 3 0 0 0 1 1 2 2 2 5 9 10 5 1 0 0 0 0 0 0 0 0 0 0 0 1 1 1 0 0
0 0 0 0 0 0 0 0 0 0 0 0 0 0 0 1 5 12 14 8 2 1 1 1 2 3 5 8 10 14 15 10 4 1 1 0 0 0 0 0 0 0 1 1 1 2 1 0 0
0 0 0 0 0 0 0 0 0 0 0 0 1 1 0 3 13 21 19 9 3 1 1 1 2 6 17 28 30 27 27 25 18 12 6 2 1 1 1 1 0 0 1 1 1 1 1 0 0
0 0 0 0 0 0 0 0 0 0 0 0 2 3 3 8 21 29 21 10 4 1 0 0 1 9 24 42 49 42 36 36 33 24 13 4 2 2 2 1 0 0 1 1 0 0 0 0 0
0 0 0 0 0 0 0 0 0 0 0 0 1 6 16 28 43 49 37 20 7 2 1 1 4 9 16 27 39 38 29 26 26 21 10 3 1 1 1 1 0 0 0 0 0 0 0 0 0
0 0 0 0 0 0 0 0 0 0 0 0 5 19 42 62 71 69 56 35 19 9 4 5 10 10 6 7 13 17 12 9 8 6 3 0 0 0 0 0 0 0 0 0 0 0 0 0 0
0 0 0 0 0 0 0 0 0 0 0 6 24 51 75 83 76 63 48 35 24 15 8 8 12 10 4 1 1 2 2 1 0 0 0 0 0 0 0 0 0 0 0 0 0 0 0 0 0
0 0 0 0 0 0 0 0 0 0 0 17 53 84 93 84 60 35 22 18 14 9 6 7 8 5 2 0 0 0 0 0 0 0 0 0 0 0 0 0 0 0 0 0 0 0 0 0 0
0 0 0 0 0 0 0 0 0 0 4 31 74 98 96 77 42 13 3 3 3 2 2 3 3 1 0 0 0 0 0 0 0 0 0 0 0 0 0 0 0 0 0 0 0 0 0 0 0
0 0 0 0 0 0 0 0 0 1 16 52 87 100 96 74 35 8 0 0 0 0 0 1 1 0 0 0 0 0 0 0 0 0 0 0 0 0 0 0 0 0 0 0 0 0 0 0 0
0 0 0 0 0 0 0 0 0 6 33 73 96 100 95 74 37 9 1 0 0 0 0 0 0 0 0 0 0 0 0 0 0 0 0 0 0 0 0 0 0 0 0 0 0 0 0 0 0
0 0 0 0 0 0 0 0 0 13 50 86 98 98 94 73 38 10 1 0 0 0 0 0 0 0 0 0 0 0 0 0 0 0 0 0 0 0 0 0 0 0 0 0 0 0 0 0 0
0 0 0 0 0 0 0 0 0 18 58 88 96 95 90 68 32 7 0 0 0 0 0 0 0 0 0 0 0 0 0 0 0 0 0 0 0 0 0 0 0 0 0 0 0 0 0 0 0
0 0 0 0 0 0 0 0 0 14 46 76 87 90 85 60 25 4 0 0 0 0 0 0 0 0 0 0 0 0 0 0 0 0 0 0 0 0 0 0 0 0 0 0 0 0 0 0 0
0 0 0 0 0 0 0 0 0 5 23 48 65 74 75 53 19 2 0 0 0 0 0 0 0 0 0 0 0 0 0 0 0 0 0 0 0 0 0 0 0 0 0 0 0 0 0 0 0
0 0 0 0 0 0 0 0 0 0 6 18 31 43 51 38 12 0 0 0 0 0 0 0 0 0 0 0 0 0 0 0 0 0 0 0 0 0 0 0 0 0 0 0 0 0 0 0 0
0 0 0 0 0 0 0 0 0 0 0 3 7 13 19 17 6 0 0 0 0 0 0 0 0 0 0 0 0 0 0 0 0 0 0 0 0 0 0 0 0 0 0 0 0 0 0 0 0
0 0 0 0 0 0 0 0 0 0 0 0 0 1 3 5 3 1 0 0 0 0 0 0 0 0 0 0 0 0 0 0 0 0 0 0 0 0 0 0 0 0 0 0 0 0 0 0 0
0 0 0 0 0 0 0 0 0 0 0 0 0 2 5 9 8 3 0 0 0 0 0 0 0 0 0 0 0 0 0 0 0 0 0 0 0 0 0 0 0 0 0 0 0 0 0 0 0
0 0 0 0 0 0 0 0 0 0 0 1 4 13 24 30 21 7 0 0 0 0 0 0 0 0 0 0 0 0 0 0 0 0 0 0 0 0 0 0 0 0 0 0 0 0 0 0 0
0 0 0 0 0 0 0 0 0 0 0 5 19 39 55 55 34 10 1 0 0 0 0 0 0 0 0 0 0 0 0 0 0 0 0 0 0 0 0 0 0 0 0 0 0 0 0 0 0
0 0 0 0 0 0 0 0 0 0 0 10 38 66 72 58 31 9 1 0 0 0 0 0 0 0 0 0 0 0 0 0 0 0 0 0 0 0 0 0 0 0 0 0 0 0 0 0 0
0 0 0 0 0 0 0 0 0 0 0 14 48 71 62 38 17 4 0 0 0 0 0 0 0 0 0 0 0 0 0 0 0 0 0 0 0 0 0 0 0 0 0 0 0 0 0 0 0
0 0 0 0 0 0 0 0 0 0 2 17 45 56 40 19 6 1 0 0 0 0 0 0 0 0 0 0 0 0 0 0 0 0 0 0 0 0 0 0 0 0 0 0 0 0 0 0 0
0 0 0 0 0 0 0 0 0 0 3 17 35 36 20 6 1 0 0 0 0 0 0 0 0 0 0 0 0 0 0 0 0 0 0 0 0 0 0 0 0 0 0 0 0 0 0 0 0
0 0 0 0 0 0 0 0 0 0 2 11 21 19 8 1 0 0 0 0 0 0 0 0 0 0 0 0 0 0 0 0 0 0 0 0 0 0 0 0 0 0 0 0 0 0 0 0 0
0 0 0 0 0 0 0 0 0 0 1 6 12 9 3 0 0 0 0 0 0 0 0 0 0 0 0 0 0 0 0 0 0 0 0 0 0 0 0 0 0 0 0 0 0 0 0 0 0

GEFSSGP_con_prob3kmehi_012.txt.gz
EHI
0 0 0 0 0 0 0 0 0 0 0 0 0 0 0 0 0 0 1 0 0 0 0 0 1 0 0 0 3 12 23 31 39 37 23 9 2 0 0 0 0 0 0 0 0 0 0 0 0
0 0 0 0 0 0 0 0 0 0 0 0 0 0 0 0 0 1 1 1 0 0 0 1 1 1 0 0 2 7 13 18 22 19 11 4 1 0 0 0 0 0 0 0 0 0 0 0 0
0 0 0 0 0 0 0 0 0 0 0 0 0 0 0 0 0 2 3 2 0 0 1 2 2 1 0 0 0 1 3 4 5 4 2 0 0 0 0 0 0 0 0 0 0 0 0 0 0
0 0 0 0 0 0 0 0 0 0 0 0 0 0 0 2 7 9 6 2 0 0 0 1 1 0 0 0 0 0 0 0 0 0 0 0 0 0 0 0 0 0 0 0 0 0 0 0 0
0 0 0 0 0 0 0 0 0 0 0 0 0 0 3 15 26 23 9 1 0 0 0 0 0 0 0 0 0 0 1 1 1 0 0 0 0 0 0 0 0 0 0 0 0 0 0 0 0
0 0 0 0 0 0 0 0 0 0 0 0 0 0 8 31 49 38 13 1 0 0 0 0 0 0 0 1 1 2 4 4 2 0 0 0 0 0 0 0 0 0 0 0 0 0 0 0 0
0 0 0 0 0 0 0 0 0 0 0 0 0 0 13 41 57 40 14 3 1 0 0 0 0 0 0 1 3 3 4 3 2 0 0 0 0 0 0 0 0 0 0 0 0 0 0 0 0
0 0 0 0 0 0 0 0 0 0 0 0 0 0 15 45 53 32 11 2 1 0 0 0 0 0 0 1 2 2 2 1 0 0 0 0 0 0 0 0 0 0 0 0 0 0 0 0 0
0 0 0 0 0 0 0 0 0 0 0 0 0 0 15 41 43 23 8 2 1 0 0 0 0 0 0 0 1 1 0 0 0 0 0 0 0 0 0 1 1 0 0 0 0 0 0 0 0
0 0 0 0 0 0 0 0 0 0 0 0 0 3 16 32 29 14 6 3 1 0 0 0 0 0 0 0 0 0 0 0 0 0 0 0 0 0 0 1 2 1 0 0 0 0 0 0 0
0 0 0 0 0 0 0 0 0 0 0 0 2 13 28 31 18 7 4 2 1 0 0 0 0 0 0 0 0 0 0 0 0 0 0 0 0 0 0 0 1 0 0 0 0 0 0 0 0
0 0 0 0 0 0 0 0 0 0 0 0 3 21 39 31 12 5 4 3 1 1 1 2 2 2 1 0 0 0 0 0 0 0 0 0 0 0 0 0 0 0 0 0 0 0 0 0 0
0 0 0 0 0 0 0 0 0 0 0 0 4 21 32 22 9 7 8 6 4 3 4 5 6 6 3 2 1 0 0 0 0 0 0 0 0 0 0 0 0 0 0 0 0 0 0 0 0
0 0 0 0 0 0 0 0 0 0 0 0 3 13 18 11 8 17 23 18 10 7 8 8 9 7 5 4 2 1 1 0 0 0 0 0 0 0 0 0 0 0 0 0 0 0 0 0 0
0 0 0 0 0 0 0 0 0 0 0 0 1 6 11 10 15 35 49 37 17 10 14 15 11 10 13 12 8 5 2 2 1 0 0 0 0 0 0 0 0 0 0 0 0 0 0 0 0
0 0 0 0 0 0 0 0 0 0 0 0 0 4 14 19 28 53 68 52 24 14 21 26 22 26 35 37 31 22 16 11 6 1 0 0 0 0 0 0 0 0 0 0 0 0 0 0 0
0 0 0 0 0 0 0 0 0 0 0 0 0 7 24 38 49 67 77 61 37 25 30 40 45 52 62 66 58 42 30 19 7 2 0 0 0 0 0 0 0 0 0 0 0 0 1 0 0
0 0 0 0 0 0 0 0 0 0 0 0 1 12 37 58 69 77 79 69 53 43 45 54 61 68 72 68 56 38 22 11 4 1 0 0 0 0 0 0 0 0 0 0 0 0 0 0 0
0 0 0 0 0 0 0 0 0 0 0 0 3 19 48 72 80 79 75 72 67 63 63 65 66 65 62 54 38 19 6 1 0 0 0 0 0 0 0 0 0 0 0 0 0 0 0 0 0
0 0 0 0 0 0 0 0 0 0 0 0 3 21 54 81 86 76 68 69 73 73 73 71 66 57 49 40 24 8 1 0 0 0 0 0 0 0 0 0 0 0 0 0 0 0 0 0 0
0 0 0 0 0 0 0 0 0 0 0 0 2 17 50 81 86 71 61 61 64 65 64 61 56 48 37 24 10 3 0 0 0 0 0 0 0 0 0 0 0 0 0 0 0 0 0 0 0
0 0 0 0 0 0 0 0 0 0 0 0 0 10 39 72 80 66 53 48 46 45 43 41 37 30 20 9 2 0 0 0 0 0 0 0 0 0 0 0 0 0 0 0 0 0 0 0 0
0 0 0 0 0 0 0 0 0 0 0 0 0 5 26 58 71 60 43 34 28 25 24 23 19 13 7 3 1 0 0 0 0 0 0 0 0 0 0 0 0 0 0 0 0 0 0 0 0
0 0 0 0 0 0 0 0 0 0 0 0 0 3 19 47 62 48 27 17 13 10 10 9 7 4 2 1 0 0 0 0 0 0 0 0 0 0 0 0 0 0 0 0 0 0 0 0 0
0 0 0 0 0 0 0 0 0 0 0 0 0 6 24 46 50 32 12 5 3 2 2 2 1 1 0 0 0 0 0 0 0 0 0 0 0 0 0 0 0 0 0 0 0 0 0 0 0
0 0 0 0 0 0 0 0 0 0 0 0 5 19 42 52 39 17 4 0 0 0 0 0 0 0 0 0 0 0 0 0 0 0 0 0 0 0 0 0 0 0 0 0 0 0 0 0 0
0 0 0 0 0 0 0 0 0 0 0 1 12 39 61 55 29 8 0 0 0 0 0 0 0 0 0 0 0 0 0 0 0 0 0 0 0 0 0 0 0 0 0 0 0 0 0 0 0
0 0 0 0 0 0 0 0 0 0 0 2 19 53 73 55 23 4 0 0 0 0 0 0 0 0 0 0 0 0 0 0 0 0 0 0 0 0 0 0 0 0 0 0 0 0 0 0 0
0 0 0 0 0 0 0 0 0 0 0 2 22 58 76 53 19 2 0 0 0 0 0 0 0 0 0 0 0 0 0 0 0 0 0 0 0 0 0 0 0 0 0 0 0 0 0 0 0
0 0 0 0 0 0 0 0 0 0 0 2 23 61 76 51 17 2 0 0 0 0 0 0 0 0 0 0 0 0 0 0 0 0 0 0 0 0 0 0 0 0 0 0 0 0 0 0 0

GEFSSGP_con_prob3kmehi_018.txt.gz
EHI
0 0 0 0 0 0 0 0 0 0 0 0 0 0 1 6 15 18 19 44 56 30 20 45 48 24 7 6 4 1 0 1 2 1 0 0 0 0 0 0 0 0 0 0 0 0 0 0 0
0 0 0 0 0 0 0 0 0 0 0 0 0 0 0 2 7 12 19 39 46 26 15 27 31 18 6 3 1 0 0 2 2 2 0 0 0 0 0 0 0 0 0 0 0 0 0 0 0
0 0 0 0 0 0 0 0 0 0 0 0 0 0 0 0 6 14 20 29 38 34 23 18 16 11 3 1 0 0 0 1 1 1 0 0 0 0 0 0 0 0 0 0 0 0 0 0 0
0 0 0 0 0 0 0 0 0 0 0 0 0 0 0 5 15 22 18 20 37 49 37 18 11 7 1 0 0 0 0 0 0 0 0 0 0 0 0 0 0 0 0 0 0 0 0 0 0
0 0 0 0 0 0 0 0 0 0 0 0 1 1 4 12 24 21 13 15 38 54 36 13 7 5 1 0 0 0 0 0 0 0 0 0 0 0 0 0 0 0 0 0 0 0 0 0 0
0 0 0 0 0 0 0 0 0 0 0 0 1 2 7 18 22 15 10 15 36 49 30 7 4 2 0 1 3 2 1 0 0 0 0 0 0 0 0 0 0 0 1 1 0 0 0 0 0
0 0 0 0 0 0 0 0 0 0 0 0 1 1 9 20 20 12 11 15 33 42 25 5 1 0 0 3 6 5 2 1 0 0 0 0 0 0 0 0 0 0 1 1 0 0 0 0 0
0 0 0 0 0 0 0 0 0 0 0 0 0 3 14 26 22 14 16 21 32 37 23 5 0 0 0 4 7 6 2 1 0 0 0 0 0 0 0 0 0 0 0 0 0 0 0 0 0
0 0 0 0 0 0 0 0 0 0 0 1 4 11 25 30 23 19 27 38 45 43 27 9 2 2 3 6 6 4 1 0 0 0 0 0 0 0 0 0 0 0 0 0 0 0 0 0 0
0 0 0 0 0 0 0 0 0 0 0 2 11 23 33 30 23 23 39 58 65 51 26 11 8 9 13 12 6 1 1 0 0 0 0 0 0 0 0 0 0 0 0 0 0 0 0 0 0
0 0 0 0 0 0 0 0 0 0 0 3 14 31 37 32 24 23 39 66 74 51 22 14 18 22 25 18 7 4 5 4 4 3 1 0 0 0 0 0 0 0 0 0 0 0 0 0 0
0 0 0 0 0 0 0 0 0 0 0 2 12 29 37 32 23 18 32 63 76 55 32 31 39 43 43 31 15 11 15 19 20 14 3 0 0 1 4 6 5 1 0 0 0 0 0 0 0
0 0 0 0 0 0 0 0 0 0 0 1 9 24 32 29 21 17 30 61 80 71 59 61 66 71 73 59 35 27 36 43 41 24 7 3 8 16 21 22 15 7 4 6 5 4 3 2 1
0 0 0 0 0 0 0 0 0 0 0 1 6 17 26 26 22 24 40 67 86 88 85 85 86 89 89 75 54 50 60 65 58 44 28 21 29 42 44 39 33 24 18 16 12 10 9 7 5
0 0 0 0 0 0 0 0 0 0 0 0 3 10 21 26 27 34 54 77 91 95 95 94 94 92 85 71 59 61 73 78 77 75 64 53 53 57 54 54 52 43 31 24 19 17 15 12 9
0 0 0 0 0 0 0 0 0 0 0 0 1 5 15 25 30 43 66 85 94 96 97 96 95 93 84 73 65 69 80 88 91 91 84 71 58 49 52 61 57 42 31 25 20 17 15 11 7
0 0 0 0 0 0 0 0 0 0 0 0 1 3 9 19 33 55 78 90 93 96 97 96 96 95 91 86 82 84 89 92 90 85 78 64 44 33 41 49 41 27 22 19 13 11 8 5 2
0 0 0 0 0 0 0 0 0 0 0 0 1 2 5 15 38 68 87 92 94 96 97 97 97 97 96 95 93 91 89 85 78 70 60 45 29 19 22 26 20 13 10 8 5 3 2 0 0
0 0 0 0 0 0 0 0 0 0 0 0 0 1 5 19 48 78 93 94 94 96 97 97 97 97 97 96 93 87 81 70 57 45 35 24 15 9 7 8 7 4 2 2 1 1 0 0 0
0 0 0 0 0 0 0 0 0 0 0 0 0 1 5 22 55 84 94 96 95 95 97 97 97 97 97 95 89 79 66 48 32 21 14 9 5 2 1 1 1 1 0 0 0 0 0 0 0
0 0 0 0 0 0 0 0 0 0 0 0 0 1 4 21 55 84 95 96 96 95 96 97 97 97 96 92 79 62 43 26 15 9 5 2 1 0 0 0 0 0 0 0 0 0 0 0 0
0 0 0 0 0 0 0 0 0 0 0 0 0 0 2 18 51 82 95 98 97 96 97 97 97 96 94 84 67 47 28 15 9 5 2 0 0 0 0 0 0 0 0 0 0 0 0 0 0
0 0 0 0 0 0 0 0 0 0 0 0 0 0 2 17 49 81 95 99 99 98 97 95 93 91 85 74 59 41 24 11 6 2 0 0 0 0 0 0 0 0 0 0 0 0 0 0 0
0 0 0 0 0 0 0 0 0 0 0 0 0 1 5 22 54 82 95 98 96 92 85 79 74 69 63 54 43 30 15 6 2 0 0 0 0 0 0 0 0 0 0 0 0 0 0 0 0
0 0 0 0 0 0 0 0 0 0 0 0 1 4 12 34 65 86 92 89 81 70 59 49 42 36 31 25 19 11 5 1 0 0 0 0 0 0 0 0 0 0 0 0 0 0 0 0 0
0 0 0 0 0 0 0 0 0 0 0 0 2 7 22 49 75 86 81 69 55 41 30 22 16 12 8 6 3 1 0 0 0 0 0 0 0 0 0 0 0 0 0 0 0 0 0 0 0
0 0 0 0 0 0 0 0 0 0 0 0 2 12 34 62 79 76 61 44 30 19 11 6 4 3 1 0 0 0 0 0 0 0 0 0 0 0 0 0 0 0 0 0 0 0 0 0 0
0 0 0 0 0 0 0 0 0 0 0 0 3 18 47 72 76 60 40 24 12 5 2 1 1 0 0 0 0 0 0 0 0 0 0 0 0 0 0 0 0 0 0 0 0 0 0 0 0
0 0 0 0 0 0 0 0 0 0 0 0 5 26 59 77 69 46 24 10 3 0 0 0 0 0 0 0 0 0 0 0 0 0 0 0 0 0 0 0 0 0 0 0 0 0 0 0 0
0 0 0 0 0 0 0 0 0 0 0 1 7 31 66 79 64 37 16 4 1 0 0 0 0 0 0 0 0 0 0 0 0 0 0 0 0 0 0 0 0 0 0 0 0 0 0 0 0

GEFSSGP_con_prob3kmehi_024.txt.gz
EHI
0 0 0 0 0 0 0 0 0 0 0 1 5 11 11 8 4 2 1 1 2 5 23 60 88 93 86 71 51 35 21 9 2 0 0 0 0 0 0 0 0 0 0 0 0 0 0 0 0
0 0 0 0 0 0 0 0 0 0 0 2 5 8 10 10 8 4 2 1 2 5 21 55 85 90 81 65 45 29 18 7 1 0 0 0 0 0 0 0 0 0 0 0 0 0 0 0 0
0 0 0 0 0 0 0 0 0 0 0 1 3 5 8 16 18 11 4 2 1 3 19 50 76 79 67 51 35 23 13 4 0 0 0 0 0 0 0 0 0 0 0 0 0 0 0 0 0
0 0 0 0 0 0 0 0 0 0 0 2 5 6 8 26 41 29 10 3 1 4 17 41 60 60 49 38 28 18 10 4 1 0 0 0 0 0 0 0 0 0 0 0 0 0 0 0 0
0 0 0 0 0 0 0 0 0 0 2 8 14 11 13 40 67 52 17 3 3 7 14 28 41 42 37 32 24 14 8 4 1 0 0 0 0 0 0 0 0 0 0 0 0 0 0 0 0
0 0 0 0 0 0 0 0 0 0 2 11 19 15 18 51 79 66 28 7 4 8 12 18 24 27 28 30 24 15 8 4 1 0 0 0 0 0 0 0 0 0 0 0 0 0 0 0 0
0 0 0 0 0 0 0 0 0 0 2 9 16 14 19 49 79 76 49 20 6 7 11 12 11 13 18 24 26 19 9 4 2 1 0 0 0 0 0 0 0 0 0 0 0 0 0 0 0
0 0 0 0 0 0 0 0 0 0 1 5 10 10 16 45 78 89 73 44 17 7 9 10 7 7 9 15 21 18 9 3 2 1 0 0 0 0 0 0 0 0 0 0 0 0 0 0 0
0 0 0 0 0 0 0 0 0 1 3 8 14 15 24 53 83 96 90 70 41 18 10 9 9 7 6 7 11 10 6 2 1 0 0 0 0 0 0 0 0 0 0 0 0 0 0 0 0
0 0 0 0 0 0 0 0 0 3 9 20 32 35 42 64 87 97 96 86 64 37 16 9 10 9 6 4 4 4 2 1 0 0 0 0 0 0 0 0 0 0 0 0 0 0 0 0 0
0 0 0 0 0 0 0 0 1 5 14 32 49 53 56 70 86 94 94 87 73 52 30 16 12 9 6 3 2 1 0 0 0 0 0 0 0 0 0 0 0 0 0 0 0 0 0 0 0
0 0 0 0 0 0 0 0 1 5 16 35 53 58 59 69 81 89 90 85 77 65 51 36 24 13 5 2 1 0 0 0 0 0 0 0 0 0 0 0 0 0 0 0 0 0 0 0 0
0 0 0 0 0 0 0 0 0 4 17 35 49 53 54 60 71 81 88 89 84 76 69 63 49 27 13 7 4 2 1 0 0 0 0 0 0 0 0 0 0 0 0 0 0 0 0 0 0
0 0 0 0 0 0 0 0 0 5 19 35 43 44 43 49 61 74 85 91 88 81 78 79 70 51 33 23 17 12 7 2 0 0 0 0 0 0 0 0 0 0 0 0 0 0 0 0 0
0 0 0 0 0 0 0 0 0 6 18 31 38 38 34 37 52 69 82 88 87 82 83 87 82 69 54 39 33 32 24 12 5 2 1 1 0 0 0 0 0 0 0 0 0 0 0 0 0
0 0 0 0 0 0 0 0 0 4 12 22 32 35 31 30 42 62 77 83 83 83 87 92 89 77 59 46 47 55 51 34 15 6 3 2 0 0 0 0 0 0 0 0 0 0 0 0 0
0 0 0 0 0 0 0 0 0 2 5 12 22 30 31 29 36 53 71 78 80 84 90 94 94 82 64 55 60 71 69 51 26 10 4 1 0 0 0 0 0 0 0 0 0 0 0 0 0
0 0 0 0 0 0 0 0 0 1 2 5 12 22 28 30 35 49 68 78 81 86 91 95 95 87 78 74 75 76 68 49 26 9 2 1 0 0 0 0 0 0 0 0 0 0 0 0 0
0 0 0 0 0 0 0 0 0 0 1 2 5 12 21 27 34 51 71 82 87 88 90 93 94 92 89 86 81 69 52 32 14 4 1 0 0 0 0 0 0 0 0 0 0 0 0 0 0
0 0 0 0 0 0 0 0 0 0 0 0 1 5 13 23 34 55 76 87 89 88 88 91 93 92 88 82 70 50 28 13 4 1 0 0 0 0 0 0 0 0 0 0 0 0 0 0 0
0 0 0 0 0 0 0 0 0 0 0 0 0 2 11 22 38 60 80 88 87 85 87 89 89 85 77 65 49 27 10 3 0 0 0 0 0 0 0 0 0 0 0 0 0 0 0 0 0
0 0 0 0 0 0 0 0 0 0 0 0 0 2 10 25 44 64 81 87 86 84 85 86 81 71 58 43 27 13 4 1 0 0 0 0 0 0 0 0 0 0 0 0 0 0 0 0 0
0 0 0 0 0 0 0 0 0 0 0 0 0 2 11 29 52 72 85 89 87 84 82 79 69 52 36 24 12 5 1 0 0 0 0 0 0 0 0 0 0 0 0 0 0 0 0 0 0
0 0 0 0 0 0 0 0 0 0 0 0 3 8 19 40 65 83 91 92 87 80 72 62 47 29 16 9 4 1 0 0 0 0 0 0 0 0 0 0 0 0 0 0 0 0 0 0 0
0 0 0 0 0 0 0 0 0 1 3 8 17 28 41 59 79 90 93 90 80 66 51 35 21 10 3 1 1 0 0 0 0 0 0 0 0 0 0 0 0 0 0 0 0 0 0 0 0
0 0 0 0 0 0 0 0 0 3 13 25 41 55 66 77 85 86 84 76 60 41 25 13 6 1 0 0 0 0 0 0 0 0 0 0 0 0 0 0 0 0 0 0 0 0 0 0 0
0 0 0 0 0 0 0 0 0 5 20 38 55 68 75 78 76 69 59 47 31 16 8 4 1 0 0 0 0 0 0 0 0 0 0 0 0 0 0 0 0 0 0 0 0 0 0 0 0
0 0 0 0 0 0 0 0 0 3 16 34 49 61 64 59 51 41 31 19 10 4 2 1 0 0 0 0 0 0 0 0 0 0 0 0 0 0 0 0 0 0 0 0 0 0 0 0 0
0 0 0 0 0 0 0 0 1 3 10 23 37 44 41 32 23 16 10 6 2 1 0 0 0 0 0 0 0 0 0 0 0 0 0 0 0 0 0 0 0 0 0 0 0 0 0 0 0
0 0 0 0 0 0 0 1 3 5 9 18 28 31 25 16 8 4 2 1 0 0 0 0 0 0 0 0 0 0 0 0 0 0 0 0 0 0 0 0 0 0 0 0 0 0 0 0 0

GEFSSGP_con_prob3kmehi_030.txt.gz
EHI
0 0 0 0 0 0 0 0 0 0 0 0 0 0 0 0 0 0 0 0 4 12 23 38 53 69 81 83 77 65 57 55 59 63 64 60 53 40 27 17 8 3 1 0 0 0 0 0 0
0 0 0 0 0 0 0 0 0 0 0 0 0 0 0 0 0 0 0 1 7 18 26 39 57 72 81 84 79 66 51 42 39 40 40 35 28 20 13 8 4 1 0 0 0 0 0 0 0
0 0 0 0 0 0 0 0 0 0 0 0 1 1 0 0 0 0 0 4 14 23 28 40 61 75 82 86 81 67 47 29 17 13 12 8 5 3 2 1 0 0 0 0 0 0 0 0 0
0 0 0 0 0 0 0 0 0 0 0 1 2 3 1 0 0 0 0 7 20 24 26 39 60 75 82 83 77 62 42 21 7 2 1 0 0 0 0 0 0 0 0 0 0 0 0 0 0
0 0 0 0 0 0 0 0 0 0 0 1 4 5 2 0 0 0 1 9 21 25 24 33 53 69 76 74 65 51 32 14 4 1 1 0 0 0 0 0 0 0 0 0 0 0 0 0 0
0 0 0 0 0 0 0 0 0 0 0 3 8 9 3 0 0 0 1 6 18 24 21 23 36 50 59 60 53 42 28 14 7 4 2 0 0 0 0 0 0 0 0 0 0 0 0 0 0
0 0 0 0 0 0 0 0 0 0 0 6 14 11 4 1 0 0 1 5 12 17 15 11 14 22 33 43 45 41 33 22 12 6 2 0 0 0 0 0 0 0 0 0 0 0 0 0 0
0 0 0 0 0 0 0 0 0 0 1 6 12 9 4 3 1 2 5 7 8 8 7 4 2 5 12 24 36 42 41 33 19 7 2 0 0 0 0 0 0 0 0 0 0 0 0 0 0
0 0 0 0 0 0 0 0 0 0 2 4 5 7 13 16 9 5 8 9 7 5 3 1 1 3 5 11 21 31 34 28 16 5 1 0 0 0 0 0 0 0 0 0 0 0 0 0 0
0 0 0 0 0 0 0 0 0 0 1 2 7 20 40 44 26 12 8 7 6 5 3 1 1 4 6 7 10 15 16 12 6 2 0 0 0 0 0 0 0 0 0 0 0 0 0 0 0
0 0 0 0 0 0 0 0 0 0 0 2 17 47 72 70 50 27 12 4 3 2 1 1 3 7 8 9 9 9 6 3 1 0 0 0 0 0 0 0 0 0 0 0 0 0 0 0 0
0 0 0 0 0 0 0 0 0 0 0 4 28 67 89 85 68 43 19 6 1 0 0 1 5 10 11 11 13 12 7 3 1 0 0 0 0 0 0 0 0 0 0 0 0 0 0 0 0
0 0 0 0 0 0 0 0 0 0 1 12 43 79 95 91 76 53 29 12 4 1 0 3 7 12 13 13 14 12 6 3 1 0 0 0 0 0 0 0 0 0 0 0 0 0 0 0 0
0 0 0 0 0 0 0 0 0 0 3 19 55 86 96 92 80 63 44 25 11 4 1 3 9 13 15 15 12 8 4 1 0 0 0 0 0 0 0 0 0 0 0 0 0 0 0 0 0
0 0 0 0 0 0 0 0 0 1 5 19 49 79 91 90 83 74 62 43 22 8 4 5 10 16 18 15 9 5 2 1 0 0 0 0 0 0 0 0 0 0 0 0 0 0 0 0 0
0 0 0 0 0 0 0 0 0 1 4 12 31 56 75 79 76 74 71 58 39 22 12 11 18 25 24 16 8 3 1 1 0 0 0 0 0 0 0 0 0 0 0 0 0 0 0 0 0
0 0 0 0 0 0 0 0 0 0 2 6 14 33 53 61 61 67 73 70 61 47 33 31 38 45 42 28 13 4 3 2 1 1 0 0 0 0 0 0 0 0 0 0 0 0 0 0 0
0 0 0 0 0 0 0 0 0 0 0 2 6 17 32 42 46 54 64 71 73 69 61 58 63 68 66 52 31 16 9 6 3 2 0 0 0 0 0 0 0 0 0 0 0 0 0 0 0
0 0 0 0 0 0 0 0 0 0 0 0 2 7 16 25 30 35 45 59 69 75 75 76 78 79 76 67 48 27 13 7 4 1 0 0 0 0 0 0 0 0 0 0 0 0 0 0 0
0 0 0 0 0 0 0 0 0 0 0 0 0 1 5 10 14 18 29 44 60 73 79 82 82 78 71 61 42 21 8 3 1 0 0 0 0 0 0 0 0 0 0 0 0 0 0 0 0
0 0 0 0 0 0 0 0 0 0 0 0 0 0 1 2 4 11 20 33 51 70 79 80 76 68 57 43 25 9 2 0 0 0 0 0 0 0 0 0 0 0 0 0 0 0 0 0 0
0 0 0 0 0 0 0 0 0 0 0 0 0 0 0 0 2 7 16 28 45 63 72 70 62 52 41 27 14 5 1 0 0 0 0 0 0 0 0 0 0 0 0 0 0 0 0 0 0
0 0 0 0 0 0 0 0 0 0 0 0 0 1 1 2 5 11 21 32 45 57 60 54 44 35 25 14 7 2 0 0 0 0 0 0 0 0 0 0 0 0 0 0 0 0 0 0 0
0 0 0 0 0 0 0 0 0 0 1 2 3 4 5 8 13 20 29 38 45 48 45 36 27 18 10 4 1 0 0 0 0 0 0 0 0 0 0 0 0 0 0 0 0 0 0 0 0
0 0 0 0 0 0 0 0 0 1 4 7 8 9 11 14 18 23 28 31 32 30 25 18 12 6 2 0 0 0 0 0 0 0 0 0 0 0 0 0 0 0 0 0 0 0 0 0 0
0 0 0 0 0 0 0 0 1 5 10 13 12 12 13 14 16 18 17 15 14 12 9 6 4 1 0 0 0 0 0 0 0 0 0 0 0 0 0 0 0 0 0 0 0 0 0 0 0
0 0 0 0 0 0 0 0 1 6 14 17 15 12 11 9 9 10 8 6 4 3 3 2 1 0 0 0 0 0 0 0 0 0 0 0 0 0 0 0 0 0 0 0 0 0 0 0 0
0 0 0 0 0 0 0 0 0 5 13 17 15 10 6 4 4 4 3 2 1 1 1 1 0 0 0 0 0 0 0 0 0 0 0 0 0 0 0 0 0 0 0 0 0 0 0 0 0
0 0 0 0 0 0 0 0 2 7 14 18 14 7 2 2 2 2 1 1 0 0 0 0 0 0 0 0 0 0 0 0 0 0 0 0 0 0 0 0 0 0 0 0 0 0 0 0 0
0 0 0 0 0 0 0 1 4 13 20 20 14 5 1 1 1 1 0 0 0 0 0 0 0 0 0 0 0 0 0 0 0 0 0 0 0 0 0 0 0 0 0 0 0 0 0 0 0

GEFSSGP_con_prob3kmehi_036.txt.gz
EHI
0 0 0 0 0 0 0 0 0 0 0 0 0 0 0 0 0 0 0 0 2 10 12 5 1 2 4 10 29 59 81 89 92 93 91 85 77 70 59 47 37 28 18 10 4 1 0 0 0
0 0 0 0 0 0 0 0 0 0 0 0 0 0 0 0 0 0 0 0 2 8 12 11 8 7 7 11 28 54 74 85 89 90 87 79 70 60 47 34 25 20 13 7 3 1 0 0 0
0 0 0 0 0 0 0 0 0 0 0 0 0 0 0 0 0 0 0 0 1 4 13 25 26 16 10 12 23 41 61 75 82 82 77 69 57 43 29 18 12 10 8 5 2 0 0 0 0
0 0 0 0 0 0 0 0 0 0 0 0 0 0 0 0 0 0 0 0 1 2 16 39 44 28 16 14 18 27 43 61 71 71 66 55 41 29 17 9 6 6 5 3 1 0 0 0 0
0 0 0 0 0 0 0 0 0 0 0 0 0 0 0 1 3 3 2 1 1 2 17 43 54 41 28 22 22 24 31 42 53 56 52 40 28 19 11 5 3 3 2 1 1 0 0 0 0
0 0 0 0 0 0 0 0 0 0 0 0 0 0 1 5 10 10 5 2 2 3 15 37 48 41 33 29 30 30 27 25 29 34 32 25 17 11 6 3 1 1 0 0 0 0 0 0 0
0 0 0 0 0 0 0 0 0 0 0 0 0 0 6 17 24 19 9 3 3 4 11 23 28 26 25 27 32 34 29 20 14 14 14 10 7 4 2 1 0 0 0 0 0 0 0 0 0
0 0 0 0 0 0 0 0 0 0 0 0 0 0 12 35 43 33 19 9 6 5 7 10 11 12 14 18 26 30 28 19 9 5 3 2 1 0 0 0 0 0 0 0 0 0 0 0 0
0 0 0 0 0 0 0 0 0 0 0 0 0 0 18 49 62 53 38 27 20 13 8 6 5 5 6 10 16 21 20 13 5 2 1 1 0 0 0 2 2 1 0 0 0 0 0 0 0
0 0 0 0 0 0 0 0 0 0 0 0 0 3 22 55 71 65 54 44 35 25 14 7 4 3 2 4 8 11 9 6 2 1 2 1 0 0 1 3 3 1 0 0 0 0 0 0 0
0 0 0 0 0 0 0 0 0 0 0 0 1 7 28 56 69 63 52 43 36 27 17 10 5 4 2 2 4 5 4 4 2 2 4 2 1 0 1 1 1 0 0 0 0 0 0 0 0
0 0 0 0 0 0 0 0 0 0 0 0 1 10 33 55 61 52 39 30 24 20 15 11 9 8 6 3 3 2 2 2 2 4 5 3 1 1 0 0 0 0 0 0 0 0 0 0 0
0 0 0 0 0 0 0 0 0 0 0 0 1 9 27 43 48 43 33 26 23 20 16 14 15 16 14 9 5 2 0 0 1 3 4 3 1 1 0 0 0 1 1 1 0 0 0 0 0
0 0 0 0 0 0 0 0 0 0 0 0 0 4 13 23 32 41 44 41 36 29 25 24 25 26 24 17 11 4 1 1 3 4 4 3 3 3 2 1 1 2 3 3 1 0 0 0 0
0 0 0 0 0 0 0 0 0 0 0 0 0 1 3 8 19 37 53 57 53 45 41 39 38 40 39 31 22 14 8 8 10 10 8 6 4 5 7 7 7 8 8 6 3 1 0 0 0
0 0 0 0 0 0 0 0 0 0 0 0 0 0 1 2 8 22 42 58 65 64 61 57 53 55 57 51 43 33 25 24 24 21 16 9 5 7 14 19 19 16 11 7 4 1 0 0 0
0 0 0 0 0 0 0 0 0 0 0 0 0 0 0 1 2 8 23 47 68 78 79 75 71 70 71 69 64 55 48 44 39 30 22 14 9 11 21 27 26 18 11 6 3 1 0 0 0
0 0 0 0 0 0 0 0 0 0 0 0 0 0 0 0 1 5 15 35 61 80 87 87 86 84 81 79 77 71 61 52 40 29 22 18 14 14 21 25 21 13 7 4 1 0 0 0 0
0 0 0 0 0 0 0 0 0 0 0 0 1 1 0 1 3 7 16 32 55 76 86 89 92 93 91 87 83 73 57 42 28 18 14 12 10 10 12 14 11 7 4 2 0 0 0 0 0
0 0 0 0 0 0 0 0 0 0 0 2 4 5 5 8 11 14 20 31 48 68 81 86 91 94 93 88 78 62 44 27 14 8 5 3 3 3 3 4 3 2 1 0 0 0 0 0 0
0 0 0 0 0 0 0 0 0 0 2 7 13 17 21 26 29 27 27 31 40 56 72 81 88 92 90 81 68 52 34 18 7 2 1 0 0 0 0 0 0 0 0 0 0 0 0 0 0
0 0 0 0 0 0 0 0 0 0 4 15 28 38 43 47 48 44 42 44 47 54 66 77 85 86 81 73 63 50 35 19 7 2 0 0 0 0 0 0 0 0 0 0 0 0 0 0 0
0 0 0 0 0 0 0 0 0 1 8 24 41 52 55 57 58 57 58 62 64 64 67 73 76 73 67 60 54 45 33 18 5 1 0 0 0 0 0 0 0 0 0 0 0 0 0 0 0
0 0 0 0 0 0 0 0 1 4 13 27 40 45 47 50 54 55 57 60 62 63 63 62 58 51 45 41 35 29 20 9 2 0 0 0 0 0 0 0 0 0 0 0 0 0 0 0 0
0 0 0 0 0 0 0 0 3 8 12 20 26 27 28 32 35 37 38 38 40 43 41 37 33 27 23 20 16 12 7 2 0 0 0 0 0 0 0 0 0 0 0 0 0 0 0 0 0
0 0 0 0 0 0 0 1 4 7 8 10 14 14 13 14 15 16 17 18 18 19 17 14 12 9 7 5 4 3 1 0 0 0 0 0 0 0 0 0 0 0 0 0 0 0 0 0 0
0 0 0 0 0 0 0 0 2 5 7 10 12 9 6 5 4 4 5 6 6 5 4 3 3 1 1 0 0 0 0 0 0 0 0 0 0 0 0 0 0 0 0 0 0 0 0 0 0
0 0 0 0 0 0 0 0 2 7 14 19 15 8 4 2 1 1 1 1 1 1 1 1 1 0 0 0 0 0 0 0 0 0 0 0 0 0 0 0 0 0 0 0 0 0 0 0 0
0 0 0 0 0 0 0 0 4 15 28 29 16 5 2 1 0 0 0 0 0 0 0 0 0 0 0 0 0 0 0 0 0 0 0 0 0 0 0 0 0 0 0 0 0 0 0 0 0
0 0 0 0 0 0 0 1 5 20 38 34 14 3 1 0 0 0 0 0 0 0 0 0 0 0 0 0 0 0 0 0 0 0 0 0 0 0 0 0 0 0 0 0 0 0 0 0 0

GEFSSGP_con_prob3kmehi_042.txt.gz
EHI
0 0 0 0 0 0 0 0 0 0 0 0 0 0 0 0 1 1 5 31 64 61 44 50 56 42 21 7 1 0 0 0 1 3 3 2 7 17 27 28 20 11 5 1 0 0 0 0 0
0 0 0 0 0 0 0 0 0 0 0 0 0 0 0 0 1 2 10 37 57 45 30 41 53 43 23 8 1 0 0 1 3 5 6 7 11 20 27 25 18 12 8 4 1 0 0 0 0
0 0 0 0 0 0 0 0 0 0 0 0 0 0 0 0 1 5 15 35 44 28 21 39 50 42 24 9 2 1 2 4 9 14 18 19 21 26 26 19 15 14 10 5 1 0 0 0 0
0 0 0 0 0 0 0 0 0 0 0 0 0 0 0 1 4 8 14 25 31 26 23 32 43 37 21 8 2 2 5 13 23 31 35 35 33 29 22 15 13 12 8 3 0 0 0 0 0
0 0 0 0 0 0 0 0 0 0 0 0 0 1 1 2 5 8 10 16 29 36 27 22 28 27 16 7 3 2 7 20 34 44 47 45 38 28 17 11 10 8 4 1 0 0 0 0 0
0 0 0 0 0 0 0 0 0 0 0 0 0 2 2 2 3 4 6 13 33 49 37 18 15 15 10 7 5 3 7 19 33 44 48 43 34 24 14 10 7 5 3 1 0 0 0 0 0
0 0 0 0 0 0 0 0 0 0 0 0 0 2 4 4 3 3 4 12 36 56 44 16 5 5 5 5 5 3 5 13 26 35 37 31 23 16 12 9 6 4 2 1 0 0 0 0 0
0 0 0 0 0 0 0 0 0 0 0 0 0 5 11 11 5 3 3 11 35 58 47 16 1 1 1 2 3 4 7 12 19 22 21 17 11 7 7 10 11 7 2 1 1 0 0 0 0
0 0 0 0 0 0 0 0 0 0 0 0 1 9 16 12 4 3 4 10 33 57 49 20 3 1 0 2 5 7 8 11 11 10 10 7 3 2 6 18 27 18 7 4 2 0 0 0 0
0 0 0 0 0 0 0 0 0 0 0 0 3 11 14 8 2 3 4 9 30 53 51 28 12 6 4 10 15 10 7 8 5 4 5 3 1 5 16 34 40 27 12 5 2 1 0 0 0
0 0 0 0 0 0 0 0 0 0 0 1 5 15 17 7 1 2 2 9 29 46 45 35 26 16 14 26 29 15 9 12 7 6 9 5 3 14 31 39 34 23 10 3 1 2 1 1 0
0 0 0 0 0 0 0 0 0 0 0 1 6 17 20 9 1 0 3 13 33 41 34 35 42 35 31 44 43 23 21 27 21 20 24 17 12 23 35 35 25 15 6 3 3 4 4 2 1
0 0 0 0 0 0 0 0 0 0 0 1 4 12 15 9 3 2 8 23 44 46 35 39 58 60 55 62 60 42 41 47 45 46 47 38 32 38 45 46 38 24 16 13 10 9 8 4 1
0 0 0 0 0 0 0 0 0 0 0 1 1 5 7 7 6 7 17 37 59 65 57 58 73 80 78 79 77 67 63 67 70 72 71 61 57 61 68 70 63 49 38 33 27 20 16 10 5
0 0 0 0 0 0 0 0 0 0 0 0 0 1 3 5 7 11 25 49 72 84 84 81 85 89 91 90 88 83 80 82 86 90 89 82 76 80 86 85 78 67 58 54 48 38 29 21 15
0 0 0 0 0 0 0 0 0 0 0 0 0 1 2 3 6 12 31 59 82 94 97 95 92 94 96 96 93 90 89 91 94 96 95 89 84 85 89 87 79 72 67 62 55 45 36 28 22
0 0 0 0 0 0 0 0 0 0 0 0 0 0 2 4 6 14 35 65 86 96 99 98 97 98 99 99 97 95 94 95 96 93 86 80 76 77 81 79 73 67 63 56 45 34 27 21 16
0 0 0 0 0 0 0 0 0 0 0 0 0 1 2 6 10 19 41 67 86 95 99 100 100 100 100 100 100 99 97 96 92 82 73 67 63 64 66 65 61 56 52 43 30 20 13 9 6
0 0 0 0 0 0 0 0 0 0 0 0 2 4 7 12 20 31 50 70 85 94 99 100 100 100 100 100 100 100 98 91 81 67 58 53 50 48 48 47 44 40 34 26 17 9 5 2 1
0 0 0 0 0 0 0 0 0 0 0 3 7 13 20 28 39 50 63 75 86 95 99 100 100 100 100 100 100 98 93 80 63 50 41 36 33 28 25 26 25 22 17 10 6 3 1 1 0
0 0 0 0 0 0 0 0 0 0 2 8 18 27 39 51 61 69 74 81 89 95 99 100 100 100 99 99 96 91 80 62 46 36 27 20 16 11 9 9 9 8 6 2 1 1 0 0 0
0 0 0 0 0 0 0 0 0 0 5 17 32 46 60 69 75 78 80 84 90 93 95 95 96 95 94 92 89 79 64 47 33 24 16 9 5 3 2 1 2 2 1 0 0 0 0 0 0
0 0 0 0 0 0 0 0 0 2 12 31 50 65 75 78 78 75 75 78 82 84 85 84 84 83 81 79 75 64 50 35 21 12 7 3 1 1 0 0 0 0 0 0 0 0 0 0 0
0 0 0 0 0 0 0 0 5 17 35 56 71 78 77 70 62 57 57 62 66 69 69 69 68 65 62 60 55 46 34 21 11 4 1 0 0 0 0 0 0 0 0 0 0 0 0 0 0
0 0 0 0 0 0 0 3 19 47 69 79 80 73 59 44 35 33 34 39 43 45 46 46 44 40 38 35 30 24 15 8 4 1 0 0 0 0 0 0 0 0 0 0 0 0 0 0 0
0 0 0 0 0 0 1 13 41 71 85 82 70 51 31 19 15 15 16 18 20 22 21 20 18 16 14 12 9 6 4 1 0 0 0 0 0 0 0 0 0 0 0 0 0 0 0 0 0
0 0 0 0 0 0 3 21 53 76 80 70 50 26 12 8 7 6 5 5 6 7 6 6 5 4 3 1 0 0 0 0 0 0 0 0 0 0 0 0 0 0 0 0 0 0 0 0 0
0 0 0 0 0 0 2 16 43 66 70 54 31 13 5 3 3 2 1 1 1 1 1 2 2 1 1 0 0 0 0 0 0 0 0 0 0 0 0 0 0 0 0 0 0 0 0 0 0
0 0 0 0 0 0 1 10 33 58 62 41 17 5 2 1 1 0 0 0 0 0 0 1 1 0 0 0 0 0 0 0 0 0 0 0 0 0 0 0 0 0 0 0 0 0 0 0 0
0 0 0 0 0 0 1 10 35 60 59 34 11 2 1 0 0 0 0 0 0 0 0 0 0 0 0 0 0 0 0 0 0 0 0 0 0 0 0 0 0 0 0 0 0 0 0 0 0

GEFSSGP_con_prob3kmehi_048.txt.gz
EHI
0 0 0 0 0 0 0 0 0 0 0 0 1 2 2 1 1 2 1 6 24 40 44 57 78 86 81 66 46 31 23 22 25 32 38 43 49 53 49 37 22 8 1 0 0 0 0 0 0
0 0 0 0 0 0 0 0 0 0 0 0 2 4 4 3 3 4 3 10 29 41 44 57 77 81 71 55 36 21 14 13 15 20 25 29 32 33 30 21 11 4 0 0 0 0 0 0 0
0 0 0 0 0 0 0 0 0 0 1 1 2 4 5 5 6 6 6 15 29 37 41 57 74 73 60 44 26 13 7 6 6 8 10 11 13 13 10 6 2 0 0 0 0 0 0 0 0
0 0 0 0 0 0 0 0 0 0 1 2 3 3 3 9 17 16 12 17 28 33 38 52 67 67 55 40 24 12 8 6 4 3 3 3 4 5 3 1 0 0 0 0 0 0 0 0 0
0 0 0 0 0 0 0 0 0 0 1 4 5 4 4 18 35 30 16 17 30 40 39 44 57 61 54 40 23 12 9 7 3 1 1 2 3 4 3 1 0 0 0 0 0 0 0 0 0
0 0 0 0 0 0 0 0 0 0 1 4 6 4 7 25 39 29 13 14 29 45 44 38 43 50 48 38 23 12 8 6 3 2 2 5 7 7 5 2 1 0 0 0 0 0 0 0 0
0 0 0 0 0 0 0 0 0 0 2 4 5 4 8 21 28 20 11 12 22 36 40 33 29 33 34 28 21 12 6 4 4 5 6 9 9 8 5 3 2 1 0 0 0 0 0 0 0
0 0 0 0 0 0 0 0 0 0 1 4 4 2 6 15 25 26 21 15 13 19 25 22 17 18 18 16 14 11 6 4 5 6 8 8 7 6 4 3 3 2 0 0 0 0 0 0 0
0 0 0 0 0 0 0 0 0 0 1 3 3 3 7 18 34 45 43 27 11 7 9 10 10 10 9 7 6 6 4 2 3 4 5 5 3 3 3 2 2 1 0 0 0 0 0 0 0
0 0 0 0 0 0 0 0 0 0 1 5 7 6 12 25 43 60 62 44 19 4 2 4 6 7 6 3 1 1 1 1 1 2 2 1 1 1 1 1 1 0 0 0 0 1 1 1 0
0 0 0 0 0 0 0 0 0 0 1 7 12 13 16 25 40 57 65 54 29 9 1 1 2 4 3 1 0 0 0 0 0 1 1 0 0 0 0 0 0 0 0 0 0 1 1 1 0
0 0 0 0 0 0 0 0 0 0 2 7 15 17 17 19 26 42 55 54 39 18 4 0 1 1 1 1 1 1 0 0 0 1 1 0 0 0 0 0 0 0 0 0 0 0 0 0 0
0 0 0 0 0 0 0 0 0 1 3 7 13 15 13 11 15 26 42 52 50 33 14 4 2 1 1 2 2 1 0 0 0 0 0 0 0 0 0 0 0 0 0 0 0 0 0 0 0
0 0 0 0 0 0 0 0 0 1 3 6 9 10 9 8 9 16 29 47 55 47 29 15 7 3 4 5 4 2 2 2 1 0 0 0 0 0 0 1 1 1 0 0 0 0 0 0 0
0 0 0 0 0 0 0 0 0 1 3 4 4 6 8 9 10 12 19 34 49 51 43 32 22 16 15 14 10 9 10 9 5 2 1 1 1 1 1 2 2 2 1 0 0 0 0 0 0
0 0 0 0 0 0 0 0 0 1 2 2 2 3 8 12 14 14 14 23 36 45 48 48 45 42 41 37 33 31 30 26 19 12 7 6 7 7 6 5 3 2 1 0 0 0 0 0 0
0 0 0 0 0 0 0 0 0 0 1 1 1 3 9 17 21 21 17 19 28 38 49 60 66 69 71 69 67 63 58 50 40 29 21 18 18 18 14 8 4 1 1 1 0 0 0 0 0
0 0 0 0 0 0 0 0 0 0 0 0 2 7 15 21 26 25 23 22 27 36 48 63 75 82 86 88 88 84 74 61 48 38 31 29 26 22 15 9 4 2 1 1 0 0 0 0 0
0 0 0 0 0 0 0 1 1 1 2 4 9 17 24 27 30 30 29 31 33 37 46 60 74 83 89 91 90 82 67 49 36 29 26 26 23 17 12 8 4 2 1 1 0 0 0 0 0
0 0 0 0 0 0 1 2 4 7 13 18 24 31 35 36 37 37 36 39 40 40 48 59 70 80 85 87 81 66 47 31 21 16 14 14 13 10 7 5 3 1 0 0 0 0 0 0 0
0 0 0 0 0 0 1 3 7 18 31 39 43 46 47 46 43 42 44 46 46 46 52 59 67 75 80 79 71 54 37 23 14 9 6 5 4 3 2 1 1 0 0 0 0 0 0 0 0
0 0 0 0 0 0 0 1 7 24 42 52 54 53 51 49 48 48 50 49 47 49 54 59 65 70 72 69 61 48 33 19 10 4 2 1 1 0 0 0 0 0 0 0 0 0 0 0 0
0 0 0 0 0 0 0 0 5 18 35 45 49 48 45 45 47 49 47 44 40 41 47 54 59 62 60 56 49 37 23 12 5 2 0 0 0 0 0 0 0 0 0 0 0 0 0 0 0
0 0 0 0 0 0 0 0 2 8 19 30 35 36 35 36 38 39 37 33 31 30 33 39 45 46 44 40 32 21 11 5 2 1 0 0 0 0 0 0 0 0 0 0 0 0 0 0 0
0 0 0 0 0 0 0 0 1 3 10 18 22 22 22 23 24 25 25 23 21 20 21 23 25 27 27 22 15 8 5 3 1 0 0 0 0 0 0 0 0 0 0 0 0 0 0 0 0
0 0 0 0 0 0 0 0 1 3 7 11 12 11 10 11 12 13 13 13 12 11 11 11 11 11 10 7 4 2 1 1 0 0 0 0 0 0 0 0 0 0 0 0 0 0 0 0 0
0 0 0 0 0 0 0 0 1 3 4 6 6 5 5 5 6 6 5 5 4 3 3 3 2 2 1 0 0 0 0 0 0 0 0 0 0 0 0 0 0 0 0 0 0 0 0 0 0
0 0 0 0 0 0 0 0 1 3 4 4 4 3 3 3 3 2 1 1 0 0 0 0 0 0 0 0 0 0 0 0 0 0 0 0 0 0 0 0 0 0 0 0 0 0 0 0 0
0 0 0 0 0 0 0 0 2 4 4 3 2 2 2 2 1 1 0 0 0 0 0 0 0 0 0 0 0 0 0 0 0 0 0 0 0 0 0 0 0 0 0 0 0 0 0 0 0
0 0 0 0 0 0 0 1 2 4 3 2 1 1 1 1 0 0 0 0 0 0 0 0 0 0 0 0 0 0 0 0 0 0 0 0 0 0 0 0 0 0 0 0 0 0 0 0 0

GEFSSGP_con_prob3kmehi_054.txt.gz
EHI
0 0 0 0 0 0 0 0 0 0 0 0 0 0 0 0 0 0 0 11 40 59 47 31 36 55 76 91 97 99 100 100 99 97 95 93 90 86 81 76 68 57 43 29 18 9 3 1 0
0 0 0 0 0 0 0 0 0 0 0 0 0 0 0 0 0 0 3 19 49 63 50 35 39 57 78 92 97 99 99 99 97 95 94 92 89 84 79 71 61 47 33 22 14 7 2 0 0
0 0 0 0 0 0 0 0 0 0 0 0 0 0 0 0 0 1 10 35 59 62 49 41 44 58 75 89 94 95 95 94 93 91 90 87 82 77 69 57 43 29 17 11 7 3 1 0 0
0 0 0 0 0 0 0 0 0 0 0 0 0 0 0 0 0 5 22 47 59 51 40 41 46 52 66 79 84 85 86 86 85 82 78 73 67 62 52 36 21 11 6 4 2 1 0 0 0
0 0 0 0 0 0 0 0 0 0 0 0 0 0 0 1 2 10 28 45 50 41 34 38 42 44 54 65 72 74 74 73 69 63 58 51 44 39 30 17 7 3 2 1 0 0 0 0 0
0 0 0 0 0 0 0 0 0 0 0 0 0 0 1 2 4 10 21 30 34 35 35 35 33 34 41 52 59 60 58 52 46 40 33 26 22 18 12 6 3 1 1 0 0 0 0 0 0
0 0 0 0 0 0 0 0 0 0 0 0 0 1 2 3 6 12 18 20 23 30 34 29 22 21 28 36 43 43 37 31 26 20 13 8 7 6 4 2 1 0 0 0 0 0 0 0 0
0 0 0 0 0 0 0 0 0 0 0 0 0 1 5 12 21 30 35 30 24 24 25 21 13 12 16 21 26 27 24 19 14 8 4 2 1 1 1 0 0 0 0 0 0 0 0 0 0
0 0 0 0 0 0 0 0 0 0 0 0 1 2 15 34 47 53 53 44 31 19 14 13 10 8 10 13 16 16 14 11 6 3 2 1 0 0 0 0 0 0 0 0 0 0 0 0 0
0 0 0 0 0 0 0 0 0 0 0 0 2 10 34 59 63 57 50 42 29 15 7 5 6 8 9 11 12 10 7 4 2 1 1 1 0 0 0 0 0 0 0 0 0 0 0 0 0
0 0 0 0 0 0 0 0 0 0 0 0 4 23 57 72 60 43 32 25 19 12 5 2 4 9 10 10 12 9 3 0 0 0 0 0 0 0 0 0 0 0 0 0 0 0 0 0 0
0 0 0 0 0 0 0 0 0 0 0 0 8 36 69 73 50 29 18 12 10 9 6 2 3 8 11 11 11 9 4 1 0 0 1 1 1 1 0 0 0 0 0 0 0 0 0 0 0
0 0 0 0 0 0 0 0 0 0 0 2 13 40 67 64 40 22 12 8 6 8 7 3 2 6 9 10 10 8 5 3 2 2 3 3 2 1 0 0 0 0 0 0 0 0 0 0 0
0 0 0 0 0 0 0 0 0 0 0 3 16 37 54 52 36 22 15 10 8 7 5 3 3 5 8 9 8 7 6 5 4 4 5 5 3 1 0 0 0 0 0 0 0 0 0 0 0
0 0 0 0 0 0 0 0 0 0 0 3 13 27 37 36 29 23 19 14 9 5 3 3 3 5 7 8 6 5 5 4 4 3 4 4 3 1 0 0 0 0 0 0 0 0 0 0 0
0 0 0 0 0 0 0 0 0 0 0 1 7 16 23 24 21 18 17 15 10 6 3 2 3 4 5 5 4 3 2 1 2 1 1 2 2 1 0 0 0 0 0 0 0 0 0 0 0
0 0 0 0 0 0 0 0 0 0 0 0 3 7 15 19 18 17 17 16 15 13 9 6 5 5 4 4 4 4 2 1 1 0 0 1 1 0 0 0 0 0 0 0 0 0 0 0 0
0 0 0 0 0 0 0 0 1 1 1 1 3 5 10 17 19 18 19 20 21 21 19 15 12 11 10 9 11 11 7 4 1 0 0 0 0 0 0 0 0 0 0 0 0 0 0 0 0
0 0 0 0 0 0 0 1 2 3 4 5 7 7 11 15 17 16 16 18 20 22 24 23 22 25 26 26 27 25 17 8 3 1 1 0 0 0 0 0 0 0 0 0 0 0 0 0 0
0 0 0 0 0 0 0 2 5 7 9 10 11 12 14 15 15 13 12 13 16 21 25 26 29 38 45 46 41 32 20 10 5 3 2 1 0 0 0 0 0 0 0 0 0 0 0 0 0
0 0 0 0 0 0 0 2 5 11 14 13 13 15 15 15 15 14 13 14 17 20 24 27 32 42 52 54 45 31 19 10 6 4 4 3 1 0 0 0 0 0 0 0 0 0 0 0 0
0 0 0 0 0 0 0 0 3 8 11 12 14 15 15 13 13 14 15 17 17 18 21 25 31 38 43 44 39 29 20 11 5 4 3 2 0 0 0 0 0 0 0 0 0 0 0 0 0
0 0 0 0 0 0 0 0 1 3 7 9 10 11 10 9 8 9 11 13 13 13 15 19 23 27 28 28 26 23 16 8 3 2 1 0 0 0 0 0 0 0 0 0 0 0 0 0 0
0 0 0 0 0 0 0 0 1 3 5 7 6 5 4 3 3 3 4 6 8 8 9 11 13 15 15 14 13 11 7 3 0 0 0 0 0 0 0 0 0 0 0 0 0 0 0 0 0
0 0 0 0 0 0 0 1 3 4 4 5 4 2 1 0 1 1 2 3 4 5 6 6 7 7 6 5 5 3 1 0 0 0 0 0 0 0 0 0 0 0 0 0 0 0 0 0 0
0 0 0 0 0 0 0 1 3 2 2 3 3 2 1 0 1 2 2 2 3 3 3 3 3 2 1 1 1 0 0 0 0 0 0 0 0 0 0 0 0 0 0 0 0 0 0 0 0
0 0 0 0 0 0 0 1 1 1 1 1 2 2 1 0 1 1 1 1 1 1 1 1 1 0 0 0 0 0 0 0 0 0 0 0 0 0 0 0 0 0 0 0 0 0 0 0 0
0 0 0 0 0 0 0 0 1 1 1 1 1 1 0 0 0 0 0 0 0 0 0 0 0 0 0 0 0 0 0 0 0 0 0 0 0 0 0 0 0 0 0 0 0 0 0 0 0
0 0 0 0 0 0 0 0 0 1 1 0 0 0 0 0 0 0 0 0 0 0 0 0 0 0 0 0 0 0 0 0 0 0 0 0 0 0 0 0 0 0 0 0 0 0 0 0 0
0 0 0 0 0 0 0 0 0 0 0 0 0 0 0 0 0 0 0 0 0 0 0 0 0 0 0 0 0 0 0 0 0 0 0 0 0 0 0 0 0 0 0 0 0 0 0 0 0

GEFSSGP_con_prob3kmehi_060.txt.gz
EHI
0 0 0 0 0 0 0 0 0 0 0 0 0 0 0 0 0 0 10 34 59 70 61 42 34 33 43 67 83 88 89 87 83 81 80 75 65 56 47 34 21 15 13 9 5 3 2 1 0
0 0 0 0 0 0 0 0 0 0 0 0 0 0 0 0 0 2 18 45 63 66 56 42 36 40 53 73 88 92 93 92 90 87 85 81 73 65 56 42 27 19 15 11 7 3 1 0 0
0 0 0 0 0 0 0 0 0 0 0 0 0 0 0 0 0 7 30 56 63 56 48 44 43 47 61 81 93 97 97 96 95 93 91 88 81 73 63 48 32 23 18 13 8 3 0 0 0
0 0 0 0 0 0 0 0 0 0 0 0 0 0 0 0 2 14 39 57 57 45 37 39 42 47 61 81 95 99 99 98 97 96 94 90 82 73 63 48 34 24 18 14 9 3 0 0 0
0 0 0 0 0 0 0 0 0 0 0 0 0 0 0 2 8 25 44 53 46 33 25 28 32 36 51 75 92 98 99 99 98 96 93 87 79 70 58 44 33 24 17 13 8 2 0 0 0
0 0 0 0 0 0 0 0 0 0 0 0 0 0 2 9 23 40 50 47 33 21 17 19 19 20 34 62 84 93 96 98 97 95 90 83 73 64 51 39 29 21 14 10 5 1 0 0 0
0 0 0 0 0 0 0 0 0 0 0 0 0 0 5 22 44 57 57 42 23 12 9 9 7 5 15 39 62 77 88 93 93 88 80 70 59 50 40 29 20 14 7 4 2 0 0 0 0
0 0 0 0 0 0 0 0 0 0 0 0 0 0 10 36 59 70 65 48 26 11 4 2 1 0 4 14 29 47 63 72 71 65 57 46 35 28 21 15 11 6 2 1 0 0 0 0 0
0 0 0 0 0 0 0 0 0 0 0 0 0 0 13 41 67 78 77 63 42 21 8 2 0 0 0 1 7 16 27 34 34 31 28 20 11 7 6 8 8 3 0 0 0 0 0 0 0
0 0 0 0 0 0 0 0 0 0 0 0 0 2 14 38 63 78 81 71 53 34 15 3 0 0 0 0 0 2 5 7 7 8 8 5 2 0 3 7 6 2 0 0 0 0 0 0 0
0 0 0 0 0 0 0 0 0 0 0 0 0 4 14 31 50 64 68 62 51 36 18 4 0 0 0 0 0 1 1 2 2 3 4 2 1 0 2 4 2 0 0 0 0 0 0 0 0
0 0 0 0 0 0 0 0 0 0 0 0 0 4 13 24 35 43 47 45 41 30 16 5 1 1 0 1 1 2 2 3 3 4 4 2 1 0 0 0 0 0 0 0 0 0 0 0 0
0 0 0 0 0 0 0 0 0 0 0 0 0 3 9 15 21 26 30 33 33 26 14 6 3 3 2 2 2 2 2 3 4 4 4 2 0 0 0 0 0 0 1 1 1 0 0 0 0
0 0 0 0 0 0 0 0 0 0 0 0 0 1 3 6 11 19 27 30 30 25 15 8 6 5 4 4 4 3 3 5 5 4 5 4 2 1 1 1 1 1 1 2 2 0 0 0 0
0 0 0 0 0 0 0 0 0 1 1 1 0 0 1 1 5 15 25 28 28 26 18 10 7 6 6 6 6 6 7 8 7 9 12 11 7 8 8 6 5 6 6 6 6 5 3 3 3
0 0 0 0 0 0 0 0 1 1 2 2 3 4 5 4 6 13 20 23 24 24 21 14 9 6 7 8 10 11 12 12 13 16 19 18 16 19 21 18 16 17 16 14 13 12 10 9 11
0 0 0 0 0 0 0 1 2 3 4 5 9 14 16 15 16 20 21 19 19 22 21 17 12 10 12 15 18 21 20 20 22 25 28 28 25 27 31 32 30 28 27 23 19 18 16 15 15
0 0 0 0 0 0 1 2 4 5 6 10 16 24 28 27 26 28 26 19 18 21 22 19 18 21 26 28 31 32 31 30 31 34 39 39 34 33 37 38 35 33 33 29 24 22 18 13 12
0 0 0 0 0 0 1 3 5 6 9 16 23 30 34 36 36 35 30 25 25 28 29 27 27 34 42 46 49 49 46 42 38 38 43 42 38 36 38 37 36 34 34 30 23 17 12 8 6
0 0 0 0 0 0 0 2 4 7 11 20 29 35 39 41 43 40 34 33 36 38 38 38 38 42 48 57 64 64 58 48 39 38 40 37 33 33 33 33 33 32 30 24 15 9 6 3 2
0 0 0 0 0 0 0 1 3 6 12 23 34 40 43 43 43 40 38 40 42 43 43 45 46 45 47 57 64 63 57 47 38 35 33 29 25 23 23 24 23 21 19 14 8 5 3 1 1
0 0 0 0 0 0 0 0 1 4 11 22 33 41 41 39 36 35 38 41 41 42 44 47 48 46 47 54 59 58 52 44 35 29 24 19 15 12 12 12 10 8 7 4 3 2 1 0 0
0 0 0 0 0 0 0 0 0 4 10 18 26 32 32 27 25 27 31 34 36 40 45 47 45 45 48 53 54 54 49 39 29 20 15 11 7 4 4 5 3 2 2 1 0 0 0 0 0
0 0 0 0 0 0 0 1 4 7 10 14 19 21 18 15 14 15 17 20 25 31 34 34 34 36 40 42 42 40 36 27 17 11 7 5 3 1 1 1 1 1 1 0 0 0 0 0 0
0 0 0 0 0 0 0 2 7 9 9 10 11 9 7 6 6 6 6 8 12 15 16 16 16 19 22 24 23 20 17 11 6 3 2 2 1 0 0 0 0 0 0 0 0 0 0 0 0
0 0 0 0 0 0 0 2 5 5 5 5 4 2 1 1 1 1 2 2 3 4 4 4 4 5 7 8 7 6 4 2 1 1 1 1 1 0 0 0 0 0 0 0 0 0 0 0 0
0 0 0 0 0 0 0 1 2 1 1 1 0 0 0 0 0 0 1 1 1 1 1 1 1 0 1 1 1 1 0 0 0 1 1 1 1 0 0 0 0 0 0 0 0 0 0 0 0
0 0 0 0 0 0 0 1 1 1 0 0 0 0 0 0 0 0 0 0 0 0 0 0 0 0 0 0 1 1 0 0 0 0 0 0 0 0 0 0 0 0 0 0 0 0 0 0 0
0 0 0 0 0 0 0 1 2 3 1 0 0 0 0 0 0 0 0 0 0 0 0 0 0 0 0 0 0 0 0 0 0 0 0 0 0 0 0 0 0 0 0 0 0 0 0 0 0
0 0 0 0 0 0 1 3 4 5 3 1 0 0 0 0 0 0 0 0 0 0 0 0 0 0 0 0 0 0 0 0 0 0 0 0 0 0 0 0 0 0 0 0 0 0 0 0 0

GEFSSGP_con_prob3kmehi_066.txt.gz
EHI
0 0 0 0 0 0 0 0 0 0 0 0 0 0 0 1 0 1 13 46 81 95 94 94 88 73 49 23 6 1 4 5 4 2 2 1 1 1 1 0 0 0 0 0 0 0 0 0 0
0 0 0 0 0 0 0 0 0 0 0 0 0 0 0 1 1 5 22 56 84 93 93 94 90 77 56 30 10 3 5 6 5 4 3 2 2 2 2 1 0 0 0 0 0 0 0 0 0
0 0 0 0 0 0 0 0 0 0 0 0 0 0 0 0 2 13 35 63 83 90 92 95 93 83 64 39 17 8 8 9 10 9 7 6 5 4 3 2 1 1 0 0 0 0 0 0 0
0 0 0 0 0 0 0 0 0 0 0 0 1 3 4 4 9 22 39 61 79 87 91 95 95 88 72 49 29 19 17 18 20 18 14 12 10 7 4 3 2 1 0 0 0 0 0 0 0
0 0 0 0 0 0 0 0 0 0 0 0 2 8 13 14 20 26 34 54 76 85 89 93 95 91 79 61 44 33 29 31 32 29 24 22 20 14 8 5 3 1 0 0 0 0 0 0 0
0 0 0 0 0 0 0 0 0 0 0 0 1 8 17 21 23 23 29 49 73 84 85 86 87 86 80 68 54 44 41 44 42 37 34 32 28 21 13 8 5 2 0 0 0 0 0 0 0
0 0 0 0 0 0 0 0 0 0 0 0 0 7 20 25 20 19 28 48 71 80 76 70 68 68 65 57 50 46 48 48 43 38 38 35 27 19 12 8 7 4 1 0 0 0 0 0 0
0 0 0 0 0 0 0 0 0 0 0 0 1 9 24 29 22 22 33 51 70 75 63 50 45 42 37 34 36 40 41 39 34 31 29 25 16 8 5 8 12 10 4 1 0 0 0 0 0
0 0 0 0 0 0 0 0 0 0 0 0 3 12 25 30 26 28 41 59 75 74 54 35 27 21 15 15 22 25 25 22 20 16 14 11 5 1 5 17 27 21 8 2 1 1 0 0 0
0 0 0 0 0 0 0 0 0 0 0 1 6 15 24 26 25 31 48 68 83 77 50 28 18 10 7 11 14 12 9 9 7 5 4 2 1 3 15 36 43 31 14 4 2 2 1 0 1
0 0 0 0 0 0 0 0 0 0 0 1 6 17 24 23 20 27 46 69 83 75 47 27 19 11 12 18 14 5 3 3 3 4 4 2 0 7 25 42 43 29 13 5 3 3 2 1 2
0 0 0 0 0 0 0 0 0 0 0 1 5 14 22 19 15 20 37 61 76 69 46 34 32 26 29 33 20 6 5 6 8 13 12 5 1 6 21 33 31 21 12 7 5 4 3 2 2
0 0 0 0 0 0 0 0 0 0 0 1 4 10 15 13 13 20 34 54 71 69 54 50 54 51 55 54 34 16 14 14 20 28 22 9 4 8 18 29 31 22 17 17 13 8 5 4 2
0 0 0 0 0 0 0 0 0 0 0 0 2 7 10 10 16 29 44 59 74 78 71 71 75 75 76 69 49 32 26 25 31 39 32 16 14 24 37 45 43 31 25 30 28 19 13 8 4
0 0 0 0 0 0 0 0 0 0 0 0 1 5 9 13 22 37 54 69 82 86 86 86 86 85 85 74 55 41 36 35 43 51 47 34 32 49 63 63 54 42 38 43 41 31 23 16 10
0 0 0 0 0 0 0 1 1 1 1 2 4 7 12 19 28 41 58 75 87 91 92 90 87 87 86 75 55 43 43 50 60 67 68 57 53 64 73 68 60 54 53 51 44 38 34 27 22
0 0 0 0 0 0 1 2 3 4 5 7 9 13 19 28 38 50 66 81 90 92 92 90 88 88 85 76 61 51 57 68 76 80 79 73 65 67 72 70 64 62 61 54 43 41 42 39 35
0 0 0 1 1 1 2 4 7 9 11 12 17 23 29 38 50 64 77 87 92 92 91 89 89 88 85 79 72 67 72 81 84 82 79 75 70 68 71 70 65 62 61 54 46 42 42 41 40
0 0 1 2 2 3 4 5 9 14 18 22 28 36 42 49 61 73 81 87 90 91 89 88 88 86 83 81 80 80 82 85 82 76 73 71 67 64 64 63 58 55 53 49 43 38 34 33 32
0 0 1 2 3 3 4 5 9 18 27 36 45 51 54 59 64 70 75 80 83 84 84 85 85 84 81 82 83 82 81 78 72 64 60 57 52 48 47 46 44 41 40 35 29 26 23 21 19
0 0 1 1 1 1 2 4 11 22 34 45 54 57 58 58 56 57 62 68 71 73 73 75 78 81 81 82 80 76 71 65 56 47 41 37 32 28 27 28 27 26 25 22 18 15 13 10 8
0 0 0 0 0 0 0 4 13 25 35 43 49 53 52 48 44 41 44 51 58 61 62 63 66 70 74 75 71 65 61 52 42 32 26 22 18 15 14 14 12 12 13 12 10 7 6 4 2
0 0 0 0 0 0 0 4 14 26 34 37 40 41 39 36 32 26 26 30 36 41 45 46 46 48 52 54 54 51 47 38 27 20 16 12 8 7 6 5 4 3 3 4 4 2 1 1 1
0 0 0 0 0 0 0 6 20 34 38 35 30 27 24 22 18 12 10 11 14 19 22 23 22 22 24 27 30 30 27 21 13 9 7 5 2 2 1 1 1 0 0 0 0 0 0 0 0
0 0 0 0 0 0 1 13 34 45 40 28 18 13 10 8 5 3 2 2 2 5 6 6 6 6 7 9 10 11 11 8 4 2 2 1 0 0 0 0 0 0 0 0 0 0 0 0 0
0 0 0 0 0 0 5 24 45 47 32 17 7 4 2 1 0 0 0 0 0 1 1 1 1 1 1 1 2 2 2 1 0 0 0 0 0 0 0 0 0 0 0 0 0 0 0 0 0
0 0 0 0 0 0 8 27 39 35 21 8 2 0 0 0 0 0 0 0 0 0 0 0 0 0 0 0 0 0 0 0 0 0 0 0 0 0 0 0 0 0 0 0 0 0 0 0 0
0 0 0 0 0 0 5 14 21 20 12 4 0 0 0 0 0 0 0 0 0 0 0 0 0 0 0 0 0 0 0 0 0 0 0 0 0 0 0 0 0 0 0 0 0 0 0 0 0
0 0 0 0 0 0 1 3 7 9 5 1 0 0 0 0 0 0 0 0 0 0 0 0 0 0 0 0 0 0 0 0 0 0 0 0 0 0 0 0 0 0 0 0 0 0 0 0 0
0 0 0 0 0 0 1 2 3 4 2 0 0 0 0 0 0 0 0 0 0 0 0 0 0 0 0 0 0 0 0 0 0 0 0 0 0 0 0 0 0 0 0 0 0 0 0 0 0

GEFSSGP_con_prob3kmehi_072.txt.gz
EHI
0 0 0 0 0 0 0 0 0 0 0 0 0 0 0 0 1 3 6 20 45 59 50 41 46 51 45 37 30 24 18 17 18 22 23 19 15 11 5 2 2 1 0 0 0 0 0 1 2
0 0 0 0 0 0 0 0 0 0 0 0 0 0 0 1 4 7 14 33 57 67 59 50 54 57 52 42 31 21 14 11 12 14 14 12 8 6 3 1 1 0 0 0 0 0 0 1 2
0 0 0 0 0 0 0 0 0 0 0 0 0 1 1 2 8 17 34 56 70 71 66 63 65 66 60 48 32 20 11 5 4 6 6 4 3 1 1 0 0 0 0 0 0 0 0 0 1
0 0 0 0 0 0 0 0 0 0 0 0 2 5 6 8 18 37 59 73 76 72 71 72 73 71 65 51 35 23 13 4 2 3 3 2 1 0 0 0 0 0 0 0 0 0 0 0 0
0 0 0 0 0 0 0 0 0 0 0 0 4 9 12 19 36 57 70 75 77 79 78 77 76 73 67 54 38 25 16 7 3 3 2 1 0 0 0 0 0 0 0 0 0 0 0 0 0
0 0 0 0 0 0 0 0 0 0 0 0 4 9 14 26 47 64 69 71 78 85 83 77 73 70 65 57 42 29 19 12 6 3 1 0 0 0 0 0 0 0 0 0 0 0 0 0 0
0 0 0 0 0 0 0 0 0 0 0 1 4 9 14 26 46 62 68 72 80 86 85 77 69 61 54 49 43 33 23 15 9 4 1 0 0 0 0 0 0 0 0 0 0 0 0 0 0
0 0 0 0 0 0 0 0 0 0 0 1 4 8 15 27 44 60 69 74 78 81 82 79 71 59 47 39 35 31 23 15 8 4 1 0 0 0 0 0 0 0 0 0 0 0 0 0 0
0 0 0 0 0 0 0 0 0 0 0 2 6 10 18 30 44 60 70 75 75 74 75 77 76 67 53 40 32 27 20 13 8 4 1 0 0 0 0 1 1 1 0 0 0 0 0 0 0
0 0 0 0 0 0 0 0 0 0 1 4 8 14 22 31 43 58 70 76 75 71 66 66 71 70 60 49 40 31 22 13 8 4 1 0 0 0 0 1 2 1 0 0 0 0 0 0 0
0 0 0 0 0 0 0 0 0 0 0 3 8 14 21 29 41 56 69 75 74 69 60 55 59 61 56 51 44 34 23 14 7 3 1 0 0 0 0 0 1 1 0 0 0 0 0 0 0
0 0 0 0 0 0 0 0 0 0 0 2 6 13 19 26 38 52 66 72 70 63 55 49 49 48 45 42 36 25 16 10 5 1 0 0 0 0 0 0 0 0 0 0 0 0 0 0 0
0 0 0 0 0 0 0 0 0 0 0 1 6 12 19 25 35 49 62 67 64 57 49 42 39 36 32 28 21 12 6 4 2 0 0 0 0 0 0 0 0 0 0 0 0 0 0 0 0
0 0 0 0 0 0 0 0 0 0 0 2 6 12 18 24 33 46 58 62 59 52 42 32 26 24 22 16 10 4 1 1 1 1 0 0 0 0 0 0 0 0 0 0 0 0 0 0 0
0 0 0 0 0 0 0 0 0 0 1 4 9 14 18 24 34 45 54 60 57 48 37 25 18 19 17 11 5 1 0 1 2 2 1 0 0 0 0 0 0 0 0 0 0 0 0 0 0
0 0 0 0 0 0 0 0 1 1 4 8 15 20 23 27 35 44 52 56 56 50 40 30 27 27 24 15 8 6 4 2 2 2 2 1 0 0 1 1 0 0 0 0 0 0 0 0 0
0 0 0 0 0 0 0 2 4 6 7 13 19 25 29 32 35 41 48 53 56 55 48 44 45 46 41 32 24 19 14 8 3 2 1 1 1 1 2 1 0 0 0 0 0 0 0 0 0
0 0 0 0 0 0 2 5 10 11 12 16 21 26 32 36 38 40 44 50 54 54 52 54 58 60 58 51 42 34 24 14 6 2 1 2 2 2 2 2 1 1 1 0 0 0 0 0 0
0 0 0 0 0 3 8 14 18 19 19 22 25 28 32 39 43 43 43 46 48 48 49 52 56 59 61 59 52 40 27 17 9 4 2 1 2 2 2 1 2 2 1 0 0 0 0 0 0
0 0 0 0 1 4 12 21 25 27 29 32 33 34 36 41 45 44 42 42 41 41 41 43 45 50 54 55 50 39 26 16 10 5 2 1 1 1 1 1 1 1 1 0 0 0 0 0 0
0 0 0 0 1 3 8 16 24 29 34 39 40 37 36 38 39 37 35 33 31 30 30 31 33 36 40 42 40 34 24 15 8 3 1 0 0 0 0 0 0 0 0 0 0 0 0 0 0
0 0 0 0 0 1 2 6 13 20 27 32 32 28 26 26 25 23 21 19 17 16 17 19 20 22 24 26 26 23 17 11 5 1 0 0 0 0 0 0 0 0 0 0 0 0 0 0 0
0 0 0 0 0 0 0 1 4 10 16 18 17 14 13 13 11 9 8 7 6 5 6 8 9 9 11 13 13 11 8 5 2 0 0 0 0 0 0 0 0 0 0 0 0 0 0 0 0
0 0 0 0 0 0 0 0 2 6 9 10 8 6 5 5 3 1 1 1 1 0 1 2 2 2 4 4 4 3 2 1 0 0 0 0 0 0 0 0 0 0 0 0 0 0 0 0 0
0 0 0 0 0 0 0 0 1 4 7 7 4 2 2 1 0 0 0 0 0 0 0 0 0 0 1 1 1 0 0 0 0 0 0 0 0 0 0 0 0 0 0 0 0 0 0 0 0
0 0 0 0 0 0 0 0 0 3 6 4 1 0 0 0 0 0 0 0 0 0 0 0 0 0 0 0 0 0 0 0 0 0 0 0 0 0 0 0 0 0 0 0 0 0 0 0 0
0 0 0 0 0 0 0 0 0 2 3 2 0 0 0 0 0 0 0 0 0 0 0 0 0 0 0 0 0 0 0 0 0 0 0 0 0 0 0 0 0 0 0 0 0 0 0 0 0
0 0 0 0 0 0 0 0 0 1 1 0 0 0 0 0 0 0 0 0 0 0 0 0 0 0 0 0 0 0 0 0 0 0 0 0 0 0 0 0 0 0 0 0 0 0 0 0 0
0 0 0 0 0 0 0 0 1 2 1 0 0 0 0 0 0 0 0 0 0 0 0 0 0 0 0 0 0 0 0 0 0 0 0 0 0 0 0 0 0 0 0 0 0 0 0 0 0
0 0 0 0 0 0 0 0 1 1 1 0 0 0 0 0 0 0 0 0 0 0 0 0 0 0 0 0 0 0 0 0 0 0 0 0 0 0 0 0 0 0 0 0 0 0 0 0 0

GEFSSGP_con_prob3kmehi_078.txt.gz
EHI
0 0 0 0 0 0 0 0 0 0 0 0 0 0 0 0 0 0 1 10 29 45 45 39 35 38 51 72 90 98 100 99 98 96 92 85 74 62 49 33 21 15 12 9 6 5 4 4 3
0 0 0 0 0 0 0 0 0 0 0 0 0 0 0 0 0 0 2 12 32 49 50 43 40 46 57 74 89 97 99 98 97 95 90 82 71 61 48 32 21 15 11 8 5 4 4 3 2
0 0 0 0 0 0 0 0 0 0 0 0 0 0 0 1 0 0 5 19 40 56 57 50 48 53 63 76 87 94 98 98 95 92 87 78 66 54 40 26 18 14 10 5 3 3 3 3 3
0 0 0 0 0 0 0 0 0 0 0 0 0 0 1 2 2 4 13 31 50 62 63 58 57 60 67 77 84 90 96 98 95 88 80 70 58 44 30 19 14 11 7 3 1 1 2 2 2
0 0 0 0 0 0 0 0 0 0 0 0 0 0 2 4 6 11 25 42 57 67 69 68 68 68 71 77 82 87 92 96 93 83 72 59 46 35 23 14 9 7 4 1 0 0 1 1 1
0 0 0 0 0 0 0 0 0 0 0 0 0 0 3 7 12 21 35 48 59 69 74 76 73 70 72 77 81 85 88 89 85 75 62 47 35 25 17 9 5 3 1 0 0 0 0 0 0
0 0 0 0 0 0 0 0 0 0 0 0 0 1 5 12 22 33 43 52 61 68 74 76 71 65 69 75 78 81 82 79 72 62 50 38 27 18 11 5 1 1 0 0 0 0 0 0 0
0 0 0 0 0 0 0 0 0 0 0 0 0 1 7 17 31 42 49 55 60 64 65 66 65 65 68 72 73 72 71 66 59 50 39 31 22 14 8 3 0 0 0 0 0 0 0 0 0
0 0 0 0 0 0 0 0 0 0 0 1 2 5 12 25 38 45 50 53 57 58 56 55 59 65 70 72 70 67 62 56 48 39 32 25 18 11 6 2 0 0 0 0 0 0 0 0 0
0 0 0 0 0 0 0 0 0 0 0 2 7 11 19 33 43 46 47 50 52 54 53 50 51 58 66 71 71 69 62 52 39 28 24 19 11 7 5 2 1 1 0 0 0 0 0 0 0
0 0 0 0 0 0 0 0 0 0 0 2 8 16 25 37 44 45 45 46 48 54 56 50 44 47 56 66 70 71 64 49 31 20 16 11 6 3 3 3 3 2 1 0 0 0 0 0 0
0 0 0 0 0 0 0 0 0 0 0 1 7 19 29 37 41 42 44 46 49 55 59 52 43 42 50 61 67 66 57 40 24 15 11 8 3 1 2 3 3 2 1 0 0 0 0 0 0
0 0 0 0 0 0 0 0 0 0 0 2 8 20 30 34 37 41 46 50 51 55 58 54 45 43 50 58 61 57 46 32 20 12 8 5 2 0 1 1 1 1 1 0 0 0 0 0 0
0 0 0 0 0 0 0 0 0 0 1 3 8 16 25 30 36 43 49 51 50 50 55 54 45 41 46 51 52 47 37 26 16 10 6 4 1 0 0 0 0 0 0 0 0 0 0 0 0
0 0 0 0 0 0 0 0 0 1 1 3 6 11 18 25 34 43 48 49 46 46 51 53 47 40 38 41 41 35 26 17 11 7 5 3 1 0 0 0 0 0 0 0 0 0 0 0 0
0 0 0 0 0 0 0 0 0 0 1 3 6 8 12 20 30 39 44 45 44 44 49 53 50 41 35 31 27 21 14 8 5 4 3 1 0 0 0 0 0 0 0 0 0 0 0 0 0
0 0 0 0 0 0 0 0 0 0 1 4 7 8 10 16 25 34 40 44 44 44 45 47 44 39 33 24 16 11 6 3 3 2 1 0 0 0 0 0 0 0 0 0 0 0 0 0 0
0 0 0 0 0 0 0 0 0 0 1 3 6 8 9 13 20 28 35 39 40 38 37 36 33 31 28 21 12 6 2 1 1 1 0 0 0 0 0 0 0 0 0 0 0 0 0 0 0
0 0 0 0 0 0 0 0 0 0 1 3 6 9 9 11 15 21 27 32 33 31 29 28 26 23 22 20 12 4 0 0 0 0 0 0 0 1 0 0 0 0 0 0 0 0 0 0 0
0 0 0 0 0 0 0 0 0 0 1 4 7 9 9 10 14 17 23 28 29 28 26 26 24 20 17 14 8 2 0 0 0 0 0 0 0 0 0 0 0 0 0 0 0 0 0 0 0
0 0 0 0 0 0 0 0 0 0 1 3 5 7 8 10 13 15 19 23 24 23 23 23 21 17 12 7 3 1 0 0 0 0 0 0 0 0 0 0 0 0 0 0 0 0 0 0 0
0 0 0 0 0 0 0 0 0 0 1 2 1 2 4 6 8 10 11 13 15 15 15 15 15 12 8 3 1 0 0 0 0 0 0 0 0 0 0 0 0 0 0 0 0 0 0 0 0
0 0 0 0 0 0 0 0 0 0 1 1 1 0 1 2 3 4 5 5 6 7 7 8 9 8 5 2 1 0 0 0 0 0 0 0 0 0 0 0 0 0 0 0 0 0 0 0 0
0 0 0 0 0 0 0 0 0 0 0 0 0 0 0 0 0 1 2 2 3 3 3 4 5 5 3 1 0 0 0 0 0 0 0 0 0 0 0 0 0 0 0 0 0 0 0 0 0
0 0 0 0 0 0 0 0 0 0 0 0 0 0 0 0 0 0 1 1 1 1 0 1 3 3 1 0 0 0 0 0 0 0 0 0 0 0 0 0 0 0 0 0 0 0 0 0 0
0 0 0 0 0 0 0 0 0 0 0 0 0 0 0 0 0 0 0 0 0 0 0 0 1 1 0 0 0 0 0 0 0 0 0 0 0 0 0 0 0 0 0 0 0 0 0 0 0
0 0 0 0 0 0 0 0 0 0 0 0 0 0 0 0 0 0 0 0 0 0 0 0 0 0 0 0 0 0 0 0 0 0 0 0 0 0 0 0 0 0 0 0 0 0 0 0 0
0 0 0 0 0 0 0 0 0 0 0 0 0 0 0 0 0 0 0 0 0 0 0 0 0 0 0 0 0 0 0 0 0 0 0 0 0 0 0 0 0 0 0 0 0 0 0 0 0
0 0 0 0 0 0 0 0 0 0 0 0 0 0 0 0 0 0 0 0 0 0 0 0 0 0 0 0 0 0 0 0 0 0 0 0 0 0 0 0 0 0 0 0 0 0 0 0 0
0 0 0 0 0 0 0 0 0 0 0 0 0 0 0 0 0 0 0 0 0 0 0 0 0 0 0 0 0 0 0 0 0 0 0 0 0 0 0 0 0 0 0 0 0 0 0 0 0

GEFSSGP_con_prob3kmehi_084.txt.gz
EHI
0 0 0 0 0 0 0 0 0 0 0 0 0 0 0 0 0 1 3 7 17 35 50 63 80 89 88 86 83 82 82 79 75 74 71 66 56 42 32 27 23 18 19 25 28 25 21 16 12
0 0 0 0 0 0 0 0 0 0 0 0 0 0 0 0 1 2 5 10 20 35 49 65 83 92 91 90 88 89 88 85 84 82 79 70 58 45 34 26 19 15 15 20 23 21 17 12 8
0 0 0 0 0 0 0 0 0 0 0 0 0 0 0 1 2 4 8 13 23 36 52 74 89 95 95 94 94 95 95 93 91 90 86 76 62 49 37 24 16 12 11 12 14 13 10 7 4
0 0 0 0 0 0 0 0 0 0 0 0 0 0 1 2 4 7 14 20 28 39 56 79 93 96 97 96 95 95 96 94 92 91 88 78 65 53 39 24 15 11 9 7 7 6 5 3 1
0 0 0 0 0 0 0 0 0 0 0 0 0 0 1 4 7 12 20 27 34 45 60 80 94 97 96 94 91 91 92 90 89 89 87 81 71 59 43 27 16 10 6 5 3 1 1 1 0
0 0 0 0 0 0 0 0 0 0 0 0 0 0 2 7 12 20 28 32 38 49 63 79 89 92 92 89 87 87 87 87 86 87 86 83 76 62 45 30 19 10 5 3 1 0 0 0 0
0 0 0 0 0 0 0 0 0 0 0 0 0 0 3 10 18 29 38 39 42 51 64 74 78 79 78 78 80 83 85 85 83 83 82 78 69 56 39 27 18 10 4 1 0 0 0 0 0
0 0 0 0 0 0 0 0 0 0 0 0 0 1 7 15 26 39 49 51 52 58 66 69 69 65 59 58 66 74 80 81 77 74 71 61 46 34 25 18 16 11 4 1 0 0 0 0 0
0 0 0 0 0 0 0 0 0 0 0 0 0 3 11 22 34 49 59 62 64 66 67 67 66 61 49 47 54 59 62 65 60 53 49 36 20 12 12 15 17 11 3 1 0 0 0 0 0
0 0 0 0 0 0 0 0 0 0 0 0 0 3 11 21 34 49 61 66 69 70 66 64 66 64 55 53 58 52 45 43 38 31 27 20 12 6 9 18 19 10 3 1 0 0 0 0 0
0 0 0 0 0 0 0 0 0 0 0 0 0 2 7 16 26 37 50 61 66 67 64 62 67 70 67 68 70 62 49 41 37 34 31 27 23 15 13 17 16 9 4 2 1 0 0 0 0
0 0 0 0 0 0 0 0 0 0 0 0 0 1 6 12 16 22 35 49 58 60 59 62 69 75 78 79 78 72 65 57 53 55 53 44 34 22 17 17 13 10 7 5 2 0 0 0 0
0 0 0 0 0 0 0 0 0 0 1 1 2 3 6 9 10 14 24 40 53 57 58 63 71 78 83 84 80 73 72 69 65 65 62 50 36 27 25 24 20 14 11 9 5 1 1 1 0
0 0 0 0 0 0 0 0 0 1 2 3 4 5 7 9 11 13 20 34 47 56 60 62 66 70 76 78 76 71 70 70 66 64 60 49 39 36 36 34 31 22 15 13 8 4 3 2 1
0 0 0 0 0 0 0 0 0 1 2 3 5 6 8 12 15 16 22 31 39 47 53 54 55 59 65 68 68 66 65 63 63 63 61 51 44 47 48 43 39 30 20 15 13 10 8 5 2
0 0 0 0 0 0 0 0 0 0 1 2 3 4 8 15 20 21 26 33 36 39 44 45 46 51 58 62 61 60 58 58 59 61 58 48 43 49 52 47 42 37 28 20 16 15 13 8 4
0 0 0 0 0 0 0 0 0 0 1 3 4 5 9 17 22 24 28 34 37 37 38 39 40 48 55 58 58 55 53 53 54 55 50 42 41 46 50 48 44 41 35 28 22 21 17 10 5
0 0 0 0 0 0 0 0 0 1 2 5 6 8 11 17 23 25 27 31 35 38 38 37 40 48 55 56 55 52 48 45 46 47 45 42 41 43 45 45 43 40 37 32 26 22 16 8 3
0 0 0 0 0 0 0 0 0 1 2 4 7 12 15 18 22 25 28 30 34 39 39 39 43 50 55 55 52 48 42 36 34 34 35 35 34 36 38 37 36 34 32 28 23 18 11 4 2
0 0 0 0 0 0 0 0 0 1 1 2 5 11 17 17 18 23 27 31 36 40 40 41 46 49 50 50 47 41 33 24 18 18 18 19 19 22 26 28 26 25 23 19 16 13 7 3 2
0 0 0 0 0 0 0 0 0 1 1 1 3 8 12 14 15 19 25 30 36 41 40 40 43 44 44 43 39 30 22 14 9 6 5 5 6 9 14 16 16 15 14 12 10 9 6 4 3
0 0 0 0 0 0 0 0 0 2 2 2 3 6 9 12 15 18 21 26 31 34 35 36 37 37 36 35 29 21 15 11 7 4 2 1 0 2 5 6 7 7 6 4 4 4 3 2 2
0 0 0 0 0 0 0 0 0 1 2 2 3 5 8 10 13 14 15 18 21 23 26 29 30 28 27 27 22 15 11 8 5 3 1 0 0 0 1 1 2 2 1 1 1 1 1 0 1
0 0 0 0 0 0 0 0 1 2 3 3 2 2 3 5 7 8 9 9 10 13 17 21 21 20 19 18 14 10 7 5 3 1 0 0 0 0 0 0 0 0 0 0 0 0 0 0 0
0 0 0 0 0 0 0 1 5 9 9 6 3 1 0 1 3 3 3 3 3 5 8 11 12 12 11 10 7 4 3 3 2 1 0 0 0 0 0 0 0 0 0 0 0 0 0 0 0
0 0 0 0 0 0 0 2 9 14 13 8 4 1 0 0 1 1 1 1 0 1 2 3 4 4 4 3 2 1 1 1 1 0 0 0 0 0 0 0 0 0 0 0 0 0 0 0 0
0 0 0 0 0 0 0 2 7 10 10 7 3 1 0 0 0 0 0 0 0 0 0 0 0 0 1 1 0 0 0 0 0 0 0 0 0 0 0 0 0 0 0 0 0 0 0 0 0
0 0 0 0 0 0 0 1 3 6 7 6 4 1 0 0 0 0 0 0 0 0 0 0 0 0 0 0 0 0 0 0 0 0 0 0 0 0 0 0 0 0 0 0 0 0 0 0 0
0 0 0 0 0 0 0 0 3 6 8 7 5 2 1 0 0 0 0 0 0 0 0 0 0 0 0 0 0 0 0 0 0 0 0 0 0 0 0 0 0 0 0 0 0 0 0 0 0
0 0 0 0 0 0 0 0 2 6 9 9 6 3 1 0 0 0 0 0 0 0 0 0 0 0 0 0 0 0 0 0 0 0 0 0 0 0 0 0 0 0 0 0 0 0 0 0 0

GEFSSGP_con_prob3kmehi_090.txt.gz
EHI
0 0 0 0 0 0 0 0 0 0 0 0 0 0 0 0 2 6 10 30 68 93 96 92 84 70 52 36 24 14 8 4 3 2 2 2 2 4 5 6 9 9 5 2 3 3 2 0 0
0 0 0 0 0 0 0 0 0 0 0 0 0 0 0 0 4 8 15 35 68 89 91 90 88 77 59 43 31 22 14 9 6 5 5 5 5 5 5 6 8 10 7 4 4 4 2 0 0
0 0 0 0 0 0 0 0 0 0 0 0 0 0 1 3 7 14 21 39 67 83 84 89 91 85 70 55 44 35 26 19 15 12 11 10 9 8 7 6 6 8 8 8 7 5 2 1 0
0 0 0 0 0 0 0 0 0 0 0 0 0 1 5 9 15 22 25 36 61 77 81 86 90 89 79 66 56 47 40 34 30 26 21 17 15 13 9 5 4 4 6 8 7 4 3 2 1
0 0 0 0 0 0 0 0 0 0 0 0 0 3 10 18 26 29 24 30 54 75 83 85 88 90 84 75 67 60 54 50 47 41 33 27 23 19 12 5 2 2 2 4 5 4 3 2 1
0 0 0 0 0 0 0 0 0 0 0 0 0 4 15 29 37 36 28 29 51 75 85 86 88 90 86 80 78 74 69 65 62 55 47 40 32 23 15 7 3 1 1 1 3 3 3 2 1
0 0 0 0 0 0 0 0 0 0 0 0 0 6 25 45 52 48 38 34 52 76 86 85 85 85 83 81 81 80 76 73 70 63 55 45 33 21 15 9 4 1 1 1 1 2 2 2 1
0 0 0 0 0 0 0 0 0 0 0 0 0 10 34 55 60 55 47 45 61 80 84 80 77 75 73 72 74 74 71 69 66 59 51 40 24 13 10 8 6 4 1 0 1 1 1 1 0
0 0 0 0 0 0 0 0 0 0 0 0 1 12 34 50 52 52 53 59 73 86 83 71 65 62 57 58 66 66 60 56 51 45 40 29 13 5 4 9 12 7 2 1 1 1 0 0 0
0 0 0 0 0 0 0 0 0 0 0 0 2 12 28 39 43 47 56 67 79 88 83 64 52 48 44 51 64 62 52 45 37 31 28 19 8 3 6 17 21 12 3 1 1 1 0 0 0
0 0 0 0 0 0 0 0 0 0 0 0 1 9 22 32 36 41 53 67 77 82 78 62 48 41 42 56 67 60 48 41 33 28 23 14 7 8 15 27 26 14 4 1 0 0 0 0 0
0 0 0 0 0 0 0 0 0 0 0 0 2 7 17 25 28 34 48 64 74 75 70 62 56 51 54 68 71 57 47 41 37 36 30 17 11 14 24 28 22 12 5 3 2 1 2 3 3
0 0 0 0 0 0 0 0 0 0 0 1 4 8 14 21 25 31 46 63 73 73 68 65 67 67 70 77 73 57 50 45 44 47 41 25 16 18 25 27 20 11 8 9 8 7 8 11 10
0 0 0 0 0 0 0 0 0 0 0 2 5 10 16 21 25 34 47 63 73 74 71 70 75 78 80 80 72 60 55 52 51 54 46 30 23 25 32 37 30 19 19 24 22 18 21 20 17
0 0 0 0 0 0 0 0 0 0 1 3 8 15 20 23 28 37 48 60 71 77 75 73 77 81 79 75 70 62 57 54 54 53 47 34 29 36 46 50 42 30 33 44 39 31 32 28 20
0 0 0 0 0 0 0 0 0 0 2 6 13 20 23 25 31 40 50 61 72 77 75 71 73 76 73 68 64 57 51 49 49 49 45 38 37 45 52 52 46 40 44 50 45 38 36 29 22
0 0 0 0 0 0 0 0 0 0 4 11 20 25 24 26 34 45 55 66 74 78 75 71 70 70 67 62 57 51 45 44 45 44 42 39 40 45 47 46 47 47 48 47 42 41 37 27 21
0 0 0 0 0 0 0 0 1 1 6 15 26 30 30 32 39 48 58 67 74 75 73 71 69 68 66 61 57 52 45 43 43 41 37 36 37 38 38 40 46 49 49 44 41 39 34 25 18
0 0 0 0 0 0 0 1 3 3 7 18 30 36 38 40 44 49 54 61 67 68 66 67 68 69 67 63 59 53 46 41 39 37 34 31 30 30 30 33 39 42 43 40 34 29 25 19 15
0 0 0 0 0 0 0 1 4 7 12 22 34 41 42 44 48 49 49 52 58 60 59 61 65 67 65 61 56 50 41 34 30 28 27 24 23 23 24 27 30 32 34 32 26 20 15 10 8
0 0 0 0 0 0 0 1 5 12 19 28 37 42 42 45 49 47 44 44 47 52 55 56 59 60 58 56 51 43 35 27 22 19 17 14 14 14 15 16 20 22 23 22 20 16 11 5 2
0 0 0 0 0 0 0 1 5 14 23 31 39 41 39 40 41 39 36 35 36 43 48 50 50 50 48 47 43 37 31 25 17 12 9 6 5 5 5 6 8 11 11 10 10 9 6 2 0
0 0 0 0 0 0 0 0 4 13 23 31 37 37 31 27 26 27 27 27 28 32 37 39 39 38 37 36 34 30 25 20 13 8 5 2 1 0 1 1 2 2 3 2 3 3 2 1 0
0 0 0 0 0 0 0 0 3 10 20 28 34 32 23 17 16 16 16 17 18 21 24 26 27 27 27 27 24 20 17 12 7 3 1 0 0 0 0 0 0 0 0 0 0 0 0 0 0
0 0 0 0 0 0 0 0 3 9 16 24 30 28 19 13 10 8 6 5 7 10 12 13 15 16 16 16 13 10 8 6 2 1 0 0 0 0 0 0 0 0 0 0 0 0 0 0 0
0 0 0 0 0 0 0 1 6 11 16 22 27 24 16 11 7 4 1 0 1 2 3 4 5 5 5 5 4 3 3 2 0 0 0 0 0 0 0 0 0 0 0 0 0 0 0 0 0
0 0 0 0 0 0 0 1 7 12 14 17 19 18 13 7 4 2 1 0 0 0 0 0 0 0 0 0 1 1 1 0 0 0 0 0 0 0 0 0 0 0 0 0 0 0 0 0 0
0 0 0 0 0 0 0 1 5 9 10 11 13 13 9 4 1 1 0 0 0 0 0 0 0 0 0 0 0 0 0 0 0 0 0 0 0 0 0 0 0 0 0 0 0 0 0 0 0
0 0 0 0 0 0 0 1 3 6 8 10 10 8 4 1 0 0 0 0 0 0 0 0 0 0 0 0 0 0 0 0 0 0 0 0 0 0 0 0 0 0 0 0 0 0 0 0 0
0 0 0 0 0 0 0 0 2 4 7 10 10 6 2 1 0 0 0 0 0 0 0 0 0 0 0 0 0 0 0 0 0 0 0 0 0 0 0 0 0 0 0 0 0 0 0 0 0

GEFSSGP_con_prob3kmehi_096.txt.gz
EHI
0 0 0 0 0 0 0 0 0 0 0 0 1 4 5 4 2 2 5 17 34 46 47 42 40 37 31 23 15 11 9 10 14 18 20 24 24 22 22 22 21 17 12 7 2 0 1 1 1
0 0 0 0 0 0 0 0 0 0 0 0 2 6 9 7 7 6 10 24 43 56 57 50 47 46 40 30 19 13 9 9 10 13 16 18 18 16 13 13 12 10 7 4 1 0 1 1 0
0 0 0 0 0 0 0 0 0 0 0 0 2 6 9 10 11 13 22 40 57 67 68 64 62 61 56 43 27 15 10 8 8 9 11 11 10 8 5 3 3 2 1 1 0 0 0 0 0
0 0 0 0 0 0 0 0 0 0 0 0 3 8 11 15 20 30 47 62 70 75 78 78 77 75 68 55 36 20 12 9 8 8 9 8 6 4 2 1 0 0 0 0 0 0 0 0 0
0 0 0 0 0 0 0 0 0 0 0 1 7 15 22 30 43 58 72 79 80 83 86 87 88 85 77 64 50 34 20 14 11 9 9 7 5 3 2 1 0 0 0 0 0 0 0 0 0
0 0 0 0 0 0 0 0 0 0 0 2 11 23 34 48 64 75 82 86 87 89 90 90 89 87 80 70 63 53 37 23 16 13 12 9 6 4 3 2 1 0 0 0 0 0 0 0 0
0 0 0 0 0 0 0 0 0 0 0 2 13 27 40 56 71 79 85 88 89 91 91 89 86 82 76 71 68 64 52 36 25 20 16 11 7 4 3 2 1 0 0 0 0 0 1 1 0
0 0 0 0 0 0 0 0 0 0 0 2 10 24 38 57 74 83 88 89 88 87 86 86 83 77 73 69 68 67 59 46 36 28 19 12 7 3 1 1 0 0 0 0 0 1 2 2 1
0 0 0 0 0 0 0 0 0 0 0 3 11 23 42 64 80 88 89 87 83 80 79 80 80 77 74 71 69 69 62 54 45 34 22 14 7 2 0 0 0 0 0 0 0 1 2 2 1
0 0 0 0 0 0 0 0 0 0 0 4 14 32 55 75 85 88 87 83 79 75 74 75 76 77 76 74 73 72 66 59 50 38 26 17 8 3 1 0 0 0 0 0 0 0 1 1 0
0 0 0 0 0 0 0 0 0 0 0 5 17 38 62 77 83 85 83 80 78 75 73 73 73 74 75 74 75 75 71 63 52 40 28 18 10 4 1 1 1 1 0 0 0 0 0 0 0
0 0 0 0 0 0 0 0 0 0 2 7 18 37 57 69 73 76 78 79 77 74 71 68 67 68 71 72 73 72 68 61 51 38 25 15 8 4 1 1 2 2 1 0 0 0 0 0 0
0 0 0 0 0 0 0 0 0 2 6 13 20 32 46 57 61 65 71 74 73 69 63 58 58 59 63 67 66 61 57 51 42 32 20 11 6 3 1 1 3 3 2 1 0 0 0 0 0
0 0 0 0 0 0 0 0 1 4 10 18 23 28 37 47 54 60 63 64 61 57 51 47 48 49 51 55 55 49 43 36 28 20 12 8 6 4 2 1 3 3 3 2 1 0 0 0 0
0 0 0 0 0 0 0 1 3 8 15 22 27 30 34 40 48 54 54 50 47 45 42 40 40 39 39 42 44 41 34 27 17 10 6 4 5 5 3 2 2 2 2 2 1 0 0 0 0
0 0 0 0 0 0 0 1 6 14 21 26 30 33 36 40 44 46 44 40 38 38 38 37 38 37 35 35 36 35 30 22 12 6 3 1 2 3 3 2 1 1 1 1 1 1 0 0 0
0 0 0 0 0 0 0 2 9 19 28 31 34 38 42 45 46 43 39 37 36 36 36 37 38 40 38 33 30 29 26 19 11 5 2 0 1 2 3 2 1 0 0 1 2 2 1 1 0
0 0 0 0 0 0 0 3 10 21 31 38 42 45 47 48 47 43 38 37 35 34 35 37 38 38 35 31 26 23 21 17 11 6 2 1 2 3 3 2 1 0 0 1 2 3 2 1 1
0 0 0 0 0 0 1 3 10 20 31 41 47 50 49 46 43 39 36 34 32 31 32 34 34 33 29 27 23 20 17 13 9 4 3 3 3 3 3 3 2 1 0 0 1 2 2 1 0
0 0 0 0 0 0 1 3 9 18 29 38 44 48 46 41 37 34 31 29 27 25 25 27 29 30 26 22 20 19 15 10 5 3 3 2 2 1 2 3 3 2 1 0 0 1 1 0 0
0 0 0 0 0 0 1 3 7 15 24 32 37 40 39 34 31 30 27 24 22 20 18 19 23 25 23 19 18 17 13 8 4 3 2 2 1 0 1 2 3 2 1 0 0 0 0 0 0
0 0 0 0 0 0 0 1 4 9 18 25 29 31 30 27 25 23 22 20 18 15 12 12 15 16 16 15 15 15 11 6 4 2 2 2 2 1 1 3 3 2 1 0 0 0 0 0 0
0 0 0 0 0 0 0 0 1 4 12 20 24 24 21 19 16 14 13 12 10 8 6 6 8 9 10 9 10 11 8 5 3 2 1 1 1 1 2 2 2 1 0 0 0 0 0 0 0
0 0 0 0 0 0 0 0 0 2 7 16 21 18 14 11 8 6 5 4 3 2 2 2 4 6 7 6 6 6 4 3 3 2 1 0 0 1 1 1 1 0 0 0 0 0 0 0 0
0 0 0 0 0 0 0 0 0 2 6 13 16 13 8 5 3 2 1 1 0 0 0 1 2 4 4 4 3 2 1 1 2 1 1 0 0 0 0 0 0 0 0 0 0 0 0 0 0
0 0 0 0 0 0 0 0 1 3 7 10 11 9 5 2 1 0 0 0 0 0 0 0 1 1 2 2 1 0 0 0 0 0 0 0 0 0 0 0 0 0 0 0 0 0 0 0 0
0 0 0 0 0 0 0 0 0 2 5 7 7 5 3 1 0 0 0 0 0 0 0 0 0 0 1 1 0 0 0 0 0 0 0 0 0 0 0 0 0 0 0 0 0 0 0 0 0
0 0 0 0 0 0 0 0 0 1 3 4 3 2 1 0 0 0 0 0 0 0 0 0 0 0 0 0 0 0 0 0 0 0 0 0 0 0 0 0 0 0 0 0 0 0 0 0 0
0 0 0 0 0 0 0 0 0 0 1 2 1 1 0 0 0 0 0 0 0 0 0 0 0 0 0 0 0 0 0 0 0 0 0 0 0 0 0 0 0 0 0 0 0 0 0 0 0
0 0 0 0 0 0 0 0 0 0 0 1 0 0 0 0 0 0 0 0 0 0 0 0 0 0 0 0 0 0 0 0 0 0 0 0 0 0 0 0 0 0 0 0 0 0 0 0 0

GEFSSGP_con_prob3kmehi_102.txt.gz
EHI
0 0 0 0 0 0 0 0 0 0 0 0 0 0 0 0 0 0 5 24 55 77 71 58 54 52 51 56 67 75 82 85 89 91 89 85 75 58 42 30 21 15 11 9 8 6 4 2 3
0 0 0 0 0 0 0 0 0 0 0 0 0 0 0 0 0 0 7 30 62 81 75 63 63 65 62 64 70 75 78 80 84 86 84 80 74 63 48 33 24 18 12 9 9 7 4 3 2
0 0 0 0 0 0 0 0 0 0 0 0 0 0 0 0 1 2 14 41 71 83 77 72 76 79 77 75 75 76 76 75 76 77 75 72 70 65 52 37 28 22 16 11 9 8 5 3 1
0 0 0 0 0 0 0 0 0 0 0 0 0 1 2 2 4 10 28 55 76 82 79 80 86 88 87 85 80 77 73 69 67 65 63 63 64 62 53 41 32 26 19 12 8 7 5 2 0
0 0 0 0 0 0 0 0 0 0 0 0 0 2 6 10 12 22 41 61 77 83 82 86 92 94 92 90 84 77 71 64 61 58 55 56 57 54 49 41 33 25 17 11 7 5 3 1 1
0 0 0 0 0 0 0 0 0 0 0 0 0 4 11 21 28 36 45 56 72 84 85 89 94 95 94 92 87 80 73 65 61 57 53 51 48 42 36 32 27 19 12 7 4 3 2 1 2
0 0 0 0 0 0 0 0 0 0 0 1 2 6 17 33 47 54 54 57 68 79 84 88 92 92 93 92 88 83 77 70 63 56 50 44 37 29 23 21 19 12 6 3 1 1 1 1 2
0 0 0 0 0 0 0 0 0 0 0 1 3 9 23 47 68 74 71 68 68 71 76 82 85 85 86 89 88 84 79 72 64 55 47 40 31 21 15 14 12 7 2 0 0 1 2 3 3
0 0 0 0 0 0 0 0 0 0 0 2 6 16 37 65 82 85 79 70 63 60 65 72 76 76 77 81 84 83 79 72 64 56 49 40 29 18 11 8 6 3 1 0 0 2 3 4 5
0 0 0 0 0 0 0 0 0 0 0 1 9 27 53 76 85 83 73 60 52 50 57 66 70 70 71 75 79 83 81 74 66 58 51 43 30 19 11 7 4 2 0 0 1 2 4 4 4
0 0 0 0 0 0 0 0 0 0 0 1 10 33 60 76 80 74 62 51 46 47 54 62 68 69 69 71 76 81 81 76 67 60 53 43 31 21 15 10 6 2 0 0 1 2 3 3 2
0 0 0 0 0 0 0 1 1 1 1 4 15 36 58 70 72 66 57 51 50 51 53 58 63 66 66 67 70 74 74 71 66 60 51 39 27 20 16 12 8 3 0 0 0 1 1 1 0
0 0 0 0 0 0 1 2 3 2 4 12 25 40 53 60 61 58 55 54 55 56 54 54 58 61 62 62 63 65 66 63 59 54 45 33 23 16 13 11 6 3 1 0 0 0 0 0 0
0 0 0 0 0 1 2 3 3 3 8 18 29 38 44 49 51 50 50 51 54 56 53 51 54 55 55 54 54 57 58 55 51 46 38 30 22 14 9 8 5 2 1 0 0 0 0 0 0
0 0 0 0 0 1 3 4 3 5 11 19 25 31 35 39 41 41 40 41 45 48 47 47 47 48 47 45 45 48 50 48 44 39 33 28 22 13 7 5 4 2 1 0 0 0 0 0 0
0 0 0 0 0 0 2 4 5 8 13 18 21 26 30 32 32 30 28 28 32 37 41 42 42 41 40 38 38 39 40 38 35 31 28 26 21 12 4 2 2 1 0 0 0 0 0 0 0
0 0 0 0 0 0 1 4 7 10 13 16 19 24 28 29 27 23 18 17 21 28 33 37 37 36 35 33 31 31 30 28 26 24 22 20 17 11 4 1 1 1 0 0 1 0 0 0 0
0 0 0 0 0 0 1 4 7 9 11 13 17 22 25 26 24 20 16 16 19 24 28 29 27 28 29 27 25 23 21 19 18 17 15 13 11 9 5 3 3 3 1 0 0 0 0 0 0
0 0 0 0 0 0 1 3 5 6 7 9 12 16 18 19 19 19 17 17 19 21 22 20 17 17 19 19 18 16 15 13 11 10 8 7 7 7 5 4 4 4 3 1 0 0 0 0 0
0 0 0 0 0 0 0 1 1 3 5 6 7 9 11 13 15 16 16 15 15 15 14 12 8 8 10 13 13 12 10 8 7 6 5 4 5 5 4 3 4 4 3 2 1 0 0 0 0
0 0 0 0 0 0 0 0 0 2 4 6 6 7 8 10 10 10 10 9 10 8 6 5 4 4 6 9 11 10 7 5 4 4 4 3 3 4 3 2 2 3 3 3 1 0 0 0 0
0 0 0 0 0 0 0 0 0 2 4 6 7 6 6 6 6 5 4 4 4 3 2 2 3 3 3 6 9 8 6 4 2 2 3 3 3 3 2 1 1 2 3 3 2 1 1 1 1
0 0 0 0 0 0 0 0 0 1 3 6 6 5 4 4 3 2 2 1 1 0 0 1 1 1 1 3 4 6 5 2 1 1 2 2 2 1 1 0 0 1 2 2 2 1 1 0 0
0 0 0 0 0 0 0 0 0 0 2 7 7 4 2 2 1 1 1 1 0 0 0 0 0 0 0 1 2 3 3 1 0 0 1 1 1 0 0 0 0 0 1 1 1 1 0 0 0
0 0 0 0 0 0 0 0 0 0 1 5 6 3 1 1 0 0 0 0 0 0 0 0 0 0 0 0 1 1 1 1 0 0 0 0 0 0 0 0 0 0 0 0 0 0 0 0 0
0 0 0 0 0 0 0 0 0 0 0 2 2 1 0 0 0 0 0 0 0 0 0 0 0 0 0 0 0 0 0 0 0 0 0 0 0 0 0 0 0 0 0 0 0 0 0 0 0
0 0 0 0 0 0 0 0 0 0 0 0 0 0 0 0 0 0 0 0 0 0 0 0 0 0 0 0 0 0 0 0 0 0 0 0 0 0 0 0 0 0 0 0 0 0 0 0 0
0 0 0 0 0 0 0 0 0 0 0 0 0 0 0 0 0 0 0 0 0 0 0 0 0 0 0 0 0 0 0 0 0 0 0 0 0 0 0 0 0 0 0 0 0 0 0 0 0
0 0 0 0 0 0 0 0 0 0 0 0 0 0 0 0 0 0 0 0 0 0 0 0 0 0 0 0 0 0 0 0 0 0 0 0 0 0 0 0 0 0 0 0 0 0 0 0 0
0 0 0 0 0 0 0 0 0 0 0 0 0 0 0 0 0 0 0 0 0 0 0 0 0 0 0 0 0 0 0 0 0 0 0 0 0 0 0 0 0 0 0 0 0 0 0 0 0

GEFSSGP_con_prob3kmehi_108.txt.gz
EHI
0 0 0 0 0 0 0 0 0 0 0 0 0 0 0 0 0 0 6 19 33 46 49 49 55 58 59 66 74 81 84 80 73 63 57 54 47 37 29 24 21 20 17 13 15 17 16 15 16
0 0 0 0 0 0 0 0 0 0 0 0 0 0 0 0 0 0 8 22 34 41 43 47 58 63 65 73 81 86 90 88 82 76 70 66 58 47 37 30 28 25 20 14 13 16 15 14 14
0 0 0 0 0 0 0 0 0 0 0 0 0 1 2 2 0 3 15 29 34 32 36 51 64 67 71 78 85 91 95 96 93 89 85 80 72 61 48 39 34 30 23 14 12 13 13 13 12
0 0 0 0 0 0 0 0 0 0 0 0 1 3 5 4 4 11 25 34 33 25 31 52 66 70 73 78 84 90 95 97 96 93 90 86 80 69 57 47 39 33 24 16 13 13 14 13 12
0 0 0 0 0 0 0 0 0 0 0 0 1 4 8 10 13 23 30 31 28 22 28 46 60 66 70 74 79 86 91 93 93 92 90 87 83 74 64 57 49 39 29 20 16 15 14 13 12
0 0 0 0 0 0 0 0 0 0 0 1 2 7 15 21 26 31 31 25 23 25 31 40 47 53 60 66 72 78 83 86 88 88 88 88 85 77 70 66 61 52 39 26 18 15 13 13 12
0 0 0 0 0 0 0 0 0 0 2 3 4 10 23 35 39 38 32 25 23 29 36 37 36 37 42 50 59 67 73 78 80 82 84 86 83 76 69 67 65 57 44 30 19 13 11 11 11
0 0 0 0 0 0 0 0 0 1 5 9 12 18 32 47 50 47 41 34 30 32 36 37 35 31 29 32 41 52 62 70 73 75 77 75 66 57 51 52 56 51 39 28 19 13 11 10 9
0 0 0 0 0 0 0 0 0 1 6 14 22 31 42 52 54 53 51 48 44 41 41 41 39 34 26 26 32 38 47 55 58 60 61 52 36 29 29 38 51 47 33 24 16 12 11 8 5
0 0 0 0 0 0 0 0 0 2 6 14 26 37 44 46 47 48 52 57 57 55 50 46 44 41 36 37 42 40 41 44 43 46 46 35 27 24 27 43 53 44 28 19 13 9 6 3 1
0 0 0 0 0 0 0 1 1 3 7 12 20 30 35 36 36 36 42 52 59 60 56 53 53 52 51 54 58 54 52 52 49 49 47 44 47 46 44 52 54 42 28 17 13 7 2 0 0
0 0 0 0 0 0 0 1 3 6 10 12 16 21 26 30 30 30 34 43 51 54 55 57 61 62 62 65 66 62 61 62 62 61 60 61 66 65 60 59 56 48 38 28 20 12 5 2 1
0 0 0 0 0 0 0 1 4 8 11 12 17 21 24 27 31 33 36 42 47 49 52 57 62 64 66 68 66 61 60 60 62 65 64 65 68 69 67 67 63 54 49 42 30 19 14 11 6
0 0 0 0 0 0 0 1 4 9 11 13 17 23 26 30 35 40 42 45 48 49 50 55 59 62 66 65 62 59 57 57 60 64 64 61 63 67 69 69 63 53 48 46 37 27 24 21 15
0 0 0 0 0 0 0 2 6 10 12 12 16 23 30 34 39 43 45 44 47 47 48 50 52 56 58 58 56 54 53 53 55 59 60 57 57 63 67 64 57 49 46 47 45 38 33 30 26
0 0 0 0 0 0 0 3 9 12 11 12 17 23 28 34 39 41 40 39 40 41 43 42 41 43 47 48 46 45 45 45 46 49 49 46 45 51 57 56 51 46 46 48 49 49 46 40 36
0 0 0 0 0 0 0 4 9 11 11 12 16 18 23 29 32 33 33 32 32 35 38 36 34 36 39 39 37 35 35 35 37 39 38 33 30 34 41 46 44 41 42 44 47 52 54 48 44
0 0 0 0 0 0 1 5 8 10 10 10 11 13 18 22 22 22 23 25 26 29 31 31 33 35 36 34 31 30 29 29 30 31 30 25 22 23 29 34 34 32 33 37 41 45 47 44 42
0 0 0 0 0 0 2 7 10 10 9 8 9 12 15 16 15 14 16 19 22 23 24 26 29 31 32 31 29 29 29 28 27 26 26 23 20 19 21 24 26 27 27 30 34 35 33 31 31
0 0 0 0 0 0 2 6 9 10 10 10 10 11 11 12 12 12 13 17 20 20 20 21 23 24 25 25 26 27 28 26 24 24 24 22 18 16 16 18 20 23 24 25 27 26 23 20 18
0 0 0 0 0 0 1 3 5 7 9 11 10 9 8 9 11 10 11 14 16 16 16 16 17 18 19 19 20 22 22 20 19 20 19 17 14 13 14 14 14 16 19 21 22 20 17 12 9
0 0 0 0 0 0 0 1 2 4 6 7 7 7 7 9 10 9 9 10 10 10 10 10 10 12 13 15 16 17 16 15 14 15 13 11 10 11 12 12 11 11 14 17 18 16 13 9 6
0 0 0 0 0 0 0 0 1 3 4 4 4 6 8 9 9 8 7 5 5 5 5 5 6 7 9 11 13 14 14 12 11 10 9 8 7 8 9 9 10 11 12 13 13 12 10 7 4
0 0 0 0 0 0 0 0 1 2 3 4 5 7 9 8 6 5 4 3 3 3 2 2 3 4 5 7 8 10 10 9 8 7 7 7 6 5 5 7 8 9 9 9 8 7 5 3 2
0 0 0 0 0 0 0 0 0 1 2 5 8 9 9 7 4 2 2 3 2 1 1 1 1 1 2 3 4 5 6 7 7 7 6 6 5 3 3 4 6 5 5 5 5 3 1 1 0
0 0 0 0 0 0 0 0 1 1 2 6 9 10 8 5 3 2 2 2 1 0 0 0 0 0 0 1 1 2 3 5 6 5 4 3 2 1 1 2 3 2 1 1 1 1 0 0 0
0 0 0 0 0 0 0 0 1 0 1 5 9 9 6 3 1 1 1 1 0 0 0 0 0 0 0 0 0 1 2 3 4 3 2 1 0 0 0 1 1 1 0 0 0 0 0 0 0
0 0 0 0 0 0 0 0 0 0 1 4 8 8 5 2 0 0 0 0 0 0 0 0 0 0 0 0 0 0 0 1 2 2 1 0 0 0 0 0 0 0 0 0 0 0 0 0 0
0 0 0 0 0 0 0 0 0 0 1 3 6 7 4 1 0 0 0 0 0 0 0 0 0 0 0 0 0 0 0 0 1 1 0 0 0 0 0 0 0 0 0 0 0 0 0 0 0
0 0 0 0 0 0 0 0 0 0 1 3 6 6 3 1 0 0 0 0 0 0 0 0 0 0 0 0 0 0 0 0 0 0 0 0 0 0 0 0 0 0 0 0 0 0 0 0 0

GEFSSGP_con_prob3kmehi_114.txt.gz
EHI
0 0 0 0 0 0 0 0 0 0 1 0 0 0 1 3 3 3 16 50 75 66 45 34 31 23 15 8 6 8 9 5 1 0 0 0 0 1 0 1 2 3 5 5 4 2 0 0 0
0 0 0 0 0 0 0 0 0 0 1 0 0 0 1 3 4 6 22 55 68 52 34 30 29 24 16 11 9 9 9 5 2 1 0 1 3 3 1 1 2 4 6 6 5 3 2 1 1
0 0 0 0 0 0 0 0 0 0 0 0 2 3 5 5 5 9 28 51 53 36 26 29 29 24 17 13 11 9 7 5 4 2 2 4 7 7 5 3 3 5 6 6 6 6 5 4 3
0 0 0 0 0 0 0 0 0 0 0 1 6 14 19 16 12 13 25 39 39 30 25 29 31 26 18 14 12 10 8 8 7 7 7 8 10 11 9 8 6 6 5 4 5 8 9 7 5
0 0 0 0 0 0 0 0 0 0 0 2 10 26 36 31 21 14 17 28 36 34 27 28 33 31 24 19 17 18 17 17 18 20 20 18 17 16 15 13 10 8 6 4 6 9 11 8 6
0 0 0 0 0 0 0 0 0 0 2 4 13 31 40 34 25 16 15 26 41 43 34 29 32 31 28 26 27 31 32 31 34 38 38 33 28 26 23 20 17 13 11 9 9 11 12 8 5
0 0 0 0 0 0 0 0 0 1 5 8 15 30 39 37 29 21 18 31 48 49 37 27 24 24 26 29 35 41 42 42 44 47 45 39 33 30 28 26 25 21 16 12 10 10 10 8 6
0 0 0 0 0 0 0 0 0 2 7 11 17 31 45 46 37 28 26 39 53 50 32 20 17 16 18 24 32 39 44 45 44 41 35 30 25 23 23 25 29 27 18 12 11 11 10 9 7
0 0 0 0 0 0 0 0 0 2 7 12 20 33 46 49 41 34 37 48 58 50 29 17 15 14 13 16 23 29 33 35 32 26 23 18 13 11 13 24 39 38 26 17 15 14 13 10 6
0 0 0 0 0 0 0 1 2 4 8 15 23 35 43 44 39 38 44 55 60 51 32 21 21 21 20 22 24 18 19 21 17 16 20 16 10 10 17 38 58 55 38 26 21 17 11 7 4
0 0 0 0 0 0 0 2 5 8 13 19 29 39 43 41 39 42 47 53 57 51 37 29 32 35 38 42 35 22 21 23 19 25 33 24 17 22 35 58 69 60 42 31 26 18 9 5 4
0 0 0 0 0 0 1 5 9 12 17 24 35 44 45 43 43 45 49 53 54 49 41 39 45 49 57 62 52 38 38 40 39 49 53 38 30 34 50 66 66 52 38 29 25 18 10 7 6
0 0 0 0 0 0 1 5 9 12 18 26 35 41 43 44 46 47 51 55 54 49 43 48 58 63 70 75 68 55 55 56 58 67 66 51 44 45 54 63 60 48 37 29 21 16 12 11 11
0 0 0 0 0 0 1 4 8 12 17 26 32 37 41 45 47 48 51 52 50 48 48 56 68 74 78 81 76 66 63 65 68 72 71 60 54 54 57 59 54 45 39 34 25 20 20 19 18
0 0 0 0 0 0 1 4 8 12 17 26 33 38 42 45 46 47 49 49 49 49 51 60 70 75 79 79 74 65 60 62 67 70 69 63 57 57 57 54 48 40 35 36 33 30 30 28 25
0 0 0 0 0 0 1 4 8 10 16 27 35 39 41 44 45 46 48 50 51 51 55 61 67 72 76 75 69 58 51 52 58 60 60 58 54 51 50 46 40 34 30 32 33 32 31 29 27
0 0 0 0 0 0 1 4 6 7 15 28 37 38 38 40 43 45 48 52 54 56 61 63 65 68 70 69 64 56 48 47 49 50 50 49 45 44 43 40 35 32 30 29 29 28 25 22 22
0 0 0 0 0 0 2 5 7 7 14 28 37 38 37 38 41 43 46 51 55 59 61 63 64 65 64 63 61 58 54 51 49 47 46 43 39 38 39 38 34 33 32 30 29 26 19 15 15
0 0 0 0 0 0 3 6 7 9 15 28 37 38 37 38 39 38 39 44 50 54 57 60 61 61 60 60 60 61 61 57 51 46 42 38 35 35 35 36 36 35 33 31 29 24 17 14 14
0 0 0 0 0 0 2 5 8 11 19 30 38 40 38 38 36 31 28 31 36 43 48 52 55 56 57 56 57 59 59 56 50 44 39 35 33 32 30 32 33 33 31 29 26 20 15 13 14
0 0 0 0 0 0 1 3 9 17 23 32 39 41 39 36 30 23 19 19 23 29 35 41 45 48 50 50 51 51 51 48 45 43 39 33 29 27 25 25 26 27 27 25 22 18 13 11 11
0 0 0 0 0 0 0 3 10 20 28 32 36 38 37 32 23 16 13 13 14 17 23 28 31 35 40 42 42 42 41 40 39 39 37 33 27 22 20 20 19 20 20 18 17 15 12 10 10
0 0 0 0 0 0 0 2 9 19 28 31 30 31 30 24 17 12 10 10 10 11 15 18 21 26 31 34 35 35 34 32 32 34 33 30 25 20 17 15 15 15 15 13 12 12 11 10 9
0 0 0 0 0 0 0 1 6 15 23 29 31 29 24 17 12 9 8 6 6 8 10 12 14 18 23 27 29 28 26 24 25 26 26 23 20 16 14 13 13 13 13 11 10 10 10 9 8
0 0 0 0 0 0 0 0 4 12 22 32 37 33 23 14 8 6 5 4 4 5 6 8 8 9 13 17 20 19 18 17 18 18 16 13 11 10 10 11 11 11 10 9 8 8 8 7 6
0 0 0 0 0 0 0 1 5 15 26 37 42 35 21 12 8 6 4 3 3 3 4 4 3 3 5 6 8 10 11 11 12 11 8 6 5 5 5 6 6 6 6 5 5 6 5 4 4
0 0 0 0 0 0 0 1 6 17 29 39 41 32 19 11 7 5 4 3 3 2 2 2 1 1 1 1 2 4 5 7 8 7 4 3 2 1 1 1 1 1 2 3 3 3 3 2 1
0 0 0 0 0 0 0 1 5 14 26 35 34 27 19 11 5 3 2 2 1 1 1 1 0 0 0 0 0 1 2 3 4 4 3 2 1 0 0 0 0 0 1 2 2 1 1 1 0
0 0 0 0 0 0 0 0 2 9 19 28 29 24 17 10 4 1 1 1 0 0 0 0 0 0 0 0 0 0 0 1 2 2 1 1 1 0 0 0 0 0 0 1 1 0 0 0 0
0 0 0 0 0 0 0 0 1 6 13 23 28 24 15 7 2 0 0 0 0 0 0 0 0 0 0 0 0 0 0 0 1 1 0 0 0 0 0 0 0 0 0 0 0 0 0 0 0

GEFSSGP_con_prob3kmehi_120.txt.gz
EHI
0 0 0 0 0 0 0 0 0 0 0 1 5 12 19 19 14 7 6 14 27 30 21 18 23 25 24 22 17 8 2 2 3 3 2 1 1 3 6 5 3 2 1 0 0 0 0 0 0
0 0 0 0 0 0 0 0 0 0 1 3 9 18 25 27 21 12 9 18 33 37 26 21 27 30 27 23 17 8 2 1 2 2 1 0 1 3 4 3 2 1 1 0 0 0 0 0 0
0 0 0 0 0 0 0 0 0 1 3 7 15 24 27 25 21 16 16 26 41 45 34 29 36 38 32 24 16 8 3 1 1 1 0 1 2 4 4 2 1 0 0 0 0 0 0 0 0
0 0 0 0 0 0 0 0 1 3 6 12 22 27 25 20 18 22 27 34 46 49 42 38 43 44 36 25 16 9 5 2 1 0 0 1 3 5 4 2 0 0 0 0 0 0 0 0 0
0 0 0 0 0 0 0 1 3 8 11 18 26 29 26 23 26 31 35 39 47 53 49 43 44 46 40 29 19 13 7 4 2 1 1 1 3 4 4 1 0 0 0 0 0 0 0 0 0
0 0 0 0 0 0 0 2 7 11 15 21 29 32 27 26 32 36 37 40 49 56 53 44 42 43 40 32 23 16 10 7 5 3 2 3 3 3 2 0 0 0 0 0 0 0 0 0 0
0 0 0 0 0 0 0 3 8 12 15 22 29 32 29 28 33 39 40 44 52 57 52 45 38 35 34 30 24 17 11 9 7 4 3 3 2 1 0 0 0 0 0 0 0 0 0 0 0
0 0 0 0 0 0 1 4 8 12 14 19 25 29 31 34 40 46 47 48 51 51 48 43 35 31 29 24 18 14 10 7 6 5 3 2 1 1 1 1 2 2 1 1 0 0 0 0 1
0 0 0 0 0 1 3 6 9 11 12 17 24 31 38 44 49 50 48 45 43 42 41 37 31 28 26 19 13 9 7 5 5 6 6 4 3 3 3 3 4 5 4 2 1 0 0 1 2
0 0 0 0 0 1 4 7 10 11 13 20 30 39 45 49 52 48 42 38 34 32 32 29 25 24 21 15 10 6 5 4 5 6 7 5 4 4 3 4 6 7 6 4 2 1 1 2 2
0 0 0 0 0 1 4 7 10 13 15 22 32 42 45 46 45 39 33 30 26 23 23 22 21 19 15 11 7 5 4 4 4 6 6 4 3 3 2 2 4 6 6 5 5 4 4 3 2
0 0 0 0 0 2 4 7 12 17 19 24 33 38 38 36 33 29 25 22 17 13 13 14 16 15 12 9 6 5 6 6 6 6 6 5 3 2 1 1 3 5 6 6 7 7 6 4 2
0 0 0 0 1 3 6 8 13 21 25 28 31 32 30 26 22 20 19 15 10 7 7 9 12 13 11 9 8 7 8 8 7 7 7 5 4 3 2 1 3 5 6 6 5 5 3 2 1
0 0 0 1 3 4 7 9 13 21 29 32 29 26 24 20 16 14 14 13 9 7 7 9 11 13 13 11 11 10 9 7 6 6 6 5 5 5 4 3 5 6 6 5 3 1 1 1 1
0 0 0 1 2 3 6 8 11 20 30 33 28 23 20 18 14 11 11 12 11 10 10 12 14 15 15 13 12 12 9 6 6 6 6 6 6 7 7 6 6 7 6 4 2 0 1 2 2
0 0 0 0 1 2 5 7 12 24 35 36 30 22 18 16 14 12 12 12 12 13 14 14 14 16 16 15 14 14 13 11 10 9 8 7 8 9 9 7 7 7 7 5 2 0 1 3 4
0 0 0 0 1 3 6 10 19 31 40 39 31 22 17 16 15 13 12 12 12 13 12 10 10 13 16 17 17 19 19 18 17 14 10 9 9 9 8 8 8 8 10 9 5 3 3 4 4
0 0 0 0 1 3 8 17 27 35 39 37 29 22 18 16 15 13 11 11 12 11 8 5 6 10 15 17 19 22 23 21 19 16 11 9 8 8 7 7 8 9 11 11 8 6 6 5 3
0 0 0 0 1 4 10 22 30 33 33 32 27 23 19 17 16 13 11 9 9 8 6 5 6 9 13 16 19 24 25 21 18 13 9 7 7 7 7 7 8 9 10 10 9 8 7 5 4
0 0 0 0 1 4 12 21 27 28 28 28 25 21 19 18 17 14 11 8 6 4 4 6 7 8 10 13 18 23 24 23 18 11 7 6 6 7 7 7 8 8 9 9 9 8 7 6 4
0 0 0 0 1 4 9 14 19 24 27 25 22 18 17 18 16 12 9 7 4 2 2 4 6 7 8 9 14 17 18 19 16 10 5 4 5 6 7 7 7 7 7 6 7 7 7 6 5
0 0 0 0 0 1 3 5 11 23 29 27 22 18 15 15 13 10 7 5 3 1 2 4 6 7 6 6 9 10 10 10 9 5 2 2 3 5 6 5 6 6 5 4 4 5 6 6 6
0 0 0 0 0 0 0 0 6 19 30 31 25 19 15 12 10 7 4 2 2 1 3 4 5 6 5 4 4 4 4 3 3 2 1 2 3 5 6 4 4 5 4 3 3 4 5 6 6
0 0 0 0 0 0 0 0 3 12 23 29 27 21 15 11 8 5 3 2 2 3 3 4 4 3 3 3 2 1 1 1 2 2 3 3 4 5 4 3 3 3 3 3 3 3 4 4 4
0 0 0 0 0 0 0 0 1 6 16 26 27 21 14 9 6 3 3 3 3 3 3 2 2 1 1 1 1 0 0 1 2 2 2 2 3 3 2 1 1 1 1 2 3 3 3 3 3
0 0 0 0 0 0 0 0 0 5 14 22 21 15 10 6 4 3 3 3 2 2 1 1 1 0 0 0 0 0 0 0 1 1 1 1 1 1 0 0 0 0 0 1 1 2 2 2 2
0 0 0 0 0 0 0 0 0 5 13 16 13 10 6 4 3 3 2 1 1 1 0 0 0 0 0 0 0 0 0 0 0 0 0 0 0 0 0 0 0 0 0 0 0 0 0 1 1
0 0 0 0 0 0 0 0 0 4 9 10 9 7 5 3 3 2 1 0 0 0 0 0 0 0 0 0 0 0 0 0 0 0 0 0 0 0 0 0 0 0 0 0 0 0 0 0 0
0 0 0 0 0 0 0 0 1 3 6 7 6 5 4 3 2 1 0 0 0 0 0 0 0 0 0 0 0 0 0 0 0 0 0 0 0 0 0 0 0 0 0 0 0 0 0 0 0
0 0 0 0 0 0 0 0 1 3 4 4 4 4 4 3 1 0 0 0 0 0 0 0 0 0 0 0 0 0 0 0 0 0 0 0 0 0 0 0 0 0 0 0 0 0 0 0 0

GEFSSGP_con_prob3kmehi_126.txt.gz
EHI
0 0 0 0 0 0 0 0 0 0 0 1 3 5 6 5 3 3 4 13 26 30 24 22 30 40 50 60 67 69 69 69 67 66 62 52 35 20 12 8 5 2 1 1 0 0 0 1 3
0 0 0 0 0 0 0 0 0 0 1 1 3 6 8 7 5 5 8 18 31 36 30 29 36 45 52 58 63 63 62 60 57 55 52 45 33 20 13 9 5 3 2 2 1 1 1 2 2
0 0 0 0 0 0 0 0 0 1 1 1 4 8 11 8 6 7 11 24 38 41 37 37 44 50 52 55 57 56 51 46 43 39 35 30 25 20 15 11 7 5 2 1 1 2 3 2 2
0 0 0 0 0 0 0 0 0 0 0 2 6 10 11 10 8 10 17 28 42 46 40 41 49 54 54 54 53 51 43 37 32 27 22 19 17 16 13 11 9 7 3 1 2 3 3 2 1
0 0 0 0 0 0 0 0 0 1 2 5 10 14 15 13 13 20 27 35 46 51 47 46 52 57 58 56 53 49 41 32 27 21 17 15 13 12 10 8 8 6 3 3 4 4 3 1 1
0 0 0 0 0 0 0 2 3 4 5 8 14 19 20 18 21 31 38 42 50 56 56 54 55 58 58 56 52 45 36 27 22 18 14 12 12 10 7 4 3 3 3 4 5 5 4 2 1
0 0 0 0 0 0 1 4 5 7 9 11 17 23 22 23 31 41 47 50 53 58 59 58 56 57 57 53 46 35 24 18 16 15 13 11 10 8 5 2 1 2 2 3 4 4 3 2 2
0 0 0 0 0 0 2 5 5 6 10 14 19 22 25 30 41 50 53 54 55 55 54 54 54 55 55 50 38 26 17 13 12 13 12 10 7 4 2 2 1 1 1 1 1 1 1 2 2
0 0 0 0 0 1 3 5 4 5 11 18 23 27 32 39 46 52 55 55 54 48 43 43 46 48 49 46 37 26 18 13 12 12 10 7 4 2 1 1 1 0 0 0 0 0 0 1 1
0 0 0 0 0 1 4 5 4 5 12 20 27 33 39 43 46 47 47 47 46 40 33 33 38 41 42 42 38 30 22 16 13 10 7 4 2 0 1 1 1 1 0 0 0 0 0 0 0
0 0 0 0 0 1 4 5 5 7 11 17 26 35 40 41 41 38 35 34 34 33 29 28 31 35 37 38 36 30 24 18 12 8 5 3 1 0 1 2 2 2 1 1 1 1 0 0 0
0 0 0 0 0 1 3 5 8 11 13 17 26 33 36 36 35 31 27 25 26 27 28 26 25 27 30 32 30 25 21 17 11 7 5 5 2 1 1 2 3 2 2 1 1 2 1 1 1
0 0 0 0 0 1 3 6 9 13 16 20 24 26 27 27 27 25 24 23 22 23 24 23 21 22 24 25 21 16 14 13 9 8 8 7 4 1 1 2 2 1 1 1 2 2 2 2 2
0 0 0 0 0 1 3 5 7 10 14 17 17 17 16 16 17 19 19 19 18 18 19 19 18 19 19 17 12 9 8 8 7 7 7 7 4 1 1 2 2 1 0 0 1 1 1 1 1
0 0 0 0 0 0 1 3 4 6 9 10 10 10 10 9 10 11 12 13 13 13 15 16 14 13 13 11 7 5 5 5 4 3 3 3 3 1 1 1 1 0 0 1 1 1 1 1 2
0 0 0 0 0 0 0 1 1 3 5 6 6 7 7 6 6 6 5 6 7 8 10 12 10 8 6 6 4 3 3 3 3 1 0 1 2 2 1 1 0 0 1 2 2 2 2 3 3
0 0 0 0 0 0 0 0 0 2 4 5 5 5 5 4 3 3 2 2 4 6 7 7 6 4 3 3 3 2 2 2 1 0 0 0 1 2 2 1 0 1 2 3 3 3 3 3 3
0 0 0 0 0 0 0 1 2 3 5 5 5 5 5 4 3 3 3 3 3 3 3 2 2 2 2 3 3 3 2 1 0 1 1 1 1 1 1 1 0 1 2 3 2 1 1 2 1
0 0 0 0 0 0 1 3 4 5 6 5 5 7 8 7 7 5 4 4 3 2 1 0 0 0 2 4 4 5 3 1 1 1 2 2 1 1 0 0 0 1 2 2 1 1 1 1 0
0 0 0 0 0 0 2 3 6 7 6 5 7 9 10 8 7 6 4 3 2 1 0 0 0 1 2 3 4 4 3 2 1 1 1 1 1 1 1 1 1 1 2 2 1 2 3 2 0
0 0 0 0 0 0 1 2 4 6 6 6 7 8 7 6 6 5 4 3 2 1 0 0 0 1 2 2 2 2 2 1 1 0 0 0 0 0 1 2 2 2 2 2 2 3 4 3 1
0 0 0 0 0 0 0 1 2 3 5 6 6 6 6 6 6 4 3 3 2 1 0 0 0 0 1 1 1 0 0 0 0 0 0 0 0 0 0 1 2 3 3 3 2 3 4 3 3
0 0 0 0 0 0 0 0 1 2 3 4 6 6 6 7 6 4 2 2 1 1 1 0 0 0 0 0 0 0 0 0 0 0 0 0 0 0 0 1 2 3 3 3 2 2 3 3 3
0 0 0 0 0 0 0 0 0 1 2 4 7 9 7 7 6 4 3 2 1 0 0 0 0 0 0 0 0 0 0 0 0 0 0 0 0 0 0 0 1 1 2 2 2 2 2 3 3
0 0 0 0 0 0 0 0 0 0 1 4 9 11 9 7 6 4 3 3 1 0 0 0 0 0 0 0 0 0 0 0 0 0 0 0 0 0 0 0 0 0 1 1 2 2 1 2 2
0 0 0 0 0 0 0 0 0 0 1 4 8 11 10 8 5 4 3 3 2 0 0 0 0 0 0 0 0 0 0 0 0 0 0 0 0 0 0 0 0 0 0 0 1 1 1 2 2
0 0 0 0 0 0 0 0 0 0 1 4 8 10 8 6 4 3 3 2 1 0 0 0 0 0 0 0 0 0 0 0 0 0 0 0 0 0 0 0 0 0 0 0 0 0 1 2 2
0 0 0 0 0 0 0 0 0 0 1 4 7 8 6 4 3 3 2 1 0 0 0 0 0 0 0 0 0 0 0 0 0 0 0 0 0 0 0 0 0 0 0 0 0 0 0 1 1
0 0 0 0 0 0 0 0 0 0 0 1 4 6 5 3 3 2 1 0 0 0 0 0 0 0 0 0 0 0 0 0 0 0 0 0 0 0 0 0 0 0 0 0 0 0 0 0 0
0 0 0 0 0 0 0 0 0 0 0 0 2 4 4 3 3 1 0 0 0 0 0 0 0 0 0 0 0 0 0 0 0 0 0 0 0 0 0 0 0 0 0 0 0 0 0 0 0

GEFSSGP_con_prob3kmehi_132.txt.gz
EHI
0 0 0 0 0 0 0 0 0 0 0 0 1 1 2 2 1 1 4 9 14 18 17 14 18 30 45 57 62 63 63 60 53 45 36 25 15 8 4 1 0 0 0 0 0 0 0 0 0
0 0 0 0 0 0 0 0 0 0 0 0 1 1 1 1 2 2 5 11 16 18 17 17 24 34 45 57 63 65 64 61 56 48 35 23 16 10 5 3 1 0 0 0 0 0 0 0 0
0 0 0 0 0 0 0 0 0 0 0 0 1 1 0 1 2 4 8 14 18 16 15 22 32 39 46 54 61 64 63 61 58 51 36 22 15 12 9 7 5 2 1 0 0 0 0 0 0
0 0 0 0 0 0 0 0 0 0 0 0 1 2 1 1 5 10 15 19 18 12 11 21 32 39 44 49 53 56 56 56 57 50 37 25 17 14 13 12 9 5 2 0 0 0 0 0 0
0 0 0 0 0 0 0 0 0 0 0 1 2 4 3 3 9 17 21 22 20 14 13 18 26 33 39 43 45 46 46 49 52 47 37 27 20 16 15 13 10 6 2 0 0 0 0 0 0
0 0 0 0 0 1 1 1 0 0 1 2 3 5 7 9 14 21 23 21 21 20 21 22 21 25 32 36 40 41 40 43 45 41 33 26 21 16 13 11 9 6 2 1 1 0 0 0 0
0 0 0 0 1 2 2 2 1 0 1 2 2 6 13 18 20 23 23 22 23 25 27 24 19 19 24 28 35 40 38 38 38 33 26 22 17 11 8 7 7 5 3 1 0 0 0 0 0
0 0 0 0 1 2 3 2 1 0 1 2 3 10 23 30 29 29 30 29 28 29 30 25 18 16 17 21 30 37 37 34 30 25 18 12 8 4 2 4 6 5 2 1 0 0 0 0 0
0 0 0 0 1 1 1 1 0 0 2 5 10 21 36 42 38 38 37 34 34 34 31 25 19 16 16 20 27 31 32 29 23 17 11 6 3 1 2 5 7 4 2 1 1 1 1 1 0
0 0 0 0 0 0 0 0 0 0 2 8 17 29 42 44 39 37 36 35 35 34 30 25 22 19 20 26 30 30 29 25 18 13 10 7 5 2 4 7 6 3 1 1 1 1 1 1 0
0 0 0 0 0 0 0 0 2 3 5 10 18 30 39 38 32 30 32 31 30 30 28 25 24 22 24 30 34 36 34 27 20 16 13 11 9 6 6 6 4 1 1 1 1 2 1 0 0
0 1 1 1 1 0 1 4 9 12 14 15 20 29 34 31 25 24 27 28 28 29 28 27 26 27 29 32 36 39 38 32 25 21 16 12 10 8 7 7 5 2 2 2 2 2 1 0 0
1 2 3 2 1 0 2 8 16 21 22 22 25 29 31 27 23 22 25 28 30 31 30 29 31 34 37 39 40 40 39 35 29 23 16 11 9 8 7 8 8 6 6 6 4 2 2 1 1
1 2 3 3 2 1 2 7 15 21 23 22 24 27 27 25 25 26 27 28 29 32 34 35 37 40 42 43 42 40 38 35 31 24 18 13 11 11 10 9 10 8 8 8 6 4 4 4 4
1 2 3 3 2 1 1 4 9 14 16 17 19 21 23 24 27 29 28 27 28 31 34 36 36 38 40 40 38 37 34 32 32 29 24 19 15 14 13 12 11 9 8 8 8 7 8 7 7
0 1 2 2 1 0 0 2 5 8 10 13 15 16 17 18 20 21 21 24 26 28 30 31 31 33 34 35 35 33 30 29 30 31 29 22 17 14 13 13 12 10 8 9 10 10 10 10 9
0 0 1 1 1 0 0 1 3 5 7 10 12 12 12 11 10 10 13 17 20 21 22 25 26 25 26 29 31 28 24 22 24 25 24 19 13 10 10 12 12 10 9 10 11 11 12 13 12
0 0 0 0 0 0 0 1 4 6 7 9 9 9 9 8 6 7 11 14 15 15 16 17 18 18 18 20 23 20 15 13 16 17 17 13 8 6 6 8 9 10 9 10 10 11 13 14 14
0 0 0 0 0 0 0 2 4 5 6 9 10 10 9 8 7 10 12 13 12 12 12 11 12 13 13 13 15 15 12 11 13 14 12 10 6 3 3 4 6 8 9 9 10 12 13 12 13
0 0 0 0 0 0 0 2 3 3 3 7 11 10 8 8 9 11 12 11 10 10 10 10 10 10 10 10 11 12 12 12 12 11 9 8 5 3 3 4 5 7 8 9 11 12 11 11 12
0 0 0 0 0 0 1 1 2 1 2 6 9 9 8 9 11 12 11 11 9 9 10 11 11 10 10 8 8 9 10 9 9 7 6 4 2 3 4 3 3 5 6 7 9 10 9 9 10
0 0 0 0 0 0 0 0 1 1 3 6 9 10 11 13 14 13 12 11 9 8 10 12 12 11 9 7 5 6 7 8 7 6 4 3 2 2 2 2 3 4 4 5 6 6 6 7 7
0 0 0 0 0 0 0 0 0 1 2 5 10 14 17 18 17 16 15 12 7 6 8 11 11 10 7 5 4 5 7 7 5 5 4 3 3 3 3 3 3 3 3 3 4 4 4 4 5
0 0 0 0 0 0 0 0 1 1 2 5 13 20 22 22 20 18 18 13 8 5 6 8 9 8 6 4 4 5 6 4 3 2 3 3 2 3 4 4 4 3 3 3 3 4 3 3 3
0 0 0 0 0 0 0 0 1 2 3 8 18 24 24 22 20 18 18 14 8 6 6 6 6 7 6 5 3 3 3 1 0 1 1 1 1 1 1 2 3 2 1 2 3 3 3 3 3
0 0 0 0 0 0 0 1 2 3 5 12 21 24 22 20 18 16 15 11 8 6 6 6 6 6 5 3 1 1 1 0 0 1 0 0 0 0 0 0 1 1 1 2 2 1 1 2 3
0 0 0 0 0 0 0 1 2 2 6 13 18 20 21 19 16 12 10 8 6 6 6 5 5 4 3 1 0 0 0 0 0 0 0 0 0 0 0 0 1 2 2 2 2 1 1 1 1
0 0 0 0 0 0 0 0 1 2 6 11 13 17 19 17 13 10 7 6 5 4 3 3 2 1 1 0 0 0 0 0 0 0 0 0 0 0 0 1 2 3 2 1 1 0 0 1 1
0 0 0 0 0 0 0 0 1 3 8 11 11 13 14 12 9 8 7 6 5 3 1 1 0 0 0 0 0 0 0 0 0 0 0 0 0 1 1 1 2 2 1 0 0 0 0 0 1
0 0 0 0 0 0 0 0 1 5 11 13 11 10 11 8 7 6 6 6 5 3 1 0 0 0 0 0 0 0 0 0 0 0 0 0 1 2 2 2 2 1 0 0 0 0 0 0 1

GEFSSGP_con_prob3kmehi_138.txt.gz
EHI
0 0 0 0 0 0 0 0 1 1 1 1 3 6 10 11 6 4 12 34 55 52 39 34 30 20 10 6 4 2 1 0 0 0 0 0 0 0 1 2 4 4 1 0 1 0 0 0 0
0 0 0 0 0 0 0 0 1 1 0 2 4 7 10 9 6 7 17 37 49 46 38 37 36 27 16 9 5 2 0 1 1 0 0 0 0 0 0 1 2 2 1 0 1 0 0 0 0
0 0 0 0 0 0 0 1 1 1 0 2 5 8 11 10 8 12 24 36 42 43 45 47 45 35 23 13 7 3 2 2 2 1 1 1 1 1 1 0 0 0 0 0 0 0 0 0 0
0 0 0 0 0 0 0 1 2 2 1 3 7 14 16 15 15 20 25 31 37 45 49 52 52 43 30 19 11 8 6 4 3 3 2 1 2 3 2 1 0 0 0 0 0 0 0 0 0
0 0 0 0 0 0 0 1 3 4 3 6 15 24 23 19 22 24 24 27 37 47 48 50 54 50 39 28 19 15 12 8 6 5 4 3 3 3 3 1 0 0 0 0 0 0 0 0 0
0 0 0 0 0 0 0 1 4 5 6 10 21 29 24 20 23 24 24 30 42 50 46 45 50 49 45 38 30 25 21 15 10 8 6 5 4 3 2 2 1 0 0 0 0 0 0 0 0
0 0 0 0 0 0 1 2 5 6 7 11 18 24 24 23 24 24 27 35 45 48 43 37 37 39 39 38 34 30 26 21 15 10 7 6 4 3 1 1 1 0 0 0 0 0 0 0 0
0 0 0 0 0 1 2 4 5 8 12 16 20 24 30 31 27 26 32 40 46 46 37 29 28 28 25 26 29 29 27 23 17 11 6 5 4 2 1 1 2 1 0 0 0 0 0 0 0
0 0 0 0 0 1 3 4 6 12 19 27 32 36 38 34 28 29 37 46 49 44 33 27 25 24 18 18 24 27 25 21 16 11 8 6 4 1 1 5 8 5 1 0 0 0 0 0 0
0 0 0 0 0 1 2 3 6 11 20 32 41 43 38 33 29 30 39 48 50 43 34 29 27 24 20 20 23 22 20 18 15 13 12 9 5 3 5 12 15 9 2 1 0 0 0 0 1
0 0 0 0 0 0 1 2 6 14 24 35 42 38 32 30 32 36 42 48 49 44 38 35 32 26 25 27 24 17 17 19 17 16 17 14 11 11 13 17 17 10 4 2 2 1 1 1 1
0 0 0 0 0 1 3 7 14 26 36 41 39 31 26 30 38 45 49 49 47 44 42 40 39 35 35 36 29 20 19 23 23 22 21 20 20 20 22 19 14 8 4 3 4 3 2 1 1
0 0 0 0 0 2 6 11 21 34 41 40 34 27 28 36 45 51 54 51 48 47 47 48 50 49 49 47 39 30 28 29 29 27 26 26 27 26 26 23 14 7 6 7 7 5 3 1 1
0 0 0 0 1 2 6 11 19 32 38 35 32 33 38 44 49 54 56 55 52 52 52 54 55 56 57 54 49 44 41 37 34 31 31 31 30 29 28 25 17 11 11 12 11 9 6 3 2
0 0 0 0 1 2 5 10 18 28 34 35 37 42 49 50 51 53 57 57 56 56 56 53 51 53 55 55 53 52 47 41 35 33 32 30 28 28 28 24 19 17 16 16 14 13 11 8 6
0 0 0 0 1 1 4 13 22 27 31 36 42 47 51 51 49 50 52 54 55 56 55 52 49 49 51 50 50 48 43 39 34 30 27 24 23 24 25 23 21 19 19 18 17 16 14 12 9
0 0 0 0 0 0 5 17 26 25 27 35 42 44 45 44 44 46 46 47 50 50 50 50 48 46 44 44 41 38 35 33 30 26 23 21 20 20 21 22 22 21 19 19 18 17 16 14 12
0 0 0 0 0 0 6 17 24 23 25 32 38 38 37 38 41 43 43 42 43 44 44 45 43 40 38 36 33 29 26 24 24 24 21 18 16 16 18 21 22 21 19 18 18 16 16 16 15
0 0 0 0 0 1 6 14 19 20 22 28 33 36 37 39 41 41 42 40 38 39 40 39 35 33 33 33 31 27 23 19 20 20 17 12 10 10 13 18 20 19 18 19 18 16 15 15 15
0 0 0 0 1 3 6 10 12 13 18 26 34 39 43 44 42 40 39 37 36 35 34 32 29 26 27 28 28 27 24 20 17 17 14 10 7 6 9 13 15 14 15 17 17 16 15 14 13
0 0 0 0 1 2 5 6 7 9 14 25 36 42 46 46 42 39 36 33 31 29 25 23 23 22 22 23 23 24 23 19 16 14 13 10 8 6 8 10 11 11 12 13 13 13 12 10 10
0 0 0 0 0 1 2 4 4 7 14 24 35 41 45 46 41 37 34 29 25 22 20 21 21 21 22 21 21 21 21 17 13 12 11 8 6 7 8 9 9 9 9 8 6 7 6 6 7
0 0 0 0 0 0 1 2 4 8 14 22 31 39 44 46 43 38 33 27 21 19 21 23 23 23 22 21 20 20 18 14 11 10 8 5 4 5 6 8 8 7 6 3 2 3 4 4 5
0 0 0 0 0 0 0 2 7 13 15 20 29 37 43 47 45 39 32 25 21 19 21 21 21 21 21 20 19 16 13 9 7 7 6 4 3 3 4 6 6 4 3 2 1 2 3 3 4
0 0 0 0 0 0 0 2 9 16 17 20 28 36 43 47 45 38 31 25 22 19 17 16 15 16 17 18 16 11 8 6 5 5 4 3 2 1 1 2 3 2 1 1 0 1 1 2 2
0 0 0 0 0 0 0 3 9 16 18 21 28 36 42 45 43 37 29 23 19 16 14 12 11 11 13 13 10 8 6 4 3 3 2 1 1 0 0 0 1 1 0 0 0 0 1 1 1
0 0 0 0 0 0 0 3 9 15 18 21 27 34 41 43 41 35 27 20 16 13 11 10 10 10 9 8 7 6 4 2 1 1 0 0 0 0 0 0 0 0 0 0 0 1 1 0 0
0 0 0 0 0 0 0 2 6 12 16 20 25 33 40 42 38 31 23 18 15 12 10 9 9 8 7 6 5 4 3 2 1 1 0 0 0 0 0 0 0 0 0 0 1 2 1 0 0
0 0 0 0 0 0 0 1 5 9 13 19 26 34 39 39 33 26 20 16 13 10 9 8 7 7 6 4 4 3 3 3 2 1 0 0 0 0 0 0 0 0 1 1 2 2 1 0 0
0 0 0 0 0 0 0 1 5 8 11 19 29 36 39 36 29 22 18 14 11 8 7 7 6 6 5 4 3 3 3 3 2 1 0 0 0 0 0 0 0 1 2 2 1 1 0 0 0

GEFSSGP_con_prob3kmehi_144.txt.gz
EHI
0 0 0 0 0 0 0 0 1 3 5 10 17 18 12 6 3 2 4 17 35 38 24 15 15 16 13 10 7 5 2 1 2 6 11 14 14 13 12 9 6 3 1 0 0 0 0 0 0
0 0 0 0 0 0 0 0 2 3 6 14 24 26 19 9 4 2 6 22 43 46 32 21 20 18 14 10 7 4 3 2 2 4 8 11 10 9 10 8 5 2 1 0 0 0 0 0 0
0 0 0 0 0 0 0 1 5 7 13 24 32 32 22 10 5 6 14 34 53 52 38 31 29 24 16 12 8 5 4 3 2 2 4 6 5 5 6 5 3 1 1 0 0 0 0 0 0
0 0 0 0 0 0 0 3 8 15 23 34 40 34 23 15 16 21 30 45 56 52 41 38 38 31 22 18 13 8 6 6 4 3 3 2 2 2 2 2 1 0 0 0 0 0 0 0 0
0 0 0 0 0 0 2 6 13 23 33 43 47 39 29 27 35 41 43 47 53 50 45 45 47 41 31 26 22 16 11 9 7 6 4 2 2 3 3 2 1 0 0 0 0 0 0 0 0
0 0 0 0 0 1 3 9 17 25 35 43 47 43 34 35 46 53 50 47 49 50 49 48 49 46 39 32 27 23 17 13 10 8 6 4 5 6 6 4 2 1 0 0 0 0 0 0 0
0 0 0 0 0 1 4 10 15 21 28 34 41 43 36 35 46 54 53 48 45 46 46 43 38 37 36 32 28 26 23 19 15 11 9 7 6 6 5 4 3 2 0 0 0 1 1 0 0
0 0 0 0 0 1 5 9 14 18 20 23 31 37 36 38 46 53 53 46 40 37 36 33 27 25 26 25 25 24 23 22 19 16 12 9 5 2 2 2 2 1 0 0 0 1 1 0 0
0 0 0 0 1 3 6 10 14 17 19 22 26 31 35 41 49 55 53 44 34 28 25 24 21 18 18 18 18 17 17 17 17 15 14 10 5 1 0 1 1 0 0 0 0 1 1 0 0
0 0 0 0 1 4 7 10 12 15 19 22 25 29 33 40 49 54 50 41 31 23 19 16 14 14 15 16 13 11 10 12 11 11 11 8 4 1 0 1 1 0 0 0 1 1 1 0 0
0 0 0 0 1 4 8 11 13 14 16 17 21 27 31 36 43 46 43 35 29 24 18 12 9 10 12 14 12 9 8 9 7 6 5 3 2 1 0 1 1 0 1 1 2 3 3 1 0
0 0 1 2 3 5 9 15 18 16 13 13 17 23 30 34 37 38 35 31 29 28 23 14 10 8 9 11 10 8 8 7 5 2 1 0 0 0 0 0 0 0 1 1 2 4 3 1 0
0 1 2 4 6 9 13 18 22 19 16 16 18 23 30 35 36 36 34 32 32 33 28 21 15 12 10 11 10 7 7 6 4 2 0 0 0 0 0 0 0 0 0 0 1 2 1 0 0
1 1 2 5 7 11 17 20 20 18 18 21 24 26 30 35 38 38 37 37 36 35 31 25 20 17 16 15 12 8 6 5 3 1 1 0 0 0 0 0 0 0 0 0 0 0 0 0 0
2 2 2 3 4 8 13 17 15 16 21 27 30 31 32 36 38 39 39 39 37 34 30 26 23 18 16 15 12 9 6 3 1 1 1 0 0 0 0 0 0 0 0 0 0 0 0 0 0
1 2 1 1 1 3 8 10 10 16 27 34 35 35 36 36 36 37 38 38 35 32 28 25 22 18 16 14 12 9 5 1 0 0 0 0 0 0 0 0 0 0 0 0 0 0 0 0 0
1 1 1 0 0 2 5 8 10 17 29 37 38 38 37 34 32 34 36 36 33 28 24 22 21 19 16 13 10 7 4 1 0 0 0 0 0 0 0 0 0 0 0 0 0 1 0 0 0
2 2 2 1 1 1 5 11 16 19 26 36 39 39 36 32 30 32 34 33 30 24 19 18 19 17 12 8 6 4 3 1 0 0 0 0 0 0 0 0 0 0 0 0 0 0 0 0 0
1 2 1 1 1 1 6 16 21 22 25 33 39 40 36 31 31 31 30 28 25 20 16 16 16 11 5 2 1 2 2 2 1 0 0 0 0 0 0 0 0 0 0 0 0 0 0 0 0
0 0 0 1 1 3 8 16 22 22 23 29 36 37 33 29 28 27 25 23 20 16 14 14 11 5 1 0 0 1 1 1 1 0 0 0 0 0 0 0 0 0 0 1 0 0 0 0 0
0 0 0 1 3 6 9 12 16 19 22 26 31 31 29 26 23 22 21 20 16 14 12 10 5 2 0 0 0 0 0 0 0 0 0 0 0 0 0 0 0 0 0 0 0 0 0 0 0
0 0 1 3 5 6 6 6 10 17 25 29 29 29 28 25 21 19 19 17 13 12 11 8 4 1 0 0 0 0 0 0 0 0 0 0 0 0 0 0 0 0 0 0 0 0 0 0 0
0 0 1 2 3 3 2 2 5 12 21 27 28 27 26 24 21 18 16 14 11 10 9 7 5 2 0 0 0 0 0 0 0 0 0 0 0 0 0 0 0 0 0 0 0 0 0 0 0
0 0 0 1 1 1 1 1 2 6 11 18 23 24 23 22 21 19 17 13 10 9 9 8 6 3 0 0 0 0 0 0 0 0 0 0 0 0 0 0 0 0 0 0 0 0 0 0 0
0 0 0 0 0 0 0 1 2 4 7 12 18 21 20 21 22 21 18 13 10 9 8 8 5 2 0 0 0 0 0 0 0 0 0 0 0 0 0 0 0 0 0 0 0 0 0 0 0
0 0 0 0 0 0 0 1 3 5 8 10 15 18 20 21 21 19 14 10 9 8 7 6 4 1 0 0 0 0 0 0 0 0 0 0 0 0 0 0 0 0 0 0 0 0 0 0 0
0 0 0 0 0 0 0 1 3 5 7 10 13 17 19 20 18 13 9 6 6 6 6 4 3 1 0 0 0 0 0 0 0 0 0 0 0 0 0 0 0 0 0 0 0 0 0 0 0
0 0 0 0 0 0 0 1 1 3 6 9 13 17 18 17 13 8 4 2 3 4 4 3 2 1 0 0 0 0 0 0 0 0 0 0 0 0 0 0 0 0 0 0 0 0 0 0 0
0 0 0 0 0 0 0 0 0 1 4 8 12 15 16 13 9 4 1 0 1 3 3 3 2 1 0 0 0 0 0 0 0 0 0 0 0 0 0 0 0 0 0 0 0 0 0 0 0
0 0 0 0 0 0 0 0 0 1 4 7 11 13 13 10 6 3 1 0 1 2 3 3 1 0 0 0 0 0 0 0 0 0 0 0 0 0 0 0 0 0 0 0 0 0 0 0 0

GEFSSGP_con_prob3kmehi_150.txt.gz
EHI
0 0 0 0 0 0 0 0 0 0 1 3 4 5 6 5 2 0 0 1 5 7 7 8 11 14 15 17 23 32 38 43 47 50 51 48 43 36 26 14 5 2 1 2 3 3 2 2 3
0 0 0 0 0 0 0 0 1 1 2 4 8 11 11 9 3 0 0 3 7 8 7 8 12 15 15 17 22 28 34 38 41 43 46 46 43 38 27 14 6 3 2 2 3 3 3 3 3
0 0 0 0 0 0 0 0 2 4 3 5 10 14 15 10 4 0 2 5 8 8 6 9 16 19 17 18 20 25 30 32 31 32 35 39 41 38 29 16 7 4 2 2 3 3 3 3 3
0 0 0 0 0 0 0 1 3 5 4 5 9 14 14 9 3 2 4 7 9 8 6 10 19 24 22 20 20 23 26 27 27 27 27 29 32 33 28 18 10 5 2 1 1 1 1 2 2
0 0 0 0 0 0 0 1 4 5 4 6 11 16 15 10 7 7 8 9 11 12 11 12 20 25 26 26 24 23 23 25 27 27 23 21 22 25 23 18 13 7 2 0 0 0 0 1 1
0 0 0 0 0 0 0 1 3 5 6 9 15 20 17 13 13 13 11 10 13 18 18 17 21 24 26 28 28 25 22 23 27 26 21 17 17 18 17 14 11 7 3 1 0 0 1 1 0
0 0 0 0 0 0 0 0 1 4 7 9 15 21 19 16 16 16 13 11 13 19 23 23 22 21 23 25 26 24 21 22 23 21 18 15 15 14 13 12 10 7 5 3 1 2 3 2 1
0 0 0 0 0 0 0 0 2 5 7 8 10 16 21 24 25 22 18 14 13 15 19 21 20 19 20 22 23 21 18 18 18 17 15 15 13 11 10 10 9 7 5 4 3 4 5 4 2
0 0 0 0 0 0 0 1 3 6 9 9 10 18 30 38 38 32 25 20 16 13 13 13 14 17 20 21 20 17 14 14 14 14 14 14 12 10 8 8 7 5 3 3 3 5 5 3 1
0 0 0 0 0 0 0 1 3 6 8 10 17 32 45 47 39 31 25 21 17 13 9 8 9 14 17 17 16 13 11 11 11 12 13 12 9 7 6 5 4 3 2 2 2 3 4 2 1
0 0 0 0 0 0 1 2 3 4 4 7 22 43 51 42 29 22 18 15 12 10 7 5 5 8 9 10 11 10 7 6 7 8 9 7 4 4 4 4 2 1 2 2 1 2 3 2 2
0 0 1 1 1 2 4 7 8 7 4 9 25 43 44 33 22 15 12 9 8 7 6 3 2 3 4 5 6 6 3 3 4 4 4 3 1 1 1 1 1 1 1 1 1 1 2 2 2
0 0 2 3 3 4 7 12 14 12 11 19 33 40 38 30 23 16 11 9 8 6 5 2 1 1 1 2 3 3 2 2 3 2 2 1 0 0 0 0 1 1 2 2 1 0 1 2 3
0 0 2 4 5 4 7 13 15 13 16 27 36 38 34 29 24 18 13 11 9 5 3 2 1 0 0 1 2 2 1 2 2 1 1 1 0 0 0 0 1 2 3 3 2 0 0 1 2
0 0 2 4 4 2 4 9 11 11 18 26 29 31 31 26 21 18 15 13 10 6 3 2 2 1 0 0 1 1 1 1 1 0 0 0 0 0 0 0 1 2 3 3 1 0 0 0 1
0 0 1 3 3 1 1 4 6 9 16 20 21 25 27 23 19 17 16 14 12 7 4 3 2 1 0 0 0 0 0 0 0 0 0 0 0 0 0 0 0 1 3 2 1 0 0 0 0
0 0 1 2 2 1 0 1 4 7 12 15 18 22 25 23 20 18 16 15 11 7 5 5 4 2 1 1 0 1 1 1 0 0 0 0 0 0 0 0 0 1 2 2 1 0 0 0 0
0 0 1 2 1 0 0 1 5 7 10 15 18 20 22 22 20 17 14 12 9 8 7 8 7 3 2 2 1 2 2 1 0 0 0 0 0 0 0 0 0 0 1 1 0 0 0 0 0
0 0 1 1 0 0 0 2 6 9 12 15 17 18 19 19 17 13 10 9 10 9 9 8 5 3 3 2 1 1 2 1 0 0 0 0 0 0 0 0 0 0 0 0 0 0 0 0 0
0 0 0 0 0 0 0 2 6 9 12 15 15 15 16 17 15 12 10 10 11 10 7 4 2 1 1 1 0 0 0 0 0 0 0 0 0 0 0 0 0 0 0 0 0 0 0 0 0
0 0 0 0 0 0 0 2 5 7 9 10 10 11 13 15 14 11 11 10 10 9 6 2 0 0 0 0 0 0 0 0 0 0 0 0 0 0 0 0 0 0 0 0 0 0 0 0 0
0 0 0 0 0 0 0 1 2 4 4 4 5 8 12 14 12 11 11 10 10 8 5 1 0 0 0 0 0 0 0 0 0 0 0 0 0 0 0 0 0 0 0 0 0 0 0 0 0
0 0 0 0 0 0 0 0 1 1 1 2 4 8 13 12 9 9 11 11 10 7 3 1 0 0 0 0 0 0 0 0 0 0 0 0 0 0 0 0 0 0 0 0 0 0 0 0 0
0 0 0 0 0 0 0 0 0 0 1 2 6 10 12 10 7 8 10 11 10 6 2 0 0 0 0 0 0 0 0 0 0 0 0 0 0 0 0 0 0 0 0 0 0 0 0 0 0
0 0 0 0 0 0 0 0 0 1 2 3 6 10 10 6 4 7 10 10 9 6 2 1 0 0 0 0 0 0 0 0 0 0 0 0 0 0 0 0 0 0 0 0 0 0 0 0 0
0 0 0 0 0 0 0 0 0 1 2 3 4 6 6 5 4 8 10 10 8 5 2 1 0 0 0 0 0 0 0 0 0 0 0 0 0 0 0 0 0 0 0 0 0 0 0 0 0
0 0 0 0 0 0 0 0 0 1 1 1 1 2 4 4 5 8 9 8 7 4 1 0 0 0 0 0 0 0 0 0 0 0 0 0 0 0 0 0 0 0 0 0 0 0 0 0 0
0 0 0 0 0 0 0 0 0 0 0 0 0 2 3 4 5 6 6 5 4 2 0 0 0 0 0 0 0 0 0 0 0 0 0 0 0 0 0 0 0 0 0 0 0 0 0 0 0
0 0 0 0 0 0 0 0 0 0 0 0 1 3 4 4 4 4 3 2 1 0 0 0 0 0 0 0 0 0 0 0 0 0 0 0 0 0 0 0 0 0 0 0 0 0 0 0 0
0 0 0 0 0 0 0 0 0 0 0 0 1 3 5 4 3 2 1 0 0 1 1 1 0 0 0 0 0 0 0 0 0 0 0 0 0 0 0 0 0 0 0 0 0 0 0 0 0

GEFSSGP_con_prob3kmehi_156.txt.gz
EHI
0 0 0 0 0 0 0 0 0 0 0 0 0 0 0 0 1 3 4 4 4 6 5 2 4 8 16 29 40 44 41 37 32 25 18 14 11 8 5 2 1 0 0 0 0 0 0 0 0
0 0 0 0 0 0 0 0 0 0 0 0 1 1 1 0 1 5 8 6 4 5 4 2 3 7 15 27 38 42 42 39 35 29 22 15 10 7 4 1 0 0 0 0 0 0 0 0 0
0 0 0 0 0 0 0 0 0 0 1 1 2 2 2 2 3 8 9 7 4 4 3 4 4 7 12 22 34 39 40 39 36 31 25 17 10 4 2 1 0 0 0 0 0 0 0 0 0
0 0 0 0 0 1 1 0 0 1 2 3 3 3 5 6 7 10 10 6 5 4 3 5 6 6 9 15 25 33 36 36 34 31 27 21 13 5 2 1 1 1 0 0 0 0 0 0 0
0 0 0 0 0 2 2 1 1 1 3 4 4 5 9 13 15 15 13 9 6 4 5 7 7 6 7 9 14 24 31 33 33 32 30 25 16 8 4 3 2 1 1 0 0 0 0 0 0
0 0 0 0 1 3 3 2 2 2 3 3 4 8 16 23 24 21 17 12 7 5 6 8 7 6 6 6 8 15 25 31 33 34 31 24 16 9 5 3 2 3 2 1 0 0 0 0 0
0 0 0 0 2 3 3 2 2 2 1 2 4 10 24 34 32 25 20 14 9 7 7 7 6 5 5 6 7 12 21 29 33 33 27 20 12 8 6 3 2 3 3 2 1 0 1 0 0
0 0 0 0 1 2 2 2 1 1 1 3 5 11 28 43 42 33 26 18 12 9 7 6 4 3 3 5 7 12 18 23 25 24 20 14 8 6 5 5 5 4 3 2 2 1 1 0 0
0 0 0 0 0 1 1 2 1 1 2 6 10 19 37 52 50 40 31 24 18 11 7 5 4 3 2 5 9 12 13 13 14 14 13 8 4 3 4 8 11 7 3 3 3 3 2 1 0
0 0 0 0 0 1 2 2 1 1 3 7 15 32 50 57 51 39 31 25 20 14 7 5 5 4 4 6 11 13 10 8 8 8 9 7 4 4 7 14 14 7 2 2 3 3 2 1 0
0 1 1 1 1 2 3 3 2 2 3 6 17 39 54 55 44 32 24 20 17 15 10 6 5 5 4 7 10 12 10 9 7 6 7 8 8 8 13 16 12 6 3 3 3 3 2 1 0
0 1 2 2 1 2 3 4 5 5 5 8 19 37 49 46 35 25 19 17 16 18 16 10 8 7 7 8 10 10 10 10 9 7 6 8 10 12 15 17 13 9 7 6 6 6 4 2 1
1 1 1 2 3 4 5 7 9 10 11 14 22 34 41 38 29 22 20 20 21 22 21 16 14 14 12 11 11 9 8 10 11 11 9 9 12 12 14 18 16 12 10 10 10 9 7 6 5
2 2 2 2 3 4 5 8 11 13 15 18 24 32 34 31 26 22 21 23 24 23 21 19 20 20 16 14 12 10 10 11 12 13 11 10 11 12 13 15 14 10 9 11 11 10 9 10 10
1 3 4 4 3 2 4 7 10 13 15 17 23 30 31 27 23 21 22 23 24 23 20 19 21 22 20 17 15 13 12 11 10 9 8 7 8 9 10 9 9 8 8 8 9 10 11 11 11
0 2 3 3 2 1 2 5 9 11 12 15 22 28 28 24 20 20 21 22 24 24 23 21 21 23 23 20 18 15 11 8 6 5 4 3 4 6 7 7 7 8 8 7 8 10 12 11 11
0 0 2 2 1 0 1 5 8 10 11 15 21 24 24 21 19 20 21 22 23 24 25 25 24 25 24 21 16 11 7 5 4 4 3 3 3 3 4 5 7 8 8 7 8 10 12 13 13
0 0 1 1 1 0 1 4 8 10 11 14 17 19 19 18 18 20 23 24 23 24 25 26 26 26 25 20 13 7 5 4 4 4 4 3 3 3 3 3 5 7 8 8 7 8 10 12 12
0 0 1 1 0 0 1 2 6 9 10 10 12 14 15 16 16 19 23 24 23 23 25 25 24 25 23 18 11 7 4 5 5 4 3 3 2 2 3 3 4 5 7 7 5 5 6 7 7
0 0 1 0 0 0 0 1 4 8 8 8 9 13 15 15 15 18 20 22 23 22 23 22 21 21 20 15 10 7 6 7 6 5 4 3 3 3 4 4 4 4 5 5 5 5 3 2 3
0 0 0 0 0 0 0 1 3 6 7 7 9 13 16 16 16 18 20 22 23 21 21 20 18 19 18 15 10 8 8 8 7 6 5 4 4 4 4 4 4 5 4 5 7 7 4 2 2
0 0 0 0 0 0 0 0 2 4 6 7 8 13 18 18 18 19 20 22 21 18 18 19 18 18 18 16 13 11 9 7 7 7 7 5 4 3 3 2 3 4 5 6 7 6 4 4 3
0 0 0 0 0 0 0 0 1 3 4 6 8 14 20 21 18 16 17 18 18 16 18 20 19 19 18 17 16 13 9 8 8 9 9 7 5 3 2 1 2 2 3 4 4 4 4 4 4
0 0 0 0 0 0 0 0 0 1 2 5 9 16 21 20 16 13 13 14 16 18 20 20 20 20 18 17 15 13 11 11 12 12 9 7 6 4 3 2 2 2 2 3 3 3 4 4 4
0 0 0 0 0 0 0 0 1 2 4 7 12 17 19 17 14 12 12 13 17 20 21 20 19 19 17 15 14 13 12 12 13 12 9 7 7 6 5 3 3 4 4 3 3 4 5 4 4
0 0 0 0 0 0 0 0 2 5 6 8 13 16 15 13 13 13 14 15 19 20 19 18 18 17 14 12 12 11 10 11 11 10 7 7 8 6 4 3 3 3 3 2 2 3 4 5 5
0 0 0 0 0 0 0 0 2 4 6 8 12 13 12 11 13 13 14 16 18 18 16 15 15 13 10 9 9 8 7 7 8 6 4 5 6 4 2 1 1 1 1 0 1 1 2 3 4
0 0 0 0 0 0 0 0 1 3 5 6 8 9 10 11 12 12 12 14 16 15 12 10 10 9 7 7 7 6 5 4 4 3 2 3 3 2 0 0 0 0 0 0 0 0 0 1 2
0 0 0 0 0 0 0 0 1 4 8 8 7 6 8 9 9 8 9 11 12 12 9 6 6 6 6 6 6 5 3 2 2 2 1 1 1 0 0 0 0 0 0 0 0 0 0 0 1
0 0 0 0 0 0 0 0 2 6 11 12 7 5 6 7 6 5 6 7 9 9 7 5 4 5 6 6 6 5 2 1 1 1 1 0 0 0 0 0 0 0 0 0 0 0 0 0 0

GEFSSGP_con_prob3kmehi_162.txt.gz
EHI
0 0 0 0 0 0 0 0 1 1 1 0 1 5 8 9 6 4 8 21 37 35 24 24 27 22 12 6 3 2 0 0 0 0 0 0 0 0 0 0 0 0 0 0 0 0 0 0 0
0 0 0 0 0 0 0 1 2 2 1 0 2 5 8 8 7 8 13 24 33 29 21 23 28 24 15 9 6 3 1 0 0 0 0 0 0 0 0 0 0 0 0 0 0 0 0 0 0
0 0 0 0 0 0 0 1 2 1 1 1 4 7 7 7 8 12 17 23 26 22 19 24 29 26 18 12 9 5 2 0 0 0 0 0 0 0 0 0 0 0 0 0 0 0 0 0 0
0 0 0 0 0 0 1 1 1 1 1 3 9 13 12 8 10 13 15 19 20 20 20 24 30 28 19 11 9 6 3 1 1 0 0 0 0 0 0 0 0 0 0 0 0 0 0 0 0
0 0 0 0 0 0 1 1 2 3 4 7 16 26 22 13 12 11 11 15 21 24 22 24 31 29 18 10 7 6 4 2 2 1 0 0 0 0 0 0 0 0 0 0 1 0 0 0 0
0 0 0 0 0 1 1 2 3 4 6 12 23 31 27 17 13 11 12 18 27 30 25 23 27 25 17 11 7 5 4 3 3 2 2 1 0 0 0 1 0 0 0 0 1 1 1 0 0
0 0 0 0 1 3 3 2 3 5 9 14 22 28 26 21 17 15 17 23 31 32 26 20 18 17 15 11 8 5 4 5 4 3 2 1 0 0 0 1 1 1 1 1 2 2 2 1 0
0 0 0 0 2 4 5 4 4 8 12 16 23 27 29 28 23 21 23 27 31 31 25 17 13 12 12 10 9 7 7 8 5 2 1 1 0 0 1 3 3 4 4 3 2 2 2 2 1
0 0 0 0 2 4 5 5 6 10 15 22 31 36 37 34 29 27 29 30 31 29 23 16 13 12 11 10 10 10 9 9 6 3 2 2 1 1 3 7 12 11 7 5 4 3 3 3 1
0 0 0 1 2 3 3 5 7 10 17 28 36 41 39 34 31 32 33 34 32 28 22 16 14 13 13 12 12 10 9 9 7 5 5 4 3 3 6 15 23 19 11 7 6 6 5 4 3
0 0 0 1 2 2 3 5 8 12 20 28 32 33 32 30 30 33 37 37 35 29 23 19 17 18 21 22 17 12 12 13 10 10 11 8 5 5 10 20 25 21 13 9 9 10 9 7 7
0 0 1 1 2 2 4 7 11 16 23 27 26 25 27 29 31 35 39 41 39 33 27 24 26 30 38 40 31 22 22 21 19 20 18 14 11 9 13 22 24 18 12 10 13 15 14 13 12
0 0 1 1 2 3 5 9 14 18 23 25 24 23 27 33 36 40 45 47 45 39 34 34 40 47 53 54 46 37 34 31 31 31 27 20 18 16 15 21 25 20 14 12 16 18 19 20 19
0 0 1 1 2 3 5 8 14 18 20 23 25 24 29 36 42 47 52 53 52 48 45 46 52 57 58 54 49 43 40 38 39 38 32 25 22 20 17 18 24 24 17 15 18 20 21 23 24
0 0 0 1 1 2 4 8 13 17 19 24 28 29 33 40 46 52 57 58 58 57 55 52 52 54 52 46 43 43 42 40 40 39 34 28 23 20 16 14 18 20 17 17 20 21 22 22 22
0 0 0 0 0 1 4 8 13 17 19 24 30 33 38 43 48 53 57 57 57 57 56 51 47 48 48 44 44 45 44 41 39 38 34 27 22 17 13 11 12 14 14 15 17 20 23 22 20
0 0 0 0 0 0 3 8 13 16 17 22 29 34 38 42 46 50 52 52 53 53 53 49 46 47 48 47 48 48 46 43 39 36 33 27 21 15 11 10 10 12 13 12 14 20 24 24 22
0 0 0 0 0 0 3 8 13 14 15 19 27 32 34 38 43 47 48 47 48 50 50 46 44 46 47 48 49 48 46 41 37 34 32 28 21 15 12 11 12 14 13 11 13 17 21 22 22
0 0 0 0 0 1 4 8 11 13 14 20 26 29 31 34 40 45 47 45 43 45 46 44 42 43 46 48 49 48 44 39 34 33 32 29 24 18 13 13 15 16 14 12 12 13 15 15 15
0 0 0 0 0 1 5 8 10 13 16 21 25 28 30 34 40 46 47 44 43 43 43 43 42 42 45 48 48 45 41 36 32 31 31 28 24 19 16 15 16 16 14 12 12 11 11 10 9
0 0 0 0 0 1 3 5 9 13 17 20 26 30 31 34 41 47 47 44 44 44 43 42 41 42 43 44 42 40 36 31 28 28 29 25 21 19 18 16 14 13 13 13 12 11 9 9 9
0 0 0 0 0 0 1 3 7 14 18 20 24 27 29 32 39 44 44 42 43 43 42 41 40 39 40 38 37 35 32 27 24 25 25 22 19 19 19 16 13 11 11 11 10 8 8 8 8
0 0 0 0 0 0 0 1 6 14 20 21 22 24 25 30 35 38 37 37 39 40 40 39 38 36 36 35 34 33 30 26 22 21 22 20 18 17 17 16 13 10 9 9 8 7 6 6 6
0 0 0 0 0 0 0 2 6 13 18 21 24 26 27 30 33 33 32 34 35 35 36 36 36 34 33 32 31 30 28 24 19 19 19 17 15 14 12 12 10 8 7 8 7 6 5 5 5
0 0 0 0 0 0 0 2 6 10 14 21 27 32 32 31 31 31 31 34 34 33 34 35 34 32 30 28 27 26 23 20 16 14 14 12 10 9 8 7 6 5 5 6 6 4 4 4 4
0 0 0 0 0 0 0 3 7 10 16 22 29 33 32 29 29 30 31 33 33 32 33 32 30 27 24 21 21 21 20 17 13 10 9 7 6 5 4 4 3 2 2 4 4 4 3 3 3
0 0 0 0 0 0 0 2 5 10 18 26 30 32 28 25 26 28 29 31 31 30 29 28 26 21 17 15 16 16 16 14 11 8 6 5 5 3 2 2 2 1 2 4 5 4 3 3 3
0 0 0 0 0 0 0 1 3 8 16 25 28 28 26 24 25 25 25 28 28 26 25 24 21 16 12 11 12 11 11 10 9 9 7 6 6 5 3 3 2 2 3 4 4 4 3 2 1
0 0 0 0 0 0 0 1 4 9 16 22 25 25 24 24 24 24 24 26 25 22 20 19 17 13 9 8 9 9 8 7 8 9 7 6 6 5 4 3 3 3 2 2 2 1 1 1 0
0 0 0 0 0 0 0 1 6 12 17 21 24 25 24 23 23 23 25 25 22 17 16 16 14 11 8 6 7 8 7 7 8 8 7 6 6 5 4 3 3 3 2 1 0 0 0 0 0

GEFSSGP_con_prob3kmehi_168.txt.gz
EHI
0 0 0 0 0 0 0 0 1 4 7 11 17 21 18 9 4 1 1 5 13 19 19 24 29 27 22 17 12 7 4 3 2 3 3 2 3 6 8 7 5 3 2 1 0 0 0 0 0
0 0 0 0 0 0 0 0 2 6 12 18 25 27 21 13 7 3 1 6 18 22 20 24 33 32 23 18 14 8 5 3 3 2 1 1 2 4 5 4 3 2 1 1 0 0 0 0 0
0 0 0 0 0 0 0 0 4 11 18 25 30 30 22 14 10 7 5 12 24 26 21 27 37 35 27 21 16 11 6 4 3 2 1 0 1 2 2 1 1 0 0 0 0 0 0 0 0
0 0 0 0 0 0 0 2 9 18 24 27 30 28 20 14 14 15 15 21 30 30 26 33 41 37 31 25 19 13 9 6 4 3 2 1 0 1 1 0 0 0 0 0 0 0 0 0 0
0 0 0 0 0 0 0 3 13 23 27 29 31 27 20 18 23 26 24 26 33 35 33 39 43 39 33 28 22 17 13 9 6 5 4 3 1 1 0 0 0 0 0 0 0 0 0 0 0
0 0 0 0 0 0 1 4 14 23 26 27 29 25 19 22 27 27 24 25 32 37 37 39 41 38 34 29 24 20 17 13 10 9 8 5 3 2 1 0 0 0 0 0 0 0 0 0 0
0 0 0 0 0 1 2 5 13 21 23 22 23 21 19 22 25 26 26 27 32 35 35 35 34 33 32 28 24 22 21 18 14 12 10 6 4 3 2 2 1 0 0 0 0 0 0 0 0
0 0 0 0 0 1 4 7 12 19 23 20 17 17 20 24 28 34 36 33 31 30 29 28 27 26 26 24 23 23 23 20 15 10 8 4 3 2 2 2 2 1 0 0 1 1 1 0 0
0 0 0 0 1 3 5 8 12 20 26 25 20 20 25 30 38 48 46 35 28 25 22 21 21 21 20 19 18 17 18 17 12 6 4 2 1 1 1 1 2 2 1 1 2 3 2 1 0
0 0 0 1 2 3 4 5 11 21 28 27 25 27 30 34 42 51 48 35 25 20 16 15 15 16 15 13 11 8 8 9 7 4 2 1 0 0 0 1 2 2 1 1 2 4 3 1 0
0 0 0 1 3 4 3 4 10 20 24 23 24 28 31 33 39 45 43 33 23 18 15 12 11 10 9 8 6 4 2 3 3 2 2 1 0 0 0 0 1 1 0 0 1 1 1 0 0
0 0 0 1 3 4 4 4 9 15 18 20 24 28 29 29 33 37 37 31 25 20 17 14 12 9 7 7 6 4 2 1 0 0 1 1 1 0 0 0 0 0 0 0 0 0 1 1 0
0 0 0 1 3 5 4 5 8 12 17 24 29 30 29 27 30 33 34 32 28 25 21 18 15 13 12 11 10 6 3 1 0 1 2 2 2 1 1 0 0 0 0 0 0 0 1 2 1
0 0 0 1 2 3 4 5 9 13 20 28 32 32 30 30 33 36 36 34 31 28 27 24 21 18 18 18 14 9 5 2 2 4 4 3 2 2 2 1 0 0 0 0 0 0 1 2 2
1 1 0 0 1 2 4 6 9 14 21 27 29 30 31 33 37 39 39 37 33 31 31 28 25 23 24 23 19 15 11 8 8 8 6 5 4 4 4 3 2 1 1 0 0 0 0 1 1
0 0 0 0 0 1 3 6 10 16 22 24 24 27 31 35 39 40 38 38 36 34 32 30 28 27 27 24 20 17 15 14 13 12 10 9 8 8 7 5 3 3 2 1 0 0 0 0 0
0 0 0 0 0 1 2 6 12 19 23 23 23 24 28 33 37 37 36 37 35 33 31 30 30 30 28 24 19 16 14 14 14 13 12 11 11 11 9 7 4 3 3 2 1 1 0 0 0
0 0 0 0 0 1 4 8 14 21 24 25 24 25 27 29 31 32 33 33 32 31 30 30 31 30 27 23 20 17 13 11 11 11 11 11 12 12 10 7 4 3 4 3 2 1 0 0 0
0 0 0 0 0 2 6 9 13 18 22 24 26 26 26 25 26 29 30 29 30 30 30 30 30 28 25 22 21 19 14 11 10 9 9 10 11 11 9 6 4 4 4 3 2 1 0 0 0
0 0 0 0 0 2 4 7 10 13 16 19 23 24 23 23 24 27 27 27 28 30 31 29 27 25 22 20 20 18 15 12 9 7 7 9 9 8 6 5 4 3 3 2 1 0 0 0 0
0 0 0 0 0 1 2 4 7 9 10 12 16 18 20 22 24 24 21 21 23 27 29 27 24 21 20 19 19 17 15 12 9 7 7 7 7 6 4 4 3 3 3 1 0 0 0 0 0
0 0 0 0 0 0 1 2 4 5 6 8 10 14 17 20 22 20 17 17 19 22 25 25 23 21 20 19 18 16 14 10 7 6 6 5 5 4 4 4 3 3 2 1 0 1 1 1 0
0 0 0 0 0 0 0 1 1 2 4 6 11 14 16 18 19 16 15 16 17 20 23 22 21 20 19 18 17 15 12 8 5 4 4 4 4 4 4 4 3 2 1 1 1 2 2 1 0
0 0 0 0 0 0 0 0 0 1 4 9 12 14 14 14 15 14 15 16 19 22 23 19 16 16 16 15 14 12 10 7 5 4 4 4 4 4 3 2 1 1 1 1 1 1 1 0 0
0 0 0 1 0 0 0 0 0 1 5 10 12 12 11 9 11 12 14 16 19 22 21 16 13 13 12 11 10 10 8 7 6 5 4 4 4 3 2 1 0 0 0 1 1 0 0 0 0
0 0 0 0 0 0 0 0 0 2 6 10 12 12 10 8 8 11 13 14 16 16 15 13 12 11 10 9 8 8 8 7 6 5 5 4 3 1 1 0 0 0 0 0 0 0 0 0 0
0 0 0 0 0 0 0 0 0 2 5 8 11 12 11 10 10 10 11 11 11 10 8 9 9 9 7 6 6 7 7 6 5 5 5 4 2 1 0 0 0 0 0 0 0 0 0 0 0
0 0 0 0 0 0 0 0 0 1 2 4 8 10 10 10 10 10 9 9 8 6 5 5 6 6 5 4 4 4 4 3 2 3 3 3 3 1 0 0 0 0 0 0 0 0 0 0 0
0 0 0 0 0 0 0 0 0 1 1 1 3 5 6 7 7 8 8 7 7 6 5 4 4 4 4 3 3 3 3 1 0 1 1 2 2 1 0 0 0 0 0 0 0 0 0 0 0
0 0 0 0 0 0 0 0 1 2 2 1 0 2 4 5 6 7 7 7 7 6 5 4 3 3 3 3 3 3 3 2 1 0 0 1 1 0 0 0 0 0 0 0 0 0 0 0 0

GEFSSGP_con_prob3kmehi_174.txt.gz
EHI
0 0 0 0 0 0 0 0 0 0 0 0 1 0 0 1 0 0 0 1 3 7 11 17 25 29 28 24 23 25 26 27 28 29 29 29 28 25 20 17 14 9 6 4 2 2 1 0 0
0 0 0 0 0 0 0 0 0 0 1 1 2 1 2 2 1 0 0 1 6 10 14 19 26 29 28 25 23 25 26 26 25 25 24 23 24 23 19 15 12 8 6 4 2 1 0 0 0
0 0 0 0 0 0 0 0 0 2 3 3 3 4 6 5 3 1 2 5 10 13 15 22 29 31 27 25 24 24 25 23 22 21 19 17 17 17 15 13 10 8 6 5 3 1 0 0 0
0 0 0 0 0 0 0 0 2 5 5 3 3 6 9 8 3 1 5 10 13 14 15 22 32 35 30 26 24 22 21 19 18 18 16 15 13 12 11 10 8 6 5 5 3 1 0 0 0
0 0 0 0 0 0 0 2 6 9 7 3 4 7 10 7 4 4 9 12 14 16 18 24 33 37 34 29 25 21 17 16 17 16 16 15 13 11 10 8 6 4 3 2 1 0 0 0 0
0 0 0 0 0 1 1 4 9 10 8 4 4 8 9 7 6 9 12 12 13 17 22 26 31 35 36 34 29 23 17 15 16 15 15 15 12 10 9 7 4 2 1 0 0 0 0 0 0
0 0 0 0 0 2 3 6 10 11 8 4 5 8 8 7 10 15 16 13 13 16 21 24 27 29 33 35 31 25 20 17 16 14 14 13 11 8 7 6 5 2 0 0 0 0 0 0 0
0 0 0 0 0 2 4 7 12 14 11 8 6 5 8 13 19 22 22 19 15 14 16 19 22 24 27 29 28 25 22 20 18 15 14 12 8 6 5 5 6 4 2 1 0 0 0 0 0
0 0 0 0 0 2 5 9 14 17 15 12 8 6 12 24 30 30 29 25 18 13 12 15 19 22 23 24 24 25 23 19 16 14 13 11 6 4 4 3 4 4 3 3 1 1 1 1 1
0 0 0 0 0 2 5 10 15 18 17 12 9 12 21 31 34 33 30 25 18 13 12 14 19 23 22 20 20 22 20 15 11 10 9 8 5 4 3 2 2 3 5 5 3 3 2 2 2
0 0 0 0 1 3 5 9 13 16 14 10 11 19 27 32 33 31 27 22 16 13 14 16 20 22 20 17 16 17 15 10 7 5 6 6 5 3 3 2 1 3 4 4 4 4 3 3 2
1 1 1 1 2 3 4 7 10 11 10 9 14 23 28 30 30 28 24 19 15 13 13 15 18 20 19 17 16 14 11 7 5 4 4 4 3 2 2 2 2 1 1 2 3 3 2 1 1
2 2 2 2 2 2 4 6 8 7 9 13 19 25 27 28 28 25 21 19 18 15 12 13 15 17 17 15 15 13 9 5 3 3 3 3 2 0 1 1 1 1 0 1 2 1 0 0 0
3 3 2 2 2 2 4 7 8 8 12 18 24 26 28 28 29 26 21 21 22 19 14 11 11 11 11 11 11 10 7 3 2 2 4 3 2 0 0 0 1 0 0 1 1 1 0 0 0
3 3 2 1 2 2 4 6 7 9 13 18 22 27 30 31 30 28 22 20 22 20 14 9 8 6 5 5 5 5 4 2 2 3 4 4 2 1 0 1 1 1 0 0 0 0 0 0 0
1 2 2 1 1 1 2 3 3 7 11 14 18 26 31 30 27 23 19 17 18 17 12 8 5 3 2 2 2 1 1 1 1 2 2 3 2 1 0 1 2 1 1 1 0 0 0 0 0
0 1 1 0 0 0 1 1 2 4 7 10 16 24 27 24 19 16 15 14 15 14 10 6 3 1 1 1 0 0 1 1 0 0 1 1 1 0 1 1 1 1 1 2 1 0 0 0 0
0 0 0 0 0 0 1 2 2 3 3 6 12 19 21 17 13 11 11 11 12 12 9 5 3 1 1 1 1 2 3 3 1 1 1 1 0 1 1 1 1 1 2 2 1 0 0 0 0
0 0 0 0 0 0 1 2 2 2 2 3 8 13 14 11 9 9 10 9 9 11 10 7 5 3 4 4 4 5 6 5 3 2 2 2 1 1 2 2 2 2 3 2 1 0 0 0 0
0 0 0 0 0 0 0 1 1 1 1 1 4 9 10 9 9 10 10 8 7 9 11 10 8 6 6 6 7 6 6 4 3 3 3 3 3 2 1 1 3 3 3 3 2 1 0 0 0
0 0 0 0 0 0 0 0 0 0 0 0 2 5 8 10 11 11 11 9 6 6 10 11 10 8 7 7 6 6 4 4 3 3 3 3 3 2 1 1 2 3 3 3 2 1 0 0 0
0 0 0 0 0 0 0 0 0 0 0 0 0 2 5 8 9 9 9 8 5 5 8 10 9 8 7 7 6 5 4 4 3 3 3 3 3 1 0 0 1 2 3 2 1 0 0 0 0
0 0 0 0 0 0 0 0 0 0 0 0 0 0 2 4 7 7 6 5 5 5 7 8 8 7 7 6 6 5 4 4 3 3 3 3 2 1 0 0 1 2 2 2 1 0 0 0 0
0 0 0 0 0 0 0 0 0 0 0 0 0 0 1 3 4 5 4 3 4 6 7 8 7 6 6 5 5 5 5 4 3 3 3 2 1 0 0 0 0 1 2 1 0 0 0 0 0
0 0 0 0 0 0 0 0 0 0 0 0 0 1 2 3 3 2 3 3 5 7 8 8 7 6 5 4 4 4 4 3 2 2 2 1 0 0 0 0 0 1 2 1 0 0 0 0 0
0 0 0 0 0 0 0 0 0 0 0 0 0 2 3 4 2 2 3 4 6 7 7 7 7 6 4 3 3 3 3 2 1 1 1 0 0 0 0 0 0 0 1 1 0 0 0 0 0
0 0 0 0 0 0 0 0 0 0 0 0 0 1 2 3 3 3 4 5 6 5 4 4 5 4 3 3 3 3 3 2 1 0 0 0 0 0 0 0 0 0 0 0 0 0 0 0 0
0 0 0 0 0 0 0 0 0 0 0 0 0 0 1 2 3 3 4 4 3 2 1 2 3 3 3 3 3 3 3 3 1 0 0 0 0 0 0 0 0 0 0 0 0 0 0 0 0
0 0 0 0 0 0 0 0 0 0 0 0 0 1 1 2 3 3 2 2 1 0 1 1 3 3 3 3 3 3 3 3 2 1 0 0 0 0 0 0 0 0 0 0 0 0 0 0 0
0 0 0 0 0 0 0 0 0 0 0 0 0 1 1 2 3 3 1 0 0 1 2 2 3 3 3 3 3 3 3 3 2 1 0 0 0 0 0 0 0 0 0 0 0 0 0 0 0

GEFSSGP_con_prob3kmehi_180.txt.gz
EHI
0 0 0 0 0 0 0 0 0 0 0 0 0 0 0 0 0 0 1 3 6 12 17 17 15 13 12 11 14 20 24 25 27 29 25 22 20 16 11 7 5 4 2 1 0 0 0 1 1
0 0 0 0 0 0 0 0 0 0 0 0 0 0 0 0 0 0 1 4 7 11 15 18 19 16 12 10 15 21 24 25 26 26 25 22 19 15 11 9 8 7 4 2 0 0 0 1 2
0 0 0 0 0 0 0 0 0 0 0 0 0 0 1 1 1 2 4 7 8 8 13 21 24 20 13 11 14 20 24 26 26 24 24 23 19 15 12 10 9 8 6 3 1 0 0 1 1
0 0 0 0 0 0 0 0 0 0 0 0 1 2 3 3 3 5 8 10 9 8 13 23 26 21 15 13 15 20 24 26 26 24 24 22 18 14 12 11 9 7 6 4 2 1 0 0 0
0 0 0 0 0 0 0 0 0 1 1 0 1 3 5 6 8 9 10 11 10 9 14 23 27 22 16 15 19 22 23 24 25 24 23 21 16 13 12 11 9 7 6 4 3 1 0 0 0
0 0 0 0 0 0 0 0 1 2 1 0 1 3 6 10 14 14 13 12 12 11 14 21 24 20 17 18 21 23 24 24 22 21 20 17 14 13 13 11 8 7 6 4 2 1 0 0 0
0 0 0 0 0 0 0 1 2 2 2 1 1 4 9 17 22 21 18 16 14 13 15 19 20 18 17 19 22 23 23 21 17 15 13 12 12 12 10 7 5 5 4 3 1 1 0 0 0
0 0 0 0 0 0 1 3 5 4 4 3 3 5 13 26 34 33 27 22 19 17 18 19 19 16 16 19 23 25 22 17 12 10 10 9 8 7 5 3 3 3 2 1 0 0 0 0 0
0 0 0 0 0 0 2 5 7 7 6 5 5 8 19 35 45 43 38 31 26 23 21 20 19 17 16 17 21 22 19 13 9 8 8 7 5 4 2 3 4 3 2 1 1 0 0 0 1
0 0 0 0 0 1 4 5 6 6 6 7 9 14 25 39 48 47 42 35 31 28 25 21 20 20 18 16 16 15 13 10 8 7 7 7 5 3 3 5 6 4 3 2 2 1 0 1 2
1 0 0 0 0 2 5 6 5 4 4 6 11 19 27 37 45 45 39 33 30 29 26 23 23 23 22 17 12 10 10 9 8 7 9 9 8 6 6 8 8 5 4 4 4 3 1 1 3
1 1 1 1 1 3 6 7 7 5 4 6 12 20 25 30 36 36 31 28 27 26 25 24 25 27 25 19 14 11 12 11 10 10 12 12 12 10 10 11 10 8 6 6 6 5 2 2 3
1 2 2 3 3 5 8 9 8 6 5 7 13 19 22 22 24 25 24 24 25 25 26 26 27 29 29 24 18 14 14 13 13 14 14 14 14 14 13 13 12 10 8 7 6 5 4 5 6
1 2 3 4 4 5 8 9 7 5 5 7 12 16 18 17 18 19 21 24 27 28 28 28 28 30 31 27 21 17 16 17 17 16 14 13 14 13 12 12 11 10 9 9 8 7 7 8 9
0 1 2 3 3 4 5 6 6 5 5 6 11 15 17 18 17 18 21 24 27 28 29 28 27 29 31 30 25 21 20 20 19 16 13 11 11 11 11 10 9 11 11 13 13 11 9 10 10
0 0 1 1 2 2 2 4 5 5 5 7 12 16 19 19 16 17 21 23 25 28 31 31 30 31 33 34 31 26 24 22 18 15 12 10 9 10 10 9 9 12 15 16 15 12 10 10 11
0 0 0 0 1 1 1 3 5 5 4 6 10 14 17 16 14 15 19 23 26 30 33 35 34 33 34 36 34 28 23 18 14 12 11 10 9 9 9 8 9 12 14 15 12 11 10 9 10
0 0 0 0 0 0 0 1 3 3 2 3 6 9 11 13 14 15 17 20 25 30 33 35 36 35 33 33 32 25 18 13 10 9 8 8 7 7 7 8 8 10 12 11 10 10 8 7 9
0 0 0 0 0 0 0 1 2 2 1 1 3 5 8 11 14 16 17 20 24 28 30 31 33 33 33 31 27 21 14 10 9 8 6 5 5 5 5 6 8 9 9 9 9 8 7 7 7
0 0 0 0 0 0 1 2 2 1 0 1 3 6 9 11 14 16 18 20 23 25 24 25 26 29 30 27 22 17 13 10 8 8 8 6 6 5 4 5 6 6 6 6 7 8 7 6 6
0 0 0 0 0 0 1 1 1 0 0 1 5 8 10 12 13 14 16 18 19 18 18 20 22 25 25 22 17 15 14 11 9 10 10 7 6 5 4 5 5 5 5 6 6 6 6 5 6
0 0 0 0 0 0 0 0 0 0 0 1 5 9 12 13 12 12 15 16 15 14 14 17 20 22 23 21 17 16 16 14 13 13 10 7 5 4 4 5 4 5 6 6 4 3 4 5 5
0 0 0 0 0 0 0 0 0 1 1 1 4 8 11 13 11 12 16 19 17 14 15 17 17 18 20 20 18 17 17 17 16 15 11 8 5 4 4 4 4 5 5 4 2 2 4 5 6
0 0 0 0 0 0 0 0 0 1 1 2 3 6 9 9 10 12 17 21 20 18 19 19 17 17 18 17 16 15 15 15 14 13 10 7 6 5 4 3 3 3 2 1 1 2 4 5 6
0 0 0 0 0 0 0 0 0 1 1 3 5 6 8 8 9 12 18 21 20 19 20 20 18 16 16 15 13 12 11 10 8 7 6 6 6 6 5 4 3 2 1 1 1 3 3 4 4
0 0 0 0 0 0 0 0 1 1 1 3 6 7 8 8 9 12 16 18 17 16 17 17 15 13 11 11 10 9 9 7 5 3 3 4 4 4 5 4 3 2 2 2 3 3 3 4 4
0 0 0 0 0 0 0 0 1 2 2 4 7 8 7 7 8 9 12 15 14 13 13 13 11 8 5 6 7 7 7 6 4 3 3 3 3 3 3 2 1 2 2 2 2 3 3 4 4
0 0 0 0 0 0 0 0 1 1 1 3 7 8 6 6 6 6 8 10 11 10 11 11 8 6 4 4 5 5 4 4 4 4 3 3 3 3 1 0 0 1 1 1 1 1 2 2 3
0 0 0 0 0 0 0 0 0 0 0 2 5 6 6 5 6 6 6 7 7 8 8 8 7 5 4 3 3 3 3 3 4 3 3 3 3 2 1 0 0 0 0 0 0 0 0 0 1
0 0 0 0 0 0 0 0 0 0 0 1 3 5 5 5 6 6 6 5 5 5 7 6 5 4 4 3 2 1 2 3 3 3 3 3 2 1 0 0 0 0 0 0 0 0 0 0 0

GEFSSGP_con_prob3kmehi_186.txt.gz
EHI
0 0 0 0 0 0 0 0 0 0 0 0 0 2 5 5 5 7 11 21 35 37 30 29 29 23 13 6 4 2 2 2 1 0 0 0 1 2 3 3 2 1 0 0 0 0 0 1 1
0 0 0 0 0 0 0 0 0 0 0 0 1 3 5 4 4 7 11 21 32 32 27 28 31 25 15 8 6 4 3 3 2 2 2 1 1 2 3 4 3 2 1 1 0 0 1 2 2
0 0 0 0 0 0 0 0 0 0 0 0 2 6 6 5 5 7 11 20 28 29 28 32 35 29 19 12 8 5 4 3 3 4 4 4 3 4 5 5 4 3 3 2 1 0 1 2 3
0 0 0 0 0 0 0 0 0 0 1 2 6 9 9 6 5 8 12 17 25 31 34 38 40 34 23 16 10 7 5 5 4 4 5 5 6 6 6 7 5 4 3 3 1 1 1 3 3
0 0 0 0 0 0 0 0 0 1 2 5 9 12 12 9 7 8 10 13 24 36 41 40 41 38 29 22 16 10 7 6 5 5 6 7 8 8 8 8 7 5 4 4 3 2 2 3 4
0 0 0 0 0 0 0 0 0 1 3 5 11 16 15 11 10 10 9 11 24 39 43 39 39 38 33 28 21 14 8 6 6 7 9 10 11 11 9 9 8 7 6 4 3 3 2 3 5
0 0 0 0 0 1 1 1 2 3 4 6 10 16 17 15 14 13 11 12 25 39 41 36 34 35 33 29 25 20 14 10 9 11 12 13 13 11 9 8 8 8 7 6 4 4 4 4 6
0 0 0 0 1 2 2 3 5 7 9 8 10 16 21 22 19 18 19 21 29 38 36 32 32 32 29 27 27 26 22 17 15 14 15 15 12 9 8 8 9 10 9 9 8 8 7 7 7
0 0 0 0 2 3 4 4 7 10 12 11 13 21 28 29 25 25 29 33 37 37 30 27 30 30 26 25 28 29 26 20 15 13 14 12 9 7 7 10 14 16 15 14 13 12 11 10 9
0 0 0 1 3 4 4 5 8 10 11 12 19 27 32 31 28 29 34 40 41 35 26 22 25 27 25 27 32 31 25 19 14 11 12 12 9 7 8 14 21 23 21 18 16 15 13 10 8
0 0 0 2 3 3 4 6 8 9 11 17 25 31 31 28 26 28 34 40 40 34 26 22 22 24 26 31 35 32 25 22 19 16 17 17 14 13 15 20 25 25 22 19 18 17 13 9 7
0 0 1 1 3 3 5 7 10 12 15 20 26 28 28 25 24 26 32 38 39 35 31 29 29 30 32 35 34 30 29 29 28 26 26 25 22 20 22 25 25 23 20 18 19 19 14 9 7
0 1 2 3 4 5 6 8 11 14 16 17 17 20 24 26 26 27 32 38 41 41 38 37 40 43 42 40 35 31 32 33 32 30 29 29 27 24 24 26 25 20 17 17 17 17 14 10 8
0 1 2 5 7 7 7 7 9 13 14 10 8 13 20 27 31 33 36 41 46 47 46 46 49 50 48 45 42 37 35 34 32 32 32 30 27 25 25 25 23 18 15 16 16 14 13 11 10
0 0 1 4 6 6 5 4 6 10 10 7 6 12 19 27 35 40 43 46 49 51 52 51 51 51 50 48 46 43 39 36 34 34 33 30 28 26 25 24 21 17 15 16 15 14 13 12 12
0 0 0 1 2 2 2 4 6 8 8 8 10 14 20 27 36 42 45 48 51 52 52 50 48 48 49 48 46 44 40 38 37 35 32 28 25 24 22 21 19 16 15 15 13 12 13 13 11
0 0 0 0 0 0 1 4 7 7 7 9 12 16 21 28 35 39 41 46 50 50 48 45 45 47 47 46 44 43 40 37 36 35 31 26 22 20 18 18 18 16 13 12 11 11 13 12 9
0 0 0 0 0 0 1 4 6 6 5 7 11 16 23 29 35 37 38 41 45 46 44 41 41 45 45 42 40 39 36 33 31 31 30 26 23 19 15 15 16 16 13 12 12 12 11 9 7
0 0 0 0 0 0 1 3 5 5 4 5 10 16 22 28 33 35 35 36 38 40 40 37 36 38 38 38 36 34 31 27 25 25 25 23 22 19 14 12 14 15 14 13 11 10 9 7 5
0 0 0 0 0 0 1 3 6 6 6 6 11 16 21 26 30 32 34 35 35 35 34 32 30 28 28 29 30 28 26 23 21 20 19 18 18 17 14 13 14 14 12 9 8 7 5 4 2
0 0 0 0 0 0 1 3 5 7 7 7 10 14 18 22 26 30 33 34 34 33 30 28 26 24 22 22 22 21 22 20 17 17 17 17 17 15 14 12 12 11 8 6 6 5 3 1 1
0 0 0 0 0 0 1 2 4 7 8 7 8 12 15 18 23 29 33 33 32 30 28 26 24 22 21 19 18 17 16 15 15 16 16 16 15 13 11 9 9 8 7 6 5 4 2 1 0
0 0 0 0 0 0 0 0 2 6 8 7 8 11 13 17 22 28 31 31 29 28 28 26 23 22 21 19 18 16 12 11 12 13 13 12 11 10 7 6 6 6 6 5 4 4 3 2 1
0 0 0 0 0 0 0 0 2 6 7 7 9 12 15 19 23 27 29 28 26 27 27 24 21 21 21 19 16 13 10 8 7 9 10 9 7 6 5 4 4 5 4 3 3 4 4 2 1
0 0 0 0 0 0 0 0 2 5 7 9 10 13 17 21 23 23 23 22 21 23 23 21 19 19 19 16 13 9 7 6 5 5 7 6 5 4 4 3 3 3 2 1 1 3 4 4 2
0 0 0 0 0 0 0 0 2 6 10 11 11 14 17 18 18 17 16 15 16 18 19 19 17 16 15 13 10 7 5 4 3 4 4 4 3 3 3 3 3 3 3 1 1 2 4 4 3
0 0 0 0 0 0 0 1 3 7 10 10 10 12 14 14 13 12 12 11 13 14 15 15 14 15 14 12 9 6 4 3 3 3 4 3 3 3 3 3 3 3 3 2 1 2 2 2 2
0 0 0 0 0 0 0 1 3 6 8 8 8 10 13 13 12 12 12 12 12 12 14 13 12 13 12 10 8 6 4 3 3 4 4 4 3 3 3 3 3 3 3 3 3 2 1 1 2
0 0 0 0 0 0 0 0 1 4 6 6 6 9 13 13 12 13 13 12 11 12 13 12 11 12 11 9 8 7 5 4 3 3 4 3 3 3 3 3 3 3 3 3 3 3 2 1 2
0 0 0 0 0 0 0 0 1 3 4 5 6 8 11 11 11 13 13 10 9 11 11 11 12 12 11 9 9 8 6 4 3 3 3 3 3 3 3 3 3 3 3 3 3 3 2 1 1

GEFSSGP_con_prob3kmehi_192.txt.gz
EHI
0 0 0 0 0 0 0 0 0 0 1 1 0 1 3 4 4 3 3 7 15 21 23 31 43 45 39 30 23 18 16 15 13 11 10 9 7 5 5 6 6 5 2 0 0 0 0 0 1
0 0 0 0 0 0 0 0 0 1 2 2 2 2 4 5 5 4 5 12 19 21 21 29 42 45 40 33 26 21 17 16 14 12 10 8 6 3 3 3 3 2 1 0 0 0 0 1 2
0 0 0 0 0 0 0 0 1 3 4 5 5 4 4 5 5 5 8 16 21 19 18 28 41 45 40 36 31 25 21 18 17 13 9 7 5 4 3 2 1 1 1 0 0 0 0 1 2
0 0 0 0 0 0 0 1 3 5 6 7 7 6 6 7 7 9 13 19 21 18 17 26 40 44 40 36 33 30 26 23 20 14 8 6 6 5 4 3 3 2 1 0 0 0 0 1 1
0 0 0 0 0 0 0 2 6 8 9 10 11 10 8 9 13 18 20 23 25 22 19 25 37 43 41 36 33 31 29 26 22 16 10 7 6 5 4 3 3 3 2 1 1 0 0 0 0
0 0 0 0 0 0 1 4 9 11 12 14 17 15 11 12 18 20 21 24 27 26 23 25 33 40 40 37 35 32 28 25 21 18 14 10 8 6 5 4 4 4 4 4 3 2 2 1 1
0 0 0 0 0 0 1 6 11 14 15 16 18 17 13 15 18 19 21 25 27 27 26 25 28 33 35 36 36 33 28 24 21 19 17 14 11 8 7 7 6 6 6 7 6 5 5 4 2
0 0 0 0 0 0 1 5 12 15 16 16 15 14 16 20 23 26 29 29 28 26 25 24 24 26 29 31 33 33 28 24 21 20 18 15 12 10 9 9 8 7 8 9 8 7 6 4 3
0 0 0 0 0 0 1 5 9 13 17 17 16 17 23 29 32 35 38 35 30 24 21 22 22 23 25 27 29 30 27 23 21 20 17 14 13 12 11 10 9 10 10 10 8 6 6 4 3
0 0 0 0 0 1 3 5 7 10 14 18 22 25 29 32 33 35 38 37 30 24 19 19 20 22 23 25 27 27 24 21 20 19 17 14 13 13 11 8 8 9 10 9 6 6 6 5 3
0 0 0 0 1 1 3 6 8 9 10 16 25 29 30 28 27 29 32 32 29 25 21 18 19 21 23 24 25 25 23 20 19 18 16 13 12 12 9 5 4 5 5 6 6 6 6 5 4
0 0 0 1 2 4 6 8 10 8 8 15 25 30 29 24 22 24 26 25 24 23 22 20 20 21 22 23 24 25 24 22 19 17 14 12 11 11 8 5 3 2 3 4 6 6 5 4 2
0 0 0 1 3 6 10 12 10 8 9 16 25 30 29 23 22 25 26 25 23 23 24 23 23 23 24 25 26 27 27 25 21 18 15 13 13 12 10 7 6 4 3 4 6 5 4 3 1
0 0 0 1 1 5 10 12 10 9 11 16 23 27 26 23 26 29 31 31 31 30 29 27 26 26 28 30 29 27 26 24 22 19 17 15 14 13 11 8 7 6 4 3 4 3 2 1 1
0 0 0 0 0 2 6 8 7 8 11 16 22 25 24 24 27 31 34 35 35 34 32 31 30 29 30 31 29 25 23 23 21 19 17 16 14 11 7 5 5 5 3 2 1 1 0 0 0
0 0 0 0 0 1 2 3 4 5 10 18 24 25 24 24 25 28 31 32 30 30 30 31 30 26 24 25 24 20 20 21 19 16 14 14 11 7 4 3 3 3 2 1 0 0 0 0 0
0 0 0 0 0 0 0 1 2 4 10 18 24 24 22 22 22 23 26 27 25 25 27 27 25 21 17 17 17 15 15 16 14 11 9 9 8 6 4 2 1 1 1 1 0 0 0 0 0
0 0 0 0 0 0 0 0 1 4 10 16 20 21 21 20 18 19 22 24 23 24 25 24 21 17 15 13 12 11 11 10 9 6 5 6 7 7 4 1 0 0 0 0 0 0 0 0 0
0 0 0 0 0 0 0 0 1 4 10 17 20 21 21 19 17 17 20 22 22 23 23 22 19 16 15 14 12 10 8 7 7 6 6 6 7 6 4 1 0 0 0 0 0 0 0 0 0
0 0 0 0 0 0 1 1 1 3 10 17 20 20 20 19 17 16 18 20 20 21 23 23 19 16 15 15 13 10 6 5 6 7 8 7 6 4 3 1 0 0 0 0 0 0 0 0 0
0 0 0 0 0 0 1 2 2 4 9 14 16 17 18 18 16 16 16 17 18 19 21 22 20 17 16 15 14 9 5 4 6 6 6 6 4 2 2 2 1 0 0 0 0 0 0 0 0
0 0 0 0 0 0 0 1 3 5 7 9 11 13 14 14 14 14 14 14 15 16 17 18 17 16 14 14 12 8 5 4 4 4 4 4 3 2 2 2 1 0 0 0 0 0 0 0 0
0 0 0 0 0 0 0 1 2 4 4 5 7 9 10 10 10 11 13 13 13 13 14 14 13 11 10 10 9 6 4 2 2 2 3 3 3 3 3 3 2 0 0 0 0 0 0 0 0
0 0 0 0 0 0 0 0 1 2 2 3 5 5 5 6 7 9 12 12 12 12 12 12 10 8 7 7 6 5 3 1 0 1 3 3 3 4 4 4 3 1 0 0 0 0 0 0 0
0 0 0 0 0 0 0 0 0 1 1 2 4 3 2 3 5 7 10 11 11 12 12 10 8 7 6 6 5 4 3 2 1 1 2 3 3 3 4 4 3 2 1 0 0 0 0 0 0
0 0 0 0 0 0 0 0 0 0 0 2 3 3 1 2 3 4 6 7 9 10 10 10 8 6 5 5 5 4 4 3 1 0 1 3 3 3 3 3 3 3 1 1 0 0 0 0 0
0 0 0 0 0 0 0 0 1 1 1 2 3 3 2 2 3 2 3 4 5 6 6 8 8 6 4 5 6 5 5 3 2 1 1 3 3 3 3 3 3 3 3 2 1 0 0 0 0
0 0 0 0 0 0 0 0 1 1 1 1 3 4 3 3 3 3 3 2 1 2 3 4 5 4 3 4 5 5 4 3 3 3 3 3 3 3 3 3 3 3 3 3 1 0 0 0 0
0 0 0 0 0 0 0 0 0 0 0 1 2 4 4 3 3 3 2 1 0 1 1 1 2 2 2 2 4 4 3 3 3 3 3 3 3 3 3 3 3 3 3 2 2 1 0 0 0
0 0 0 0 0 0 0 0 0 0 0 0 2 4 4 2 2 2 1 0 0 0 1 0 0 1 1 1 3 3 3 3 3 3 3 3 3 3 3 3 3 3 2 2 2 2 1 0 0

GEFSSGP_con_prob3kmehi_198.txt.gz
EHI
0 0 0 0 0 0 0 0 0 0 0 1 3 3 3 3 2 2 2 2 4 10 20 30 37 39 42 47 49 48 45 44 44 42 39 34 29 27 27 24 20 17 14 12 9 6 3 2 1
0 0 0 0 0 0 0 0 0 0 1 2 3 3 3 3 3 3 3 2 4 11 20 29 36 39 42 45 47 46 43 41 41 40 38 34 31 28 26 22 18 15 12 10 8 5 3 2 1
0 0 0 0 0 0 0 0 0 1 2 4 5 4 3 3 3 3 3 3 6 13 19 26 35 39 41 43 43 41 39 38 38 38 37 35 33 30 27 22 16 12 9 8 6 4 3 2 2
0 0 0 0 0 0 0 0 1 2 4 5 6 6 4 3 2 2 4 5 10 14 17 24 34 39 40 41 39 37 35 36 37 37 36 35 33 31 27 21 15 11 9 7 4 2 2 2 1
0 0 0 0 0 0 0 0 2 4 5 6 6 6 4 3 2 3 6 9 12 15 15 21 31 37 38 38 37 35 34 35 36 36 36 35 33 29 24 18 13 11 9 7 4 2 1 1 0
0 0 0 0 0 0 0 1 4 6 7 7 7 7 5 3 3 6 9 12 15 17 16 17 23 28 30 33 34 35 35 35 35 36 36 35 30 25 19 15 12 10 9 8 6 4 2 1 1
0 0 0 0 0 0 0 2 5 8 8 8 8 8 5 4 4 8 12 15 17 19 17 14 15 19 22 25 30 34 34 34 33 33 32 30 26 21 17 15 14 10 8 8 7 5 3 2 2
0 0 0 0 0 1 1 2 4 7 7 7 7 7 6 8 11 14 16 17 17 16 14 11 11 15 18 19 23 28 29 28 27 25 23 22 21 18 15 15 13 10 8 6 6 4 3 2 2
0 0 0 0 0 1 1 2 3 5 7 8 8 10 13 17 23 23 20 17 14 11 8 7 9 13 15 16 18 22 23 22 19 16 15 15 15 14 12 12 11 10 8 5 3 2 1 1 1
0 0 0 0 0 1 2 3 3 5 7 8 10 16 23 29 31 27 19 15 11 9 6 5 8 12 14 14 16 19 19 19 17 13 11 11 11 10 8 8 8 8 7 5 2 1 1 1 1
0 0 0 0 0 2 3 3 4 4 5 6 12 20 27 31 29 23 16 11 10 9 7 6 8 11 13 14 16 17 17 18 18 14 11 11 10 8 5 5 5 5 5 4 4 3 2 1 1
1 1 1 0 0 1 1 2 2 3 3 5 12 20 24 25 23 18 12 9 9 10 10 9 8 9 11 13 15 14 14 16 17 16 15 12 9 6 4 3 3 5 5 5 5 5 4 2 2
2 2 1 0 0 0 0 1 2 3 3 6 13 20 22 20 17 13 10 8 9 10 9 8 7 7 10 13 13 12 12 12 15 17 16 12 8 5 4 3 3 4 5 5 5 5 4 4 3
1 1 1 0 0 0 0 1 2 3 4 8 16 21 21 17 13 11 9 9 9 10 9 7 8 9 10 12 11 10 10 10 11 13 13 10 7 4 3 3 2 3 3 5 5 4 3 3 3
0 0 0 0 0 0 0 1 1 3 7 13 17 21 19 15 12 11 10 9 10 11 10 10 11 11 10 10 9 8 9 9 10 10 9 8 7 5 4 2 1 1 2 3 3 2 2 1 1
0 0 0 0 0 0 0 0 1 5 12 15 17 17 15 12 11 10 9 7 8 9 10 11 12 10 9 8 8 8 9 9 8 8 7 5 5 5 3 2 1 0 0 1 1 1 1 0 0
0 0 0 0 0 0 0 0 2 8 13 15 14 13 11 9 9 9 7 5 4 6 7 9 8 8 7 7 8 8 8 7 7 6 5 4 4 3 2 1 1 0 0 0 0 0 0 0 0
0 0 0 0 0 0 0 1 3 8 12 12 10 9 8 8 8 8 6 5 4 4 5 5 7 7 7 7 7 7 7 7 6 6 5 3 2 1 0 0 0 0 0 0 0 0 0 0 0
0 0 0 0 0 0 1 2 4 7 10 9 8 7 7 9 8 7 6 6 5 4 4 5 6 7 7 6 6 6 6 6 6 6 4 2 1 0 0 0 0 0 0 0 0 0 0 0 0
0 0 0 0 0 0 1 2 3 5 8 8 7 7 8 9 8 5 4 5 5 5 5 5 5 5 6 6 7 6 5 4 4 4 3 2 0 0 0 0 0 0 0 0 0 0 0 0 0
0 0 0 0 0 0 0 1 1 3 6 6 5 5 6 7 5 3 2 2 4 6 6 6 6 5 5 7 8 6 4 2 2 2 3 2 0 0 0 0 0 0 0 0 0 0 0 0 0
0 0 0 0 0 0 0 0 0 1 3 3 2 3 4 4 4 3 1 1 2 4 6 7 7 6 6 7 8 5 3 2 1 2 2 1 0 0 0 0 0 0 0 0 0 0 0 0 0
0 0 0 0 0 0 0 0 0 0 1 1 0 1 2 2 2 2 1 1 1 3 5 7 7 7 6 7 6 3 1 2 2 3 3 1 1 0 0 0 0 0 0 0 0 0 0 0 0
0 0 0 0 0 0 0 0 0 0 0 0 0 1 2 1 1 1 1 1 1 2 5 6 6 6 5 5 4 2 1 2 3 3 3 3 2 1 1 1 1 1 0 0 0 0 0 0 0
0 0 0 0 0 0 0 0 0 0 0 0 1 2 3 2 1 0 0 0 0 2 5 6 6 5 4 3 3 3 3 3 3 4 4 4 3 3 2 2 2 2 1 0 0 0 0 0 0
0 0 0 0 0 0 0 0 0 0 0 0 2 3 3 2 1 0 0 0 0 1 3 4 4 4 3 3 3 3 3 3 3 3 4 3 3 2 3 3 3 3 2 1 1 0 0 0 0
0 0 0 0 0 0 0 0 0 0 0 0 1 2 1 1 0 0 0 0 0 0 1 2 2 3 3 3 3 3 3 3 3 3 3 3 1 1 1 2 3 3 3 3 2 1 1 0 0
0 0 0 0 0 0 0 0 0 0 0 0 0 0 0 0 0 0 0 0 0 0 0 1 1 1 2 2 3 3 3 3 3 3 3 3 1 0 0 1 3 3 3 3 3 3 2 1 0
0 0 0 0 0 0 0 0 0 0 0 0 0 0 0 0 0 0 0 0 0 0 0 0 0 0 1 1 1 2 3 3 3 3 3 3 2 1 0 1 3 3 3 3 3 3 3 2 1
0 0 0 0 0 0 0 0 0 0 0 0 1 1 1 0 0 0 0 0 0 0 0 0 0 0 0 0 0 1 3 3 3 3 3 3 3 2 1 2 3 3 3 3 3 3 3 3 3

GEFSSGP_con_prob3kmehi_204.txt.gz
EHI
0 0 0 0 0 0 0 0 0 0 1 3 3 3 2 1 1 1 0 2 6 13 22 28 29 28 26 26 25 27 34 41 44 43 42 42 43 40 32 24 20 19 18 14 8 4 2 0 0
0 0 0 0 0 0 0 0 0 1 2 2 2 2 1 1 1 1 0 1 6 12 21 29 33 31 29 28 28 30 34 40 45 45 42 41 41 38 31 25 21 19 17 14 9 5 2 0 0
0 0 0 0 0 0 0 0 0 1 1 1 1 1 1 1 1 1 1 1 4 9 18 30 37 35 32 30 30 31 33 37 42 42 39 37 37 35 30 25 22 19 16 14 11 6 3 1 0
0 0 0 0 0 0 0 0 0 0 0 0 0 1 2 2 1 1 1 1 3 6 15 27 35 35 31 28 28 29 31 33 35 35 34 33 33 32 28 24 21 19 17 15 11 7 3 2 1
0 0 0 0 0 1 1 1 0 0 0 0 0 1 4 4 2 2 4 4 5 6 12 22 29 30 27 24 25 26 28 30 32 32 32 31 31 29 25 22 21 19 17 15 12 8 4 3 2
0 0 0 0 1 2 2 2 1 1 1 0 0 2 5 5 5 6 7 9 9 8 11 16 22 24 23 23 24 25 26 29 31 34 34 33 30 26 22 20 19 16 13 12 11 8 5 4 5
0 0 0 0 1 2 3 2 2 2 1 0 0 2 5 8 11 11 12 13 13 11 10 12 16 18 18 20 23 24 26 29 32 34 34 32 28 23 18 16 14 11 8 8 8 7 6 6 6
0 0 0 0 1 2 2 1 1 2 2 1 1 2 5 12 17 17 15 16 15 12 10 11 13 12 11 13 18 21 24 28 31 31 30 27 22 18 15 13 11 8 6 6 6 5 5 5 6
0 0 0 0 0 1 1 0 0 1 1 1 1 3 7 14 20 20 17 15 14 11 9 9 11 9 6 6 10 14 18 21 23 23 23 20 16 13 12 12 12 10 7 6 4 3 2 3 3
0 0 0 0 0 0 0 0 0 0 1 1 2 5 9 14 17 19 18 16 14 12 10 9 10 10 8 5 6 10 14 15 13 14 16 17 13 11 11 13 13 11 6 4 3 1 1 1 1
0 0 1 0 0 0 0 0 0 0 0 0 3 7 10 13 16 18 19 18 15 14 13 11 11 13 12 10 9 12 15 15 14 14 18 20 18 13 13 15 14 9 4 2 2 1 0 0 1
0 0 0 0 0 0 0 0 1 1 1 2 5 9 14 18 21 22 21 18 15 14 14 13 13 15 15 14 14 16 18 19 20 22 24 25 22 17 16 17 15 9 5 3 3 2 1 1 2
0 0 0 0 1 0 0 0 1 1 2 4 8 13 17 21 24 25 23 19 15 15 15 16 17 19 19 17 16 17 19 20 22 24 25 23 20 18 19 20 18 12 7 6 5 4 4 3 3
0 0 0 0 0 0 0 0 1 2 3 6 10 13 15 19 22 23 22 19 16 16 17 19 20 20 20 18 16 17 19 20 21 21 20 18 16 17 19 21 19 14 10 8 7 6 6 6 5
0 0 0 0 0 0 0 0 1 2 4 6 8 9 11 14 16 17 16 16 15 14 16 18 19 17 16 16 15 15 17 18 19 19 17 14 13 15 17 19 18 16 13 10 8 7 7 7 7
0 0 0 0 0 0 0 0 1 1 3 5 5 6 8 10 11 11 10 11 11 11 12 13 14 15 15 15 15 14 14 14 15 16 15 12 10 12 14 14 14 15 14 10 8 8 8 7 7
0 0 0 0 0 0 0 0 0 1 2 3 4 5 6 7 7 7 7 7 8 9 10 10 12 14 16 17 17 14 14 13 12 12 12 12 11 11 11 10 11 13 13 11 9 9 9 7 5
0 0 0 0 0 0 0 0 0 0 1 2 4 5 5 5 5 4 5 6 7 8 9 9 10 12 15 18 18 16 14 12 11 11 11 12 11 10 9 9 10 11 12 11 9 8 8 5 3
0 0 0 0 0 0 0 0 1 1 1 3 4 5 5 5 5 5 5 6 6 7 7 7 7 9 12 15 16 15 12 10 10 11 11 11 10 9 8 9 10 11 11 10 8 7 7 5 4
0 0 0 0 0 0 0 1 2 2 2 3 3 3 4 5 7 7 7 6 5 5 5 5 6 7 9 10 12 13 11 10 10 10 10 9 9 8 7 7 9 9 9 8 7 7 7 6 5
0 0 0 0 0 0 0 1 4 5 3 2 1 1 2 5 8 9 9 7 4 4 4 5 6 7 7 8 9 10 12 11 10 10 10 9 8 7 6 6 6 7 7 7 7 7 7 6 5
0 0 0 0 0 0 0 1 4 6 5 2 1 0 2 5 8 9 8 7 4 3 3 5 6 7 8 9 9 9 11 11 10 10 10 9 8 7 5 5 5 6 5 5 6 7 6 5 5
0 0 0 0 0 0 0 0 2 3 4 3 1 0 1 4 6 7 6 6 5 3 2 4 6 7 8 8 8 9 10 11 11 11 10 8 7 6 5 5 6 6 5 5 6 6 5 4 5
0 0 0 0 0 0 0 0 1 2 3 3 1 0 0 1 3 4 5 6 5 3 1 1 3 5 6 7 7 8 10 11 11 11 9 7 7 6 6 6 6 5 5 5 5 5 4 5 6
0 0 0 0 0 0 0 1 2 3 3 2 1 0 1 1 1 2 3 5 4 2 1 1 2 4 5 5 5 6 8 10 10 9 8 6 6 6 6 6 5 4 4 4 4 4 4 5 5
0 0 0 0 0 0 0 1 2 2 1 1 0 0 1 2 1 1 1 1 1 1 2 3 4 4 5 4 4 5 6 7 9 9 7 6 6 5 5 4 3 3 3 3 2 3 3 4 4
0 0 0 0 0 0 0 2 2 1 0 0 0 0 1 2 2 1 0 0 0 1 2 4 5 5 5 4 4 5 5 6 8 8 6 5 4 3 3 3 2 3 2 2 1 1 3 3 3
0 0 0 0 0 0 0 1 1 1 0 0 0 1 2 3 3 1 1 1 1 2 3 3 4 4 3 3 4 6 7 6 6 5 4 3 2 2 3 3 3 2 2 2 1 1 3 3 3
0 0 0 0 0 0 0 0 0 0 0 0 0 1 2 3 3 3 2 1 2 2 3 3 2 1 1 1 3 6 6 5 4 3 3 3 2 3 3 3 3 2 2 3 3 3 3 3 3
0 0 0 0 0 0 0 0 0 0 0 0 0 0 1 3 3 3 2 2 2 2 2 2 1 0 0 1 2 4 4 3 3 3 3 3 3 3 3 3 3 2 2 3 3 3 3 3 3

GEFSSGP_con_prob3kmehi_210.txt.gz
EHI
0 0 1 2 2 1 0 0 0 0 0 0 0 0 2 3 4 4 6 12 23 27 25 30 33 28 18 11 8 9 7 5 4 4 7 10 12 11 10 8 8 10 9 6 5 4 3 1 0
0 1 1 1 1 0 0 0 0 0 0 0 1 1 3 4 4 4 6 10 19 24 26 31 35 30 20 11 8 8 7 4 4 5 8 11 12 11 9 7 7 8 7 6 4 3 3 2 1
0 1 1 1 0 0 0 0 0 0 0 1 4 6 6 5 6 8 8 9 15 23 31 38 40 35 24 14 9 9 7 5 4 5 8 11 12 11 9 7 7 7 7 6 5 4 5 5 4
0 0 0 0 0 0 0 0 0 0 1 3 8 11 11 10 11 13 13 12 17 26 34 42 45 39 28 18 13 11 9 7 6 6 8 10 12 12 10 9 10 9 9 9 7 7 8 9 8
0 0 0 0 0 0 0 0 0 1 2 6 10 14 16 15 15 16 15 17 21 27 33 39 43 40 30 22 17 13 12 11 10 9 8 9 11 13 13 14 14 12 12 11 10 10 12 12 10
0 0 0 0 0 0 0 1 1 2 4 7 10 14 17 17 16 16 16 18 21 25 29 35 38 37 30 25 20 17 16 16 16 13 11 10 13 16 17 18 18 16 16 14 12 12 12 11 10
0 0 0 0 0 0 0 2 4 4 5 6 9 13 17 17 17 16 17 18 19 21 25 29 31 31 28 27 25 25 25 25 23 19 15 15 17 18 18 18 18 18 18 16 14 12 10 9 8
0 0 0 0 0 0 0 2 5 5 5 6 9 13 17 18 18 17 18 18 18 19 21 23 25 25 24 26 28 29 31 31 27 23 21 20 18 17 16 16 17 18 17 15 13 11 9 8 7
0 0 0 0 0 0 0 1 3 5 6 9 11 14 17 17 17 19 20 18 18 20 21 21 21 20 19 22 28 31 32 31 27 24 23 22 18 17 17 16 17 19 16 13 11 10 9 9 8
0 0 0 0 0 0 0 0 2 4 7 11 13 16 17 18 20 23 25 23 22 22 23 20 18 17 16 19 27 31 31 28 25 23 22 21 18 17 16 16 17 18 16 13 10 9 9 8 6
0 0 0 0 0 0 0 0 2 5 8 11 15 18 22 23 25 26 30 30 27 25 25 22 18 17 18 21 27 30 31 30 27 25 24 21 19 17 15 16 18 18 16 13 10 9 8 5 3
0 0 0 0 0 0 1 2 5 7 10 13 17 21 24 27 27 29 33 34 30 28 28 26 25 24 25 27 29 30 31 31 29 28 27 25 23 19 16 17 18 18 15 12 10 9 5 2 1
0 0 0 0 0 1 2 3 6 9 11 15 18 21 25 27 28 30 32 32 31 30 29 29 31 33 32 32 32 30 29 27 28 29 30 29 25 21 18 18 19 17 14 11 11 9 5 2 2
0 0 0 0 0 1 2 3 6 8 11 14 17 21 25 26 27 29 29 28 30 31 28 28 32 34 32 31 30 28 25 24 26 29 30 28 24 20 18 18 19 16 12 11 11 10 6 5 5
0 0 0 0 0 0 1 3 6 8 9 11 14 19 23 25 24 25 24 24 27 29 27 26 26 27 26 25 24 24 22 22 25 27 27 24 20 19 19 18 17 14 10 10 10 8 7 6 6
0 0 0 0 0 0 1 4 7 9 8 9 11 17 22 23 22 21 19 21 23 26 26 24 21 21 21 21 20 20 21 22 23 25 24 21 18 19 19 16 14 12 11 10 9 7 7 6 6
0 0 0 0 0 0 1 4 8 9 8 9 12 16 21 24 22 20 18 18 21 23 23 21 18 17 18 18 18 18 19 20 21 22 22 19 17 17 17 15 14 13 12 11 9 8 8 8 7
0 0 0 0 0 0 1 5 8 8 9 11 14 18 22 24 23 21 19 19 21 22 21 19 17 15 15 16 16 15 16 17 18 19 19 16 13 13 14 15 15 13 11 10 8 8 10 9 9
0 0 0 0 0 0 2 5 7 8 8 11 17 21 23 23 22 23 22 21 22 22 22 21 17 15 16 17 16 14 12 13 14 16 16 12 9 10 12 14 13 11 10 9 8 8 10 10 10
0 0 1 1 1 1 2 4 7 9 9 11 17 22 22 21 22 25 25 24 23 22 22 21 19 18 18 18 16 13 11 10 11 13 13 11 8 9 12 14 12 10 11 10 8 9 9 10 10
0 0 1 2 2 3 3 5 8 10 11 12 15 18 20 21 22 23 24 23 22 20 20 20 20 19 18 17 15 12 10 8 8 10 11 10 10 11 13 14 13 11 11 10 9 9 9 9 9
0 0 1 2 3 3 2 4 9 12 13 13 13 15 18 20 19 18 19 18 18 18 17 18 18 17 15 14 13 11 9 6 6 7 8 9 10 11 13 14 13 12 11 11 10 10 9 7 7
0 0 1 2 3 2 1 3 8 13 13 14 14 15 15 14 12 12 13 13 15 15 15 16 16 15 13 12 12 10 7 5 5 6 7 7 8 9 10 12 13 13 12 12 11 10 7 5 5
0 0 1 2 2 1 1 3 8 11 12 13 15 15 13 9 6 7 9 11 13 14 13 14 16 16 13 12 11 9 7 5 5 6 7 7 7 8 9 11 12 12 12 11 10 9 6 5 5
0 0 0 1 1 1 1 4 9 10 11 12 14 15 12 8 5 6 8 11 13 13 12 13 14 15 13 11 10 8 7 6 5 6 7 8 8 8 9 10 11 11 10 8 8 7 6 5 4
0 0 0 0 0 0 2 6 10 11 10 10 11 11 11 10 8 6 7 11 13 13 12 11 11 12 12 11 9 7 6 6 6 6 7 7 8 9 9 9 9 8 6 5 5 5 5 4 3
0 0 0 0 0 0 2 7 10 10 7 6 5 6 7 9 7 4 4 9 11 11 11 10 10 10 10 10 8 5 3 3 4 5 5 7 8 7 7 8 6 4 3 2 2 3 3 4 4
0 0 0 0 0 0 1 5 8 8 5 3 2 4 6 6 5 3 3 6 9 9 9 9 9 10 10 9 7 5 2 2 2 2 3 5 7 6 6 6 4 1 1 0 1 2 3 3 4
0 0 0 0 1 1 1 2 5 6 4 2 2 5 6 5 4 4 4 5 7 8 7 6 7 8 8 7 6 5 3 2 1 1 1 4 6 6 6 5 2 0 0 1 2 3 2 2 3
0 0 0 1 2 2 1 2 3 5 4 2 2 5 6 5 4 4 5 6 6 6 5 4 5 6 6 6 6 5 4 3 2 1 1 4 5 5 5 4 2 1 1 2 3 3 1 1 2

GEFSSGP_con_prob3kmehi_216.txt.gz
EHI
0 0 0 0 0 0 0 0 0 0 0 1 3 4 6 7 5 3 1 2 6 8 12 21 29 30 29 28 27 26 24 22 19 15 14 14 15 15 15 13 10 9 9 9 9 9 6 3 1
0 0 0 0 0 0 0 1 1 1 1 2 3 4 6 7 5 3 1 3 7 10 13 20 28 31 30 27 25 24 22 19 18 16 14 14 13 13 13 12 10 10 11 10 9 7 5 2 1
0 0 0 0 0 0 0 1 2 3 3 4 4 4 5 5 4 3 2 6 11 12 13 19 26 31 31 27 23 21 19 16 15 15 15 14 14 13 13 11 9 9 11 11 8 6 4 2 1
0 0 0 0 0 0 0 1 2 3 4 5 5 4 4 3 5 5 7 10 13 12 12 17 24 29 29 26 23 21 19 17 15 15 15 15 16 15 13 10 8 8 9 9 9 7 5 3 1
0 0 0 0 0 0 0 0 1 2 4 5 5 5 4 5 8 11 12 14 15 13 12 16 22 26 27 25 23 22 21 19 18 17 17 17 18 16 13 9 8 9 10 9 8 8 6 3 1
0 0 0 0 0 0 0 0 1 2 4 5 6 6 6 8 13 15 16 17 17 15 14 15 19 23 25 25 23 22 21 19 18 19 19 19 18 16 12 10 9 9 9 9 9 7 6 4 2
0 0 0 0 0 0 0 0 1 4 6 6 7 8 8 11 16 19 19 21 21 19 16 15 15 18 21 23 23 23 22 20 19 19 19 19 18 15 12 11 10 8 8 8 8 7 7 6 5
0 0 0 0 0 0 0 1 3 7 8 8 7 9 11 16 21 23 24 25 25 21 17 14 13 13 14 16 19 21 23 22 20 19 18 17 16 14 12 11 10 9 7 6 5 7 9 9 8
0 0 0 0 0 0 0 1 6 10 12 11 12 14 17 22 27 27 25 25 25 21 16 13 11 9 8 11 14 16 18 19 18 17 15 14 13 13 11 10 10 9 8 6 5 6 8 9 9
0 0 0 0 0 0 0 2 6 11 13 15 18 20 22 27 30 29 24 20 19 17 13 11 9 7 7 9 11 11 12 12 12 12 11 11 12 12 11 9 9 10 9 8 6 6 7 7 7
0 0 0 0 0 0 0 2 6 10 11 14 19 22 24 26 26 23 18 13 12 12 11 9 7 6 6 8 9 8 8 7 7 7 9 10 12 11 9 8 8 9 10 10 9 8 7 7 7
0 0 0 0 0 0 1 4 7 10 10 12 17 21 23 22 19 15 11 10 10 11 11 8 6 5 5 6 7 8 7 6 5 6 8 9 10 8 7 6 6 7 8 9 9 8 8 8 7
0 0 0 0 0 1 2 6 10 11 11 13 17 20 20 19 16 12 11 12 13 14 12 8 6 6 6 6 7 8 8 7 6 6 8 8 7 6 4 3 4 5 6 7 7 7 8 8 7
0 0 0 0 1 3 4 7 11 13 13 15 17 17 18 18 18 16 15 15 16 14 11 9 8 7 7 7 8 8 7 5 5 5 6 6 7 6 3 2 2 3 4 4 5 6 6 6 5
0 0 0 1 2 4 5 7 10 14 16 18 17 16 17 19 20 19 17 15 14 12 10 9 9 8 8 7 7 6 5 4 4 5 4 4 6 6 4 2 2 3 3 3 4 4 4 3 2
0 0 0 1 2 3 5 6 11 17 21 19 17 16 17 19 20 18 15 12 11 10 9 9 8 7 6 6 5 4 4 4 5 5 4 3 4 5 5 3 3 3 3 3 3 2 2 1 0
0 0 0 0 1 2 3 6 12 19 22 20 18 18 18 18 16 13 11 10 8 7 6 5 4 4 5 4 4 3 4 4 4 3 3 2 2 3 3 3 2 3 3 3 2 1 0 0 0
0 0 0 0 0 1 3 7 12 18 21 20 18 19 19 16 13 10 8 7 5 4 2 1 1 3 4 4 4 4 4 3 2 1 1 1 1 1 1 1 1 1 2 2 2 1 0 0 0
0 0 0 0 0 1 4 8 12 16 19 20 18 17 18 16 12 10 8 5 4 2 1 0 0 1 3 3 4 4 4 3 1 0 0 0 0 0 0 0 0 0 1 1 1 0 0 0 0
0 0 0 0 0 1 5 8 11 13 16 18 18 16 16 14 12 11 9 6 3 2 1 0 0 0 1 2 3 3 3 2 1 0 0 0 0 0 0 0 0 0 0 0 0 0 0 0 0
0 0 0 0 0 1 5 7 9 10 12 14 16 15 14 13 11 11 9 6 3 1 1 0 0 0 0 1 3 3 2 1 1 1 1 0 0 0 0 0 0 0 0 0 0 0 0 0 0
0 0 0 0 0 1 3 5 7 8 7 10 13 14 13 11 9 9 8 6 3 1 0 0 0 0 0 0 2 3 2 1 0 1 1 0 0 0 0 0 0 0 0 0 0 0 0 0 0
0 0 0 0 0 0 1 2 4 6 6 7 11 13 10 8 7 8 8 6 3 2 1 0 0 0 0 1 1 2 3 2 0 0 0 0 0 0 0 0 0 0 0 0 0 0 0 0 0
0 0 0 0 0 0 0 0 2 4 5 6 9 10 8 6 6 7 8 6 4 2 1 0 0 0 0 1 2 2 2 1 0 0 0 1 1 1 0 0 0 1 1 0 0 0 0 0 0
0 0 0 0 0 0 0 0 1 2 3 6 9 7 5 6 6 7 7 6 4 2 2 1 0 0 0 1 1 2 2 1 0 0 0 1 1 1 0 0 1 2 2 1 0 0 0 0 0
0 0 0 0 0 0 0 0 1 2 3 5 6 3 3 5 6 6 6 6 4 3 2 1 0 0 0 0 0 1 1 0 0 0 0 0 0 0 0 0 1 2 2 1 0 0 0 0 0
0 0 0 0 0 0 0 0 0 2 3 4 3 1 2 4 6 6 6 5 3 2 2 1 0 0 0 1 0 0 0 0 0 0 0 0 0 0 0 0 1 2 2 1 0 0 0 0 0
0 0 0 0 0 0 0 0 0 1 2 3 2 1 2 5 5 5 4 4 2 1 1 0 0 0 0 0 0 0 0 0 0 0 0 0 0 0 0 0 0 1 1 0 0 0 0 0 0
0 0 0 0 0 0 0 0 0 0 1 2 1 1 2 4 4 4 3 2 1 1 1 0 0 0 0 0 0 0 0 0 0 0 0 0 0 0 0 0 0 0 0 0 0 0 0 0 0
0 0 0 0 0 0 0 0 0 0 0 1 0 0 1 2 3 4 3 1 1 1 1 0 0 0 0 0 0 0 0 0 0 0 0 0 0 0 0 0 0 0 0 0 0 0 0 0 0

GEFSSGP_con_prob3kmehi_222.txt.gz
EHI
0 0 0 0 0 0 0 0 1 2 2 1 1 2 2 2 1 0 0 0 2 6 12 18 22 23 24 27 30 32 35 38 39 37 35 34 33 31 31 30 27 23 20 18 17 15 11 8 7
0 0 0 0 0 0 0 0 1 2 2 2 1 1 1 1 1 0 0 1 4 8 12 17 20 21 23 26 28 29 32 36 39 38 36 34 32 30 29 27 25 22 20 19 17 15 12 10 8
0 0 0 0 0 0 0 0 1 2 2 1 1 0 0 0 1 0 1 2 5 8 12 16 18 18 19 23 24 24 26 29 31 31 31 30 29 28 26 25 23 21 21 20 17 14 12 11 10
0 0 0 0 0 0 0 0 1 1 1 0 0 0 0 0 1 1 2 4 7 10 12 15 16 15 16 19 20 20 20 20 20 20 22 23 24 24 23 22 21 20 20 19 16 13 12 11 10
0 0 0 0 0 0 0 0 0 0 0 0 0 0 0 1 2 3 4 7 10 12 13 15 16 16 17 19 19 19 18 17 16 16 17 18 19 19 19 17 17 17 17 15 14 12 11 12 11
0 0 0 0 0 0 0 0 0 0 0 0 1 1 1 2 4 6 7 10 12 14 14 14 16 17 18 20 20 19 18 17 15 14 14 15 15 16 16 14 14 15 15 12 10 9 10 11 11
0 0 0 0 0 0 0 0 0 0 0 2 3 2 2 4 7 9 11 11 13 13 13 13 13 13 16 18 18 18 17 16 13 11 11 12 13 14 14 14 13 14 13 10 7 6 7 8 9
0 0 0 0 0 0 0 0 0 0 1 4 5 3 3 7 11 14 14 12 11 10 10 11 11 11 12 15 17 18 17 15 13 12 12 12 12 12 12 12 11 10 9 8 7 6 5 5 6
0 0 0 0 0 0 0 0 0 1 3 6 7 5 7 13 17 18 15 12 9 6 7 9 10 10 10 13 16 17 16 14 12 12 12 11 11 11 10 8 7 6 6 6 7 7 6 6 6
0 0 0 0 0 0 0 0 1 2 4 6 8 9 14 20 20 17 14 13 9 6 5 7 9 9 9 11 13 14 12 10 9 8 8 9 10 10 8 6 5 4 4 5 5 6 7 8 9
0 0 0 0 0 0 0 1 2 3 4 5 7 11 16 19 17 13 11 11 9 6 4 5 7 8 7 8 9 9 8 7 5 5 5 7 8 8 8 7 6 5 5 6 5 5 6 8 10
0 0 0 0 0 0 1 2 4 5 5 6 8 12 15 15 14 11 10 9 7 5 3 4 5 6 7 6 6 6 6 6 4 4 5 6 6 7 8 8 8 7 8 9 8 6 5 5 6
0 0 0 0 0 1 2 5 7 7 8 9 12 13 13 13 12 10 9 8 6 4 3 3 3 5 6 6 5 5 5 5 4 4 5 6 6 6 7 9 9 9 10 10 9 8 6 5 4
0 0 0 0 0 1 3 7 9 10 11 13 14 12 11 12 11 10 8 6 4 4 3 2 1 2 5 6 5 4 4 4 3 3 4 5 6 6 7 7 7 8 9 8 7 7 7 5 4
0 0 0 0 0 1 3 6 9 11 12 14 15 13 11 10 10 9 8 6 4 4 3 2 0 1 3 6 6 5 4 3 3 3 3 4 5 6 6 5 5 6 6 6 5 5 5 4 3
0 0 0 0 1 1 2 4 7 12 13 14 15 14 11 8 6 5 6 6 5 4 3 1 0 0 2 4 6 6 4 3 3 3 3 3 4 5 5 4 4 4 4 4 4 4 3 2 2
0 0 0 0 2 3 4 4 7 12 14 14 14 12 7 4 2 2 3 5 4 3 2 1 0 0 0 2 5 6 4 3 3 3 3 3 3 4 4 3 2 2 2 2 2 2 1 0 1
0 0 0 0 2 5 7 6 8 12 14 15 14 10 4 1 0 0 1 1 1 1 1 0 0 0 0 1 3 5 4 2 2 2 3 3 2 1 1 1 1 1 1 1 0 0 0 0 0
0 0 0 1 3 5 6 5 7 11 14 14 12 8 3 1 0 0 0 0 0 0 0 0 0 0 0 0 1 3 3 2 2 2 2 2 1 0 0 0 0 0 0 0 0 0 0 0 0
0 0 0 2 3 3 2 2 5 8 11 11 8 5 3 2 1 0 0 0 0 0 0 0 0 0 0 0 0 1 1 1 2 2 2 1 1 0 0 0 0 0 0 0 0 0 0 0 0
0 0 0 1 2 1 0 1 3 5 7 6 5 3 3 3 2 1 0 0 0 0 0 0 0 0 0 0 0 0 0 0 1 2 2 1 0 0 0 0 0 0 0 0 0 0 0 0 0
0 0 0 0 0 0 0 0 1 2 3 3 3 3 3 3 4 3 2 1 0 0 0 0 0 0 0 0 0 0 0 0 0 1 1 1 0 0 0 0 0 0 0 0 0 0 0 0 0
0 0 0 0 0 0 0 0 0 1 1 1 3 3 3 4 5 5 4 2 1 0 0 0 0 0 0 0 0 0 0 0 0 0 0 0 0 0 0 0 0 0 0 0 0 0 0 0 0
0 0 0 0 0 0 0 0 0 0 0 1 2 3 3 4 5 6 5 3 1 0 0 0 0 0 0 0 0 0 0 0 0 0 0 0 0 0 0 0 0 0 0 0 0 0 0 0 0
0 0 0 0 0 0 0 0 0 0 0 0 1 2 3 4 4 5 4 2 0 0 0 0 0 0 0 0 0 0 0 0 0 0 0 0 0 0 0 0 0 0 0 0 0 0 0 0 0
0 0 0 0 0 0 0 0 0 0 0 0 1 2 3 2 3 3 3 2 0 0 0 0 0 0 0 0 0 0 0 0 0 0 0 0 0 0 0 0 0 0 0 0 0 0 0 0 0
0 0 0 0 0 0 0 0 0 0 0 0 1 2 2 1 1 2 2 1 0 0 0 0 0 0 0 0 0 0 0 0 0 0 0 0 0 0 0 0 0 0 0 0 0 0 0 0 0
0 0 0 0 0 0 0 0 0 0 0 0 1 2 2 1 1 1 1 0 0 0 0 0 0 0 0 0 0 0 0 0 0 0 0 0 0 0 0 0 0 0 0 0 0 0 0 0 0
0 0 0 0 0 0 0 0 0 0 0 0 1 2 2 1 0 0 0 0 0 0 0 0 0 0 0 0 0 0 0 0 0 0 0 0 0 0 0 0 0 0 0 0 0 0 0 0 0
0 0 0 0 0 0 0 0 0 0 0 0 1 2 1 0 0 0 0 0 0 0 0 0 0 0 0 0 0 0 0 0 0 0 0 0 0 0 0 0 0 0 0 0 0 0 0 0 0

GEFSSGP_con_prob3kmehi_228.txt.gz
EHI
0 0 0 0 0 0 0 0 0 0 0 0 0 0 0 0 0 1 0 1 3 8 16 23 27 27 23 21 21 23 24 24 25 26 25 24 24 26 26 23 22 22 22 20 17 17 16 13 12
0 0 0 0 0 0 0 0 0 0 0 0 0 0 0 0 1 2 2 2 3 8 16 22 26 27 25 24 23 24 24 24 24 23 21 20 21 21 20 19 19 21 20 17 16 15 14 11 10
0 0 0 0 0 0 0 1 2 1 0 0 0 0 0 1 1 3 4 5 5 8 15 23 27 28 27 26 26 25 24 24 23 20 19 18 18 17 15 14 16 18 18 16 14 13 12 10 8
0 0 0 0 0 0 1 2 2 1 0 0 0 0 1 2 3 4 4 5 7 9 14 22 27 27 26 27 28 27 25 25 24 22 20 19 16 14 13 13 15 17 17 16 14 12 11 10 10
0 0 0 0 0 0 1 2 1 1 0 0 0 0 2 5 7 7 4 4 7 9 12 19 25 25 24 25 27 29 27 25 25 23 21 19 16 13 12 13 14 15 16 15 13 12 11 12 13
0 0 0 0 0 1 2 2 1 0 0 0 0 1 4 7 10 9 5 4 7 10 11 14 18 19 21 23 25 27 25 21 20 21 20 17 14 12 12 13 13 13 12 12 10 10 11 12 13
0 0 0 0 0 1 2 3 2 0 0 0 0 1 4 10 13 10 6 6 9 12 13 11 11 12 15 19 22 22 20 16 15 16 16 15 12 11 11 11 12 11 10 9 7 7 9 10 11
0 1 1 1 0 1 2 2 1 0 0 1 1 2 6 12 16 13 10 9 12 15 15 12 8 8 9 13 17 17 16 15 15 15 13 11 10 8 8 9 9 9 9 8 7 6 7 8 8
0 1 1 1 0 1 1 1 0 0 1 2 3 4 7 13 16 15 13 12 14 16 16 13 10 7 6 9 12 12 11 12 12 11 9 7 6 6 6 7 7 8 8 7 6 6 7 7 7
0 1 1 0 0 0 0 0 0 0 1 3 4 5 8 11 15 14 11 10 13 16 15 12 11 9 7 9 12 10 8 7 6 5 4 3 3 4 6 7 7 7 7 6 5 5 5 4 4
1 1 0 0 0 0 0 0 1 1 2 3 3 4 6 9 13 14 12 11 12 13 12 10 9 8 8 11 13 12 9 6 4 2 2 2 2 3 5 6 6 7 7 6 6 5 4 3 3
2 1 0 0 0 0 0 1 2 3 3 3 3 3 6 9 14 17 17 14 12 10 7 7 7 8 9 12 14 13 10 7 5 4 4 3 3 3 5 6 7 7 7 6 7 7 5 4 3
2 1 0 0 0 0 1 2 3 4 5 5 5 6 8 13 18 21 19 16 12 8 6 6 8 9 11 13 13 10 8 6 5 5 6 6 6 6 7 9 9 7 6 6 7 8 7 6 5
2 1 0 0 0 0 1 2 3 4 5 7 9 11 12 15 20 21 20 17 13 10 9 8 8 10 11 10 9 8 7 6 6 6 6 6 8 9 9 10 10 8 7 7 6 7 8 9 9
2 1 0 0 0 0 1 2 2 3 7 10 12 13 14 16 16 18 19 17 13 11 10 7 7 7 8 8 7 7 8 8 7 7 7 6 6 8 9 10 10 10 10 9 7 7 8 9 10
2 1 0 0 1 1 2 3 4 6 10 13 13 13 15 15 13 13 15 14 12 10 8 5 4 6 7 9 9 9 10 10 9 8 8 7 5 6 9 9 9 10 11 10 9 8 8 9 9
3 1 1 1 2 3 4 7 8 8 10 12 12 12 14 14 11 10 10 10 10 9 8 6 6 8 10 11 11 11 12 11 9 8 8 7 6 7 9 9 9 9 9 9 9 8 8 8 8
3 2 2 3 4 5 7 10 9 8 7 7 9 10 11 11 11 9 7 7 8 10 9 8 9 11 11 11 11 11 11 10 9 7 6 6 6 8 9 8 9 9 8 8 7 6 6 6 7
3 3 3 4 5 6 7 8 7 5 4 4 6 8 9 9 9 8 5 5 8 11 11 10 10 11 11 9 8 9 9 8 7 5 4 4 4 6 7 8 9 9 8 7 6 4 3 3 4
3 3 4 5 5 5 5 5 4 4 3 4 5 7 8 9 8 7 5 6 9 11 11 10 9 9 9 7 7 8 7 6 4 3 3 3 3 4 5 7 8 7 6 5 4 3 2 2 2
3 3 4 5 4 2 2 2 2 3 3 3 5 7 8 9 10 8 7 8 11 11 10 9 7 7 7 6 5 6 5 4 2 1 1 2 3 3 4 4 5 5 4 2 2 2 2 2 1
3 3 3 3 2 1 0 0 1 3 3 4 6 7 8 10 11 10 10 10 11 10 9 8 7 6 6 5 4 4 4 2 1 0 0 1 1 3 3 3 3 4 3 1 1 1 2 2 1
2 1 1 1 1 0 0 0 1 3 4 4 6 7 8 10 11 11 10 9 9 10 9 8 6 5 4 4 3 3 2 1 1 0 0 0 1 2 2 2 2 2 2 1 0 0 1 2 1
1 0 0 0 0 0 0 0 1 3 3 2 3 5 8 10 11 11 8 8 9 9 9 8 5 3 3 3 2 2 1 1 1 1 0 1 1 1 1 1 1 1 1 0 0 0 1 1 1
1 0 0 0 0 0 0 1 1 1 1 1 1 4 7 10 12 11 9 8 9 9 9 7 5 3 2 1 1 1 0 1 2 1 0 1 2 2 1 0 0 0 0 0 0 0 0 0 0
2 1 0 0 0 0 1 1 1 1 1 2 2 4 7 11 14 13 10 9 8 7 7 6 4 2 1 0 0 0 0 1 2 1 1 2 3 2 1 0 0 0 0 0 0 0 0 0 1
2 1 1 0 0 0 1 1 1 1 2 4 4 6 9 11 14 15 13 10 8 7 6 4 2 1 0 0 0 0 0 1 1 1 2 2 2 2 1 1 2 1 1 1 0 0 0 1 2
3 3 2 1 1 0 0 1 1 2 4 6 7 8 10 11 13 14 13 11 9 7 5 3 2 1 1 1 0 0 0 0 0 1 2 2 2 3 2 3 3 3 2 2 1 0 0 1 2
3 3 3 2 2 1 0 0 1 3 5 7 7 9 10 12 13 13 13 11 8 7 5 3 2 2 2 2 0 0 0 0 0 1 1 1 2 3 2 2 2 2 2 2 2 1 0 1 2
3 3 3 3 2 2 1 0 1 3 5 6 7 9 11 12 13 13 12 10 7 5 4 3 3 4 4 2 0 0 0 0 0 0 0 1 2 2 1 1 1 1 1 2 2 1 0 1 1

GEFSSGP_con_prob3kmehi_234.txt.gz
EHI
0 0 1 2 2 1 0 0 0 0 0 0 0 0 2 4 4 2 2 10 24 28 24 24 26 24 20 16 10 6 5 7 9 7 5 2 2 4 7 7 5 4 6 6 7 7 5 4 2
0 1 2 2 1 0 0 0 0 0 0 0 0 2 4 5 3 3 4 12 22 25 22 24 28 28 24 19 15 10 7 8 10 10 8 5 3 4 5 6 6 5 5 6 6 7 6 5 4
0 1 2 2 1 0 0 0 1 0 0 0 1 4 6 5 4 5 7 13 21 24 24 27 31 31 26 22 20 16 11 10 11 12 11 8 5 4 4 5 7 7 6 6 7 6 6 6 6
0 1 1 1 0 0 0 0 0 0 0 0 2 6 8 7 6 7 9 13 19 25 27 29 31 31 26 23 22 20 16 12 12 12 11 9 6 4 4 5 6 7 7 8 8 7 5 4 4
0 0 0 0 0 0 0 0 0 0 0 1 4 9 9 8 8 7 7 10 16 24 28 28 29 29 26 23 23 23 20 16 13 12 10 9 7 5 4 5 7 7 7 7 8 7 5 3 3
0 0 0 0 0 0 0 0 0 0 0 1 5 11 11 10 9 6 5 8 14 22 26 26 26 26 24 22 23 24 23 19 16 13 10 8 6 4 3 4 5 6 6 7 6 6 5 4 4
0 0 0 0 0 0 0 0 0 0 0 1 6 11 14 14 11 7 6 8 13 19 22 21 21 22 21 21 21 23 22 21 19 16 12 9 5 3 2 2 2 3 5 7 6 4 4 4 5
0 0 0 0 0 0 0 0 0 1 1 3 7 11 16 18 13 10 10 11 13 18 20 18 16 17 17 18 21 22 22 24 23 19 14 9 6 4 3 1 1 2 5 6 5 4 3 3 4
0 0 0 0 0 0 0 0 1 2 3 5 8 11 15 16 12 11 15 16 16 18 19 17 14 12 11 14 18 20 19 21 20 16 13 9 6 5 4 4 4 5 6 6 6 5 3 3 3
0 0 0 0 0 0 0 1 1 3 4 5 7 11 14 12 10 13 18 20 19 18 18 17 14 11 8 11 16 16 16 15 12 10 10 8 6 5 5 6 8 8 7 7 7 6 4 3 3
0 0 0 0 0 0 1 2 3 3 4 5 8 13 15 13 12 15 20 22 19 18 18 17 16 14 12 14 16 17 18 15 10 7 9 9 8 8 8 9 10 8 7 7 8 7 5 4 5
0 0 0 0 0 1 2 3 4 5 7 8 11 17 19 16 15 17 21 23 21 19 18 19 20 19 19 21 21 21 21 19 14 11 11 11 10 11 12 11 10 8 8 9 10 10 8 7 7
0 0 0 0 0 2 3 3 5 8 10 10 14 19 20 18 17 19 23 25 24 21 20 23 25 25 25 25 23 22 22 20 18 16 15 14 13 13 13 13 12 10 9 10 11 11 9 8 8
0 0 0 0 0 1 3 4 6 9 10 10 13 17 19 20 20 23 26 28 27 25 25 27 29 28 28 25 22 21 21 20 18 19 18 17 16 15 15 15 15 12 10 9 10 10 10 9 8
0 0 0 0 0 1 3 5 8 10 11 11 12 14 18 22 23 24 27 29 30 30 30 29 27 27 27 23 19 18 19 19 19 20 20 18 17 18 17 17 16 12 9 10 10 10 11 10 9
0 0 0 0 0 1 3 7 11 12 13 13 14 15 19 24 25 25 25 26 28 31 31 28 24 24 25 22 18 16 17 18 19 20 20 19 18 18 18 17 14 11 10 10 11 11 12 10 8
0 0 0 0 0 1 4 9 12 13 12 13 16 19 22 26 27 26 24 23 26 29 31 28 25 23 23 22 20 18 18 20 20 20 20 19 16 15 15 14 13 11 10 10 10 11 11 8 5
0 0 0 0 0 1 4 9 13 12 10 11 16 20 24 27 29 29 26 23 25 28 30 29 25 24 23 22 21 20 20 22 22 20 18 15 11 11 10 9 9 9 8 9 9 9 9 6 3
0 0 0 0 1 2 4 9 13 11 9 11 15 19 22 26 29 29 26 23 24 27 28 26 23 23 23 23 22 21 20 20 19 16 13 9 8 9 8 6 4 6 7 9 9 8 6 4 2
0 0 1 1 2 3 5 8 11 11 10 12 15 17 19 23 27 28 25 22 23 26 26 25 24 24 25 25 24 22 20 17 15 12 9 6 5 6 6 4 3 4 7 9 9 7 5 3 2
0 0 1 2 2 3 4 5 8 11 11 12 14 16 17 21 26 27 25 23 23 24 25 26 28 28 27 27 24 21 18 15 12 10 7 4 3 3 3 3 3 3 5 6 6 5 4 3 3
0 0 0 1 2 2 2 2 5 10 12 12 13 15 16 20 25 27 26 24 23 23 23 26 30 29 27 24 20 17 15 14 12 8 5 3 2 2 1 1 1 2 3 4 4 5 5 5 4
0 0 0 0 0 0 0 2 5 9 10 10 11 12 14 18 24 26 26 25 24 22 21 23 28 27 23 20 19 18 17 16 13 7 3 3 2 1 0 0 0 1 2 2 2 4 5 5 3
0 0 0 0 0 0 0 2 6 9 9 8 8 9 12 17 22 24 25 25 24 22 20 20 24 23 19 17 19 20 19 17 12 7 4 3 1 0 0 0 0 0 1 1 1 2 3 3 2
0 0 0 0 0 0 0 3 7 9 8 7 7 8 12 15 20 22 24 26 25 23 21 20 21 21 19 17 18 19 18 15 12 8 5 4 2 1 1 1 1 1 0 0 0 1 2 2 3
0 0 0 0 0 0 1 3 6 7 6 6 7 9 12 14 18 21 25 27 27 26 23 20 20 20 18 16 17 17 16 13 10 7 5 4 3 3 3 2 2 1 1 0 0 0 1 2 2
0 0 0 0 0 0 1 3 4 4 4 6 7 10 13 15 16 20 25 27 27 27 25 22 21 19 16 14 14 14 14 11 8 6 4 4 3 3 2 1 1 1 1 1 1 1 1 2 2
0 0 0 0 0 0 0 2 3 3 4 6 8 11 14 16 17 20 24 26 27 27 26 23 21 18 15 12 11 10 10 8 6 4 3 3 2 1 1 0 0 0 0 0 1 2 2 3 3
0 0 0 0 0 0 0 2 5 5 5 8 10 12 15 18 18 21 25 27 28 27 23 21 19 17 14 11 9 8 6 4 2 2 2 1 1 0 0 0 0 0 0 0 0 1 2 2 1
0 0 0 0 0 1 1 3 7 8 8 9 11 12 15 18 20 22 26 29 29 26 21 18 17 16 13 11 9 7 5 2 1 1 1 0 0 0 0 0 0 0 0 0 0 0 1 1 0